[[{"header":{"parameterUnit":"m.s-1","parameterCategory":1,"la1":31.0,"la2":29.5877,"lo1":-88.7671,"lo2":-86.6584,"dy":0.0162,"dx":0.0185,"nx":115,"ny":88,"refTime":"2023-08-16T00:00:00:Z","depth":0,"parameterNumber":2,"parameterNumberName":"U-component_of_WINDS"},"data":[0.0,0.0,0.0,0.0,0.0,0.0,0.0,0.0,0.0,0.0,0.0,0.0,0.0,0.0,0.0,0.0,0.0,0.0,0.0,0.0,0.0,0.0,0.0,0.0,0.0,0.0,0.0,0.0,0.0,0.0,0.0,0.0,0.0,0.0,0.0,0.0,0.0,0.0,0.0,0.0,0.0,0.0,0.0,0.0,0.0,0.0,0.0,0.0,0.0,0.0,0.0,0.0,0.0,0.0,0.0,0.0,0.0,0.0,0.0,0.0,0.0,0.0,0.0,0.0,0.0,0.0,0.0,0.0,0.0,0.0,0.0,0.0,0.0,0.0,0.0,0.0,0.0,0.0,0.0,0.0,0.0,0.0,0.0,0.0,0.0,0.0,0.0,0.0,0.0,0.0,0.0,0.0,0.0,0.0,0.0,0.0,0.0,0.0,0.0,0.0,0.0,0.0,0.0,0.0,0.0,0.0,0.0,0.0,0.0,0.0,0.0,0.0,0.0,0.0,0.0,0.0,0.0,0.0,0.0,0.0,0.0,0.0,0.0,0.0,0.0,0.0,0.0,0.0,0.0,0.0,0.0,0.0,0.0,0.0,0.0,0.0,0.0,0.0,0.0,0.0,0.0,0.0,0.0,0.0,0.0,0.0,0.0,0.0,0.0,0.0,0.0,0.0,0.0,0.0,0.0,0.0,0.0,0.0,0.0,0.0,0.0,0.0,0.0,0.0,0.0,0.0,0.0,0.0,0.0,0.0,0.0,0.0,0.0,0.0,0.0,0.0,0.0,0.0,0.0,0.0,0.0,0.0,0.0,0.0,0.0,0.0,0.0,0.0,0.0,0.0,0.0,0.0,0.0,0.0,0.0,0.0,0.0,0.0,0.0,0.0,0.0,0.0,0.0,0.0,0.0,0.0,0.0,0.0,0.0,0.0,0.0,0.0,0.0,0.0,0.0,0.0,0.0,0.0,0.0,0.0,0.0,0.0,0.0,0.0,0.0,0.0,0.0,0.0,0.0,0.0,0.0,0.0,0.0,0.0,0.0,0.0,0.0,0.0,0.0,0.0,0.0,0.0,0.0,0.0,0.0,0.0,0.0,0.0,0.0,0.0,0.0,0.0,0.0,0.0,0.0,0.0,0.0,0.0,0.0,0.0,0.0,0.0,0.0,0.0,0.0,0.0,0.0,0.0,0.0,0.0,0.0,0.0,0.0,0.0,0.0,0.0,0.0,0.0,0.0,0.0,0.0,0.0,0.0,0.0,0.0,0.0,0.0,0.0,0.0,0.0,0.0,0.0,0.0,0.0,0.0,0.0,0.0,0.0,0.0,0.0,0.0,0.0,0.0,0.0,0.0,0.0,0.0,0.0,0.0,0.0,0.0,0.0,0.0,0.0,0.0,0.0,0.0,0.0,0.0,0.0,0.0,0.0,0.0,0.0,0.0,0.0,0.0,0.0,0.0,0.0,0.0,0.0,0.0,0.0,0.0,0.0,0.0,0.0,0.0,0.0,0.0,0.0,0.0,0.0,0.0,0.0,0.0,0.0,0.0,0.0,0.0,0.0,0.0,0.0,0.0,0.0,0.0,0.0,0.0,0.0,0.0,0.0,0.0,0.0,0.0,0.0,0.0,0.0,0.0,0.0,0.0,0.0,0.0,0.0,0.0,0.0,0.0,0.0,0.0,0.0,0.0,0.0,0.0,0.0,0.0,0.0,0.0,0.0,0.0,0.0,0.0,0.0,0.0,0.0,0.0,0.0,0.0,0.0,0.0,0.0,0.0,0.0,0.0,0.0,0.0,0.0,0.0,0.0,0.0,0.0,0.0,0.0,0.0,0.0,0.0,0.0,0.0,0.0,0.0,0.0,0.0,0.0,0.0,0.0,0.0,0.0,0.0,0.0,0.0,0.0,0.0,0.0,0.0,0.0,0.0,0.0,0.0,0.0,0.0,0.0,0.0,0.0,0.0,0.0,0.0,0.0,0.0,0.0,0.0,0.0,0.0,0.0,0.0,0.0,0.0,0.0,0.0,0.0,0.0,0.0,0.0,0.0,0.0,0.0,0.0,0.0,0.0,0.0,0.0,0.0,0.0,0.0,0.0,0.0,0.0,0.0,0.0,0.0,0.0,0.0,0.0,0.0,0.0,0.0,0.0,0.0,0.0,0.0,0.0,0.0,0.0,0.0,0.0,0.0,0.0,0.0,0.0,0.0,0.0,0.0,0.0,0.0,0.0,0.0,0.0,0.0,0.0,0.0,0.0,0.0,0.0,0.0,0.0,0.0,0.0,0.0,0.0,0.0,0.0,0.0,0.0,0.0,0.0,0.0,0.0,0.0,0.0,0.0,0.0,0.0,0.0,0.0,0.0,0.0,0.0,0.0,0.0,0.0,0.0,0.0,0.0,0.0,0.0,0.0,0.0,0.0,0.0,0.0,0.0,0.0,0.0,0.0,0.0,0.0,0.0,0.0,0.0,0.0,0.0,0.0,0.0,0.0,0.0,0.0,0.0,0.0,0.0,0.0,0.0,0.0,0.0,0.0,0.0,0.0,0.0,0.0,0.0,0.0,0.0,0.0,0.0,0.0,0.0,0.0,0.0,0.0,0.0,0.0,0.0,0.0,0.0,0.0,0.0,0.0,0.0,0.0,0.0,0.0,0.0,0.0,0.0,0.0,0.0,0.0,0.0,0.0,0.0,0.0,0.0,0.0,0.0,0.0,0.0,0.0,0.0,0.0,0.0,0.0,0.0,0.0,0.0,0.0,0.0,0.0,0.0,0.0,0.0,0.0,0.0,0.0,0.0,0.0,0.0,0.0,0.0,0.0,0.0,0.0,0.0,0.0,0.0,0.0,0.0,0.0,0.0,0.0,0.0,0.0,0.0,0.0,0.0,0.0,0.0,0.0,0.0,0.0,0.0,0.0,0.0,0.0,0.0,0.0,0.0,0.0,0.0,0.0,0.0,0.0,0.0,0.0,0.0,0.0,0.0,0.0,0.0,0.0,0.0,0.0,0.0,0.0,0.0,0.0,0.0,0.0,0.0,0.0,0.0,0.0,0.0,0.0,0.0,0.0,0.0,0.0,0.0,0.0,0.0,0.0,0.0,0.0,0.0,0.0,0.0,0.0,0.0,0.0,0.0,0.0,0.0,0.0,0.0,0.0,0.0,0.0,0.0,0.0,0.0,0.0,0.0,0.0,0.0,0.0,0.0,0.0,0.0,0.0,0.0,0.0,0.0,0.0,0.0,0.0,0.0,0.0,0.0,0.0,0.0,0.0,0.0,0.0,0.0,0.0,0.0,0.0,0.0,0.0,0.0,0.0,0.0,0.0,0.0,0.0,0.0,0.0,0.0,0.0,0.0,0.0,0.0,0.0,0.0,0.0,0.0,0.0,0.0,0.0,0.0,0.0,0.0,0.0,0.0,0.0,0.0,0.0,0.0,0.0,0.0,0.0,0.0,0.0,0.0,0.0,0.0,0.0,0.0,0.0,0.0,0.0,0.0,0.0,0.0,0.0,0.0,0.0,0.0,0.0,0.0,0.0,0.0,0.0,0.0,0.0,0.0,0.0,0.0,0.0,0.0,0.0,0.0,0.0,0.0,0.0,0.0,0.0,0.0,0.0,0.0,0.0,0.0,0.0,0.0,0.0,0.0,0.0,0.0,0.0,0.0,0.0,0.0,0.0,0.0,0.0,0.0,0.0,0.0,0.0,0.0,0.0,0.0,0.0,0.0,0.0,0.0,0.0,0.0,0.0,0.0,0.0,0.0,0.0,0.0,0.0,0.0,0.0,0.0,0.0,0.0,0.0,0.0,0.0,0.0,0.0,0.0,0.0,0.0,0.0,0.0,0.0,0.0,0.0,0.0,0.0,0.0,0.0,0.0,0.0,0.0,0.0,0.0,0.0,0.0,0.0,0.0,0.0,0.0,0.0,0.0,0.0,0.0,0.0,0.0,0.0,0.0,0.0,0.0,0.0,0.0,0.0,0.0,0.0,0.0,0.0,0.0,0.0,0.0,0.0,0.0,0.0,0.0,0.0,0.0,0.0,0.0,0.0,0.0,0.0,0.0,0.0,0.0,0.0,0.0,0.0,0.0,0.0,0.0,0.0,0.0,0.0,0.0,0.0,0.0,0.0,0.0,0.0,0.0,0.0,0.0,0.0,0.0,0.0,0.0,0.0,0.0,0.0,0.0,0.0,0.0,0.0,0.0,0.0,0.0,0.0,0.0,0.0,0.0,0.0,0.0,0.0,0.0,0.0,0.0,0.0,0.0,0.0,0.0,0.0,-1.3844,0.0,0.0,0.0,0.0,0.0,0.0,0.0,0.0,0.0,0.0,0.0,0.0,0.0,0.0,0.0,0.0,0.0,0.0,0.0,0.0,0.0,0.0,0.0,0.0,0.0,0.0,0.0,0.0,0.0,0.0,0.0,0.0,0.0,0.0,0.0,0.0,0.0,0.0,0.0,0.0,0.0,0.0,0.0,0.0,0.0,0.0,0.0,0.0,0.0,0.0,0.0,0.0,0.0,0.0,0.0,0.0,0.0,0.0,0.0,0.0,0.0,0.0,0.0,0.0,0.0,0.0,0.0,0.0,0.0,0.0,0.0,0.0,0.0,0.0,0.0,0.0,0.0,0.0,0.0,0.0,0.0,0.0,0.0,0.0,0.0,0.0,0.0,0.0,0.0,0.0,0.0,0.0,0.0,0.0,0.0,0.0,0.0,0.0,0.0,0.0,0.0,0.0,0.0,0.0,0.0,0.0,0.0,0.0,0.0,0.0,-1.481,-1.4824,-1.481,-1.481,-1.4803,0.0,0.0,0.0,0.0,0.0,0.0,0.0,0.0,0.0,0.0,0.0,0.0,0.0,0.0,0.0,0.0,0.0,0.0,0.0,0.0,0.0,0.0,0.0,0.0,0.0,0.0,0.0,0.0,0.0,0.0,0.0,0.0,0.0,0.0,0.0,0.0,0.0,0.0,0.0,0.0,0.0,0.0,0.0,0.0,0.0,0.0,0.0,0.0,0.0,0.0,0.0,0.0,0.0,0.0,0.0,0.0,0.0,0.0,0.0,0.0,0.0,0.0,0.0,0.0,0.0,0.0,0.0,0.0,0.0,0.0,0.0,0.0,0.0,0.0,0.0,0.0,0.0,0.0,0.0,0.0,0.0,0.0,0.0,0.0,0.0,0.0,0.0,0.0,0.0,0.0,0.0,0.0,0.0,0.0,0.0,0.0,0.0,0.0,0.0,0.0,0.0,0.0,0.0,0.0,0.0,0.0,0.0,0.0,0.0,0.0,0.0,0.0,-1.558,-1.5576,-1.5567,0.0,0.0,0.0,0.0,0.0,0.0,0.0,0.0,0.0,0.0,0.0,0.0,0.0,0.0,0.0,0.0,0.0,0.0,0.0,0.0,0.0,0.0,0.0,0.0,0.0,0.0,0.0,0.0,0.0,0.0,0.0,0.0,0.0,0.0,0.0,0.0,0.0,0.0,0.0,0.0,0.0,0.0,0.0,0.0,0.0,0.0,0.0,0.0,0.0,0.0,0.0,0.0,0.0,0.0,0.0,0.0,0.0,0.0,0.0,0.0,0.0,0.0,0.0,0.0,0.0,0.0,0.0,0.0,0.0,0.0,0.0,0.0,0.0,0.0,0.0,0.0,0.0,0.0,0.0,0.0,0.0,0.0,0.0,0.0,0.0,0.0,0.0,0.0,0.0,0.0,0.0,0.0,0.0,0.0,0.0,0.0,0.0,0.0,0.0,0.0,0.0,0.0,0.0,0.0,0.0,0.0,0.0,0.0,0.0,0.0,-1.6134,-1.6134,-1.6134,0.0,-1.6057,0.0,0.0,0.0,0.0,0.0,0.0,0.0,0.0,0.0,0.0,0.0,0.0,0.0,0.0,0.0,0.0,0.0,0.0,0.0,0.0,0.0,0.0,0.0,0.0,0.0,0.0,0.0,0.0,0.0,0.0,0.0,0.0,0.0,0.0,0.0,0.0,0.0,0.0,0.0,0.0,0.0,0.0,0.0,0.0,0.0,0.0,0.0,0.0,0.0,0.0,0.0,0.0,0.0,0.0,0.0,0.0,0.0,0.0,0.0,0.0,0.0,0.0,0.0,0.0,0.0,0.0,0.0,0.0,0.0,0.0,0.0,0.0,0.0,0.0,0.0,0.0,0.0,0.0,0.0,0.0,0.0,0.0,0.0,0.0,0.0,0.0,0.0,0.0,0.0,0.0,0.0,0.0,0.0,0.0,0.0,0.0,0.0,0.0,0.0,0.0,0.0,0.0,0.0,0.0,0.0,0.0,0.0,0.0,0.0,0.0,-1.6654,-1.6555,-1.6684,-1.6675,0.0,0.0,0.0,0.0,0.0,0.0,0.0,0.0,0.0,0.0,0.0,0.0,0.0,0.0,0.0,0.0,0.0,0.0,0.0,0.0,0.0,0.0,0.0,0.0,0.0,0.0,0.0,0.0,0.0,0.0,0.0,0.0,0.0,0.0,0.0,0.0,0.0,0.0,0.0,0.0,0.0,0.0,0.0,0.0,0.0,0.0,0.0,0.0,0.0,0.0,0.0,0.0,0.0,0.0,0.0,0.0,0.0,0.0,0.0,0.0,0.0,0.0,0.0,0.0,0.0,0.0,0.0,0.0,0.0,0.0,0.0,0.0,0.0,0.0,0.0,0.0,0.0,0.0,0.0,0.0,0.0,0.0,0.0,0.0,0.0,0.0,0.0,0.0,0.0,0.0,0.0,0.0,0.0,0.0,0.0,0.0,0.0,0.0,0.0,0.0,0.0,0.0,0.0,0.0,0.0,0.0,0.0,0.0,0.0,0.0,-1.7298,-1.714,-1.7018,-1.7183,-1.723,-1.7136,0.0,0.0,0.0,0.0,0.0,0.0,0.0,0.0,0.0,0.0,0.0,0.0,0.0,0.0,0.0,0.0,0.0,0.0,0.0,0.0,0.0,0.0,0.0,0.0,0.0,0.0,0.0,0.0,0.0,0.0,0.0,0.0,0.0,0.0,0.0,0.0,0.0,0.0,0.0,0.0,0.0,0.0,0.0,0.0,0.0,0.0,0.0,0.0,0.0,0.0,0.0,0.0,0.0,0.0,0.0,0.0,0.0,0.0,0.0,0.0,0.0,0.0,0.0,0.0,0.0,0.0,0.0,0.0,0.0,0.0,0.0,0.0,0.0,0.0,0.0,0.0,0.0,0.0,0.0,0.0,0.0,0.0,0.0,0.0,0.0,0.0,0.0,0.0,0.0,0.0,0.0,0.0,0.0,0.0,0.0,0.0,0.0,0.0,0.0,0.0,0.0,0.0,0.0,0.0,0.0,0.0,0.0,0.0,-1.7784,-1.7622,-1.7496,-1.7532,-1.7613,-1.7765,0.0,0.0,0.0,0.0,0.0,0.0,0.0,0.0,0.0,0.0,0.0,0.0,0.0,0.0,0.0,0.0,0.0,0.0,0.0,0.0,0.0,0.0,0.0,0.0,0.0,0.0,0.0,0.0,0.0,0.0,0.0,0.0,0.0,0.0,0.0,0.0,0.0,0.0,0.0,0.0,0.0,0.0,0.0,0.0,0.0,0.0,0.0,0.0,0.0,0.0,0.0,0.0,0.0,0.0,0.0,0.0,0.0,0.0,0.0,0.0,0.0,0.0,0.0,0.0,0.0,0.0,0.0,0.0,0.0,0.0,0.0,0.0,0.0,0.0,0.0,0.0,0.0,0.0,0.0,0.0,0.0,0.0,0.0,0.0,0.0,0.0,0.0,0.0,0.0,0.0,0.0,0.0,0.0,0.0,0.0,0.0,0.0,0.0,0.0,0.0,0.0,0.0,0.0,0.0,0.0,0.0,0.0,0.0,0.0,-1.9029,-1.9348,-1.9562,-1.9515,-1.9071,-1.8806,0.0,0.0,0.0,0.0,0.0,0.0,0.0,0.0,0.0,0.0,0.0,0.0,0.0,0.0,0.0,0.0,0.0,0.0,0.0,0.0,0.0,0.0,0.0,0.0,0.0,0.0,0.0,0.0,0.0,0.0,0.0,0.0,0.0,0.0,0.0,0.0,0.0,0.0,0.0,0.0,0.0,0.0,0.0,0.0,0.0,0.0,0.0,0.0,0.0,0.0,0.0,0.0,0.0,0.0,0.0,0.0,0.0,0.0,0.0,0.0,0.0,0.0,0.0,0.0,0.0,0.0,0.0,0.0,0.0,0.0,0.0,0.0,0.0,0.0,0.0,0.0,0.0,0.0,0.0,0.0,0.0,0.0,0.0,0.0,0.0,0.0,0.0,0.0,0.0,0.0,0.0,0.0,0.0,0.0,0.0,0.0,0.0,0.0,0.0,0.0,0.0,0.0,0.0,0.0,0.0,0.0,0.0,0.0,0.0,-2.0373,0.0,-2.1088,-2.1078,-2.0388,-1.9954,0.0,0.0,0.0,0.0,0.0,0.0,0.0,0.0,0.0,0.0,0.0,0.0,0.0,0.0,0.0,0.0,0.0,0.0,0.0,0.0,0.0,0.0,0.0,0.0,0.0,0.0,0.0,0.0,0.0,0.0,0.0,0.0,0.0,0.0,0.0,0.0,0.0,0.0,0.0,0.0,0.0,0.0,0.0,0.0,0.0,0.0,0.0,0.0,0.0,0.0,0.0,0.0,0.0,0.0,0.0,0.0,0.0,0.0,0.0,0.0,0.0,0.0,0.0,0.0,0.0,0.0,0.0,0.0,0.0,0.0,0.0,0.0,0.0,0.0,0.0,0.0,0.0,0.0,0.0,0.0,0.0,0.0,0.0,0.0,0.0,0.0,0.0,0.0,0.0,0.0,0.0,0.0,0.0,0.0,0.0,0.0,0.0,0.0,0.0,0.0,0.0,0.0,0.0,0.0,0.0,0.0,0.0,0.0,-2.1068,-2.188,-2.1953,-2.2005,-2.1932,-2.1561,-2.1108,0.0,0.0,0.0,0.0,0.0,0.0,0.0,0.0,0.0,0.0,0.0,0.0,0.0,0.0,0.0,0.0,0.0,0.0,0.0,0.0,0.0,0.0,0.0,0.0,0.0,0.0,0.0,0.0,0.0,0.0,0.0,0.0,0.0,0.0,0.0,0.0,0.0,0.0,0.0,0.0,0.0,0.0,0.0,0.0,0.0,0.0,0.0,0.0,0.0,0.0,0.0,0.0,0.0,0.0,0.0,0.0,0.0,0.0,0.0,0.0,0.0,0.0,0.0,0.0,0.0,0.0,0.0,0.0,0.0,0.0,0.0,0.0,0.0,0.0,0.0,0.0,0.0,0.0,0.0,0.0,0.0,0.0,0.0,0.0,0.0,0.0,0.0,0.0,0.0,0.0,0.0,0.0,0.0,0.0,0.0,0.0,0.0,0.0,0.0,0.0,0.0,0.0,0.0,0.0,0.0,0.0,0.0,0.0,0.0,-2.4107,-2.4107,-2.4118,-2.4107,-2.3133,-2.2696,0.0,0.0,0.0,0.0,0.0,0.0,0.0,0.0,0.0,0.0,0.0,0.0,0.0,0.0,0.0,0.0,0.0,0.0,0.0,0.0,0.0,0.0,0.0,0.0,0.0,0.0,0.0,0.0,0.0,0.0,0.0,0.0,0.0,0.0,0.0,0.0,0.0,0.0,0.0,0.0,0.0,0.0,0.0,0.0,0.0,0.0,0.0,0.0,0.0,0.0,0.0,0.0,0.0,0.0,0.0,0.0,0.0,0.0,0.0,0.0,0.0,0.0,0.0,0.0,0.0,0.0,0.0,0.0,0.0,0.0,0.0,0.0,0.0,0.0,0.0,0.0,0.0,0.0,0.0,0.0,0.0,0.0,0.0,0.0,0.0,0.0,0.0,0.0,0.0,0.0,0.0,0.0,0.0,0.0,0.0,0.0,0.0,0.0,0.0,0.0,0.0,0.0,0.0,0.0,0.0,0.0,0.0,0.0,0.0,-2.6,-2.5748,-2.5458,-2.519,-2.4504,-2.4057,-2.3963,0.0,0.0,0.0,0.0,0.0,0.0,0.0,0.0,0.0,0.0,0.0,0.0,0.0,0.0,0.0,0.0,0.0,0.0,0.0,0.0,0.0,0.0,0.0,0.0,0.0,0.0,0.0,0.0,0.0,0.0,0.0,0.0,0.0,0.0,0.0,0.0,0.0,0.0,0.0,0.0,0.0,0.0,0.0,0.0,0.0,0.0,0.0,0.0,0.0,0.0,0.0,0.0,0.0,0.0,0.0,0.0,0.0,0.0,0.0,0.0,0.0,0.0,0.0,0.0,0.0,0.0,0.0,0.0,0.0,0.0,0.0,0.0,0.0,0.0,0.0,0.0,0.0,0.0,0.0,0.0,0.0,0.0,0.0,0.0,0.0,0.0,0.0,0.0,0.0,0.0,0.0,0.0,0.0,0.0,0.0,0.0,0.0,0.0,0.0,0.0,0.0,0.0,0.0,0.0,0.0,0.0,0.0,0.0,-2.7586,-2.6944,-2.6227,-2.5479,-2.5661,-2.5273,0.0,0.0,0.0,0.0,0.0,0.0,0.0,0.0,0.0,0.0,0.0,0.0,0.0,0.0,0.0,0.0,0.0,0.0,0.0,0.0,0.0,0.0,0.0,0.0,0.0,0.0,0.0,0.0,0.0,0.0,0.0,0.0,0.0,0.0,0.0,0.0,0.0,0.0,0.0,0.0,0.0,0.0,0.0,0.0,0.0,0.0,0.0,0.0,0.0,0.0,0.0,0.0,0.0,0.0,0.0,0.0,0.0,0.0,0.0,0.0,0.0,0.0,0.0,0.0,0.0,0.0,0.0,0.0,0.0,0.0,0.0,0.0,0.0,0.0,0.0,0.0,0.0,0.0,0.0,0.0,0.0,0.0,0.0,0.0,0.0,0.0,0.0,0.0,0.0,0.0,0.0,0.0,0.0,0.0,0.0,0.0,0.0,0.0,0.0,0.0,0.0,0.0,0.0,0.0,0.0,0.0,0.0,0.0,0.0,-2.8726,-2.8934,-2.8374,-2.6983,-2.6804,-2.651,0.0,0.0,0.0,0.0,0.0,0.0,0.0,0.0,0.0,0.0,0.0,0.0,0.0,0.0,0.0,0.0,0.0,0.0,0.0,0.0,0.0,0.0,0.0,0.0,0.0,0.0,0.0,0.0,0.0,0.0,0.0,0.0,0.0,0.0,0.0,0.0,0.0,0.0,0.0,0.0,0.0,0.0,0.0,0.0,0.0,0.0,0.0,0.0,0.0,0.0,0.0,0.0,0.0,0.0,0.0,0.0,0.0,0.0,0.0,0.0,0.0,0.0,0.0,0.0,0.0,0.0,0.0,0.0,0.0,0.0,0.0,0.0,0.0,0.0,0.0,0.0,0.0,0.0,0.0,0.0,0.0,0.0,0.0,0.0,0.0,0.0,0.0,0.0,0.0,0.0,0.0,0.0,0.0,0.0,0.0,0.0,0.0,0.0,0.0,0.0,0.0,0.0,0.0,0.0,0.0,0.0,0.0,0.0,-2.8882,-2.9995,-3.0397,-3.018,-2.9193,-2.8526,-2.7941,0.0,0.0,0.0,0.0,0.0,0.0,0.0,0.0,0.0,0.0,0.0,0.0,0.0,0.0,0.0,0.0,0.0,0.0,0.0,0.0,0.0,0.0,0.0,0.0,0.0,0.0,0.0,0.0,0.0,0.0,0.0,0.0,0.0,0.0,0.0,0.0,0.0,0.0,0.0,0.0,0.0,0.0,0.0,0.0,0.0,0.0,0.0,0.0,0.0,0.0,0.0,0.0,0.0,0.0,0.0,0.0,0.0,0.0,0.0,0.0,0.0,0.0,0.0,0.0,0.0,0.0,0.0,0.0,0.0,0.0,0.0,0.0,0.0,0.0,0.0,0.0,0.0,0.0,0.0,0.0,0.0,0.0,0.0,0.0,0.0,0.0,0.0,0.0,0.0,0.0,0.0,0.0,0.0,0.0,0.0,0.0,0.0,0.0,0.0,0.0,0.0,0.0,0.0,0.0,0.0,0.0,0.0,0.0,-2.9281,-3.1302,-3.1599,-3.1723,-3.1697,-3.0551,-2.9399,0.0,0.0,0.0,0.0,0.0,0.0,0.0,0.0,0.0,0.0,0.0,0.0,0.0,0.0,0.0,0.0,0.0,0.0,0.0,0.0,0.0,0.0,0.0,0.0,0.0,0.0,0.0,0.0,0.0,0.0,0.0,0.0,0.0,0.0,0.0,0.0,0.0,0.0,0.0,0.0,0.0,0.0,0.0,0.0,0.0,0.0,0.0,0.0,0.0,0.0,0.0,0.0,0.0,0.0,0.0,0.0,0.0,0.0,0.0,0.0,0.0,0.0,0.0,0.0,0.0,0.0,0.0,0.0,0.0,0.0,0.0,0.0,0.0,0.0,0.0,0.0,0.0,0.0,0.0,0.0,0.0,0.0,0.0,0.0,0.0,0.0,0.0,0.0,0.0,0.0,0.0,0.0,0.0,0.0,0.0,0.0,0.0,0.0,0.0,0.0,0.0,0.0,0.0,0.0,0.0,0.0,0.0,0.0,-3.0555,-3.2841,-3.3115,-3.3241,-3.3241,-3.2025,-3.0478,0.0,0.0,0.0,0.0,0.0,0.0,0.0,0.0,0.0,0.0,0.0,0.0,0.0,0.0,0.0,0.0,0.0,0.0,0.0,0.0,0.0,0.0,0.0,0.0,0.0,0.0,0.0,0.0,0.0,0.0,0.0,0.0,0.0,0.0,0.0,0.0,0.0,0.0,0.0,0.0,0.0,0.0,0.0,0.0,0.0,0.0,0.0,0.0,-2.0465,0.0,0.0,0.0,0.0,0.0,0.0,0.0,0.0,0.0,0.0,0.0,0.0,0.0,0.0,0.0,0.0,0.0,0.0,0.0,0.0,0.0,0.0,0.0,0.0,0.0,0.0,0.0,0.0,0.0,0.0,0.0,0.0,0.0,0.0,0.0,0.0,0.0,0.0,0.0,0.0,0.0,0.0,0.0,0.0,0.0,0.0,0.0,0.0,0.0,0.0,0.0,0.0,0.0,0.0,0.0,0.0,0.0,0.0,0.0,-3.1645,-3.3619,-3.3937,-3.4063,-3.4163,-3.3645,-3.2207,0.0,0.0,0.0,0.0,0.0,0.0,0.0,0.0,0.0,0.0,0.0,0.0,0.0,0.0,0.0,0.0,0.0,0.0,0.0,0.0,0.0,0.0,0.0,0.0,0.0,0.0,0.0,0.0,0.0,0.0,0.0,0.0,0.0,0.0,0.0,0.0,0.0,0.0,0.0,0.0,0.0,0.0,0.0,0.0,0.0,0.0,0.0,0.0,0.0,0.0,0.0,0.0,0.0,0.0,0.0,0.0,0.0,0.0,0.0,0.0,0.0,0.0,0.0,0.0,0.0,0.0,0.0,0.0,0.0,0.0,0.0,0.0,0.0,0.0,0.0,0.0,0.0,0.0,0.0,0.0,0.0,0.0,0.0,0.0,0.0,0.0,0.0,0.0,0.0,0.0,0.0,0.0,0.0,0.0,0.0,0.0,0.0,0.0,0.0,0.0,0.0,0.0,0.0,0.0,0.0,0.0,0.0,-3.1206,-3.2488,-3.4066,-3.4356,-3.4592,-3.4812,-3.5018,-3.3831,-3.1176,0.0,0.0,0.0,0.0,0.0,0.0,0.0,0.0,0.0,0.0,0.0,0.0,0.0,0.0,0.0,0.0,0.0,0.0,0.0,0.0,0.0,0.0,0.0,0.0,0.0,0.0,0.0,0.0,0.0,0.0,0.0,0.0,0.0,0.0,0.0,0.0,0.0,0.0,-1.9006,-2.0192,0.0,0.0,0.0,0.0,0.0,0.0,0.0,0.0,-2.369,0.0,0.0,0.0,0.0,0.0,0.0,0.0,0.0,0.0,0.0,0.0,0.0,0.0,0.0,0.0,0.0,0.0,0.0,0.0,0.0,0.0,0.0,0.0,0.0,0.0,0.0,0.0,0.0,0.0,0.0,0.0,0.0,0.0,0.0,0.0,0.0,0.0,0.0,0.0,0.0,0.0,0.0,0.0,0.0,0.0,0.0,0.0,0.0,0.0,0.0,0.0,0.0,0.0,0.0,0.0,0.0,-2.966,-3.1588,-3.3154,-3.433,-3.4771,-3.5072,-3.5263,-3.5318,-3.4205,-3.1939,0.0,0.0,0.0,0.0,0.0,0.0,0.0,0.0,0.0,0.0,0.0,0.0,0.0,0.0,0.0,0.0,0.0,0.0,0.0,0.0,0.0,0.0,0.0,0.0,0.0,0.0,0.0,0.0,0.0,0.0,0.0,0.0,0.0,0.0,0.0,0.0,0.0,0.0,0.0,-2.1056,-2.1475,0.0,0.0,0.0,0.0,0.0,0.0,0.0,0.0,-2.3974,0.0,0.0,0.0,0.0,0.0,0.0,0.0,0.0,0.0,0.0,0.0,0.0,0.0,0.0,0.0,0.0,0.0,0.0,0.0,0.0,0.0,0.0,0.0,0.0,0.0,0.0,0.0,0.0,0.0,0.0,0.0,0.0,0.0,0.0,0.0,0.0,0.0,0.0,0.0,0.0,0.0,0.0,0.0,0.0,0.0,0.0,0.0,0.0,0.0,0.0,0.0,0.0,0.0,0.0,0.0,-2.9829,-3.2207,-3.389,-3.4758,-3.5195,-3.5534,-3.5737,-3.5858,-3.4792,0.0,0.0,0.0,0.0,0.0,0.0,0.0,0.0,0.0,0.0,0.0,0.0,0.0,0.0,0.0,0.0,0.0,0.0,0.0,0.0,0.0,0.0,0.0,0.0,0.0,0.0,0.0,0.0,0.0,0.0,0.0,0.0,0.0,0.0,0.0,0.0,0.0,0.0,0.0,0.0,-2.2005,-2.2562,-2.3331,0.0,0.0,0.0,0.0,0.0,0.0,-2.6017,-2.5668,0.0,0.0,0.0,0.0,0.0,0.0,0.0,0.0,0.0,0.0,0.0,0.0,0.0,0.0,0.0,0.0,0.0,0.0,0.0,0.0,0.0,0.0,0.0,0.0,0.0,0.0,0.0,0.0,0.0,0.0,0.0,0.0,0.0,0.0,0.0,0.0,0.0,0.0,0.0,0.0,0.0,0.0,0.0,0.0,0.0,0.0,0.0,0.0,0.0,0.0,0.0,0.0,0.0,0.0,0.0,-3.0312,-3.2851,-3.4494,-3.5072,-3.5575,-3.5898,-3.6152,-3.6351,-3.5322,0.0,0.0,0.0,0.0,0.0,0.0,0.0,0.0,0.0,0.0,0.0,0.0,0.0,0.0,0.0,0.0,0.0,0.0,0.0,0.0,0.0,0.0,0.0,0.0,0.0,0.0,0.0,0.0,0.0,0.0,0.0,0.0,0.0,0.0,0.0,0.0,0.0,0.0,0.0,0.0,0.0,-2.3785,-2.4481,-2.5654,0.0,0.0,0.0,0.0,-2.8222,-2.7809,0.0,0.0,0.0,0.0,0.0,0.0,0.0,0.0,0.0,0.0,0.0,0.0,0.0,0.0,0.0,0.0,0.0,0.0,0.0,0.0,0.0,0.0,0.0,0.0,0.0,0.0,0.0,0.0,0.0,0.0,0.0,0.0,0.0,0.0,0.0,0.0,0.0,0.0,0.0,0.0,0.0,0.0,0.0,0.0,0.0,0.0,0.0,0.0,0.0,0.0,0.0,0.0,0.0,0.0,0.0,0.0,-3.1382,-3.3498,-3.4771,-3.5127,-3.5696,-3.6152,-3.6365,-3.6549,-3.5527,0.0,0.0,0.0,0.0,0.0,0.0,0.0,0.0,0.0,0.0,0.0,0.0,0.0,0.0,0.0,0.0,0.0,0.0,0.0,0.0,0.0,0.0,0.0,0.0,0.0,0.0,0.0,0.0,0.0,0.0,0.0,0.0,0.0,0.0,0.0,0.0,0.0,0.0,0.0,0.0,0.0,-2.481,-2.6044,-2.6904,-2.7668,0.0,0.0,-2.8724,-2.9255,-2.871,0.0,0.0,0.0,0.0,0.0,0.0,0.0,0.0,0.0,0.0,0.0,0.0,0.0,0.0,0.0,0.0,0.0,0.0,0.0,0.0,0.0,0.0,0.0,0.0,0.0,0.0,0.0,0.0,0.0,0.0,0.0,0.0,0.0,0.0,0.0,0.0,0.0,0.0,0.0,0.0,0.0,0.0,0.0,0.0,0.0,0.0,0.0,0.0,0.0,0.0,0.0,0.0,0.0,0.0,0.0,-2.9973,-3.1027,-3.2757,-3.3826,-3.4087,-3.4719,-3.5162,-3.5383,-3.5715,-3.5181,0.0,0.0,0.0,0.0,0.0,0.0,0.0,0.0,0.0,0.0,0.0,0.0,0.0,0.0,0.0,0.0,0.0,0.0,0.0,0.0,0.0,0.0,0.0,0.0,0.0,0.0,0.0,0.0,0.0,0.0,0.0,0.0,0.0,0.0,0.0,0.0,0.0,0.0,0.0,0.0,0.0,0.0,-2.701,-2.7631,0.0,0.0,0.0,-2.9382,-3.0023,0.0,0.0,0.0,0.0,0.0,0.0,0.0,0.0,0.0,0.0,0.0,0.0,0.0,0.0,0.0,0.0,0.0,0.0,0.0,0.0,0.0,0.0,0.0,0.0,0.0,0.0,0.0,0.0,0.0,0.0,0.0,0.0,0.0,0.0,0.0,0.0,0.0,0.0,0.0,0.0,0.0,0.0,0.0,0.0,0.0,0.0,0.0,0.0,0.0,0.0,0.0,0.0,0.0,0.0,0.0,0.0,0.0,-3.0891,-3.21,-3.2862,-3.3249,-3.3894,-3.4355,-3.4596,-3.4943,0.0,0.0,0.0,0.0,0.0,0.0,0.0,0.0,0.0,0.0,0.0,0.0,0.0,0.0,0.0,0.0,0.0,0.0,0.0,0.0,0.0,0.0,0.0,0.0,0.0,0.0,0.0,-1.9486,0.0,0.0,0.0,0.0,0.0,0.0,0.0,0.0,0.0,0.0,0.0,0.0,0.0,0.0,-2.7023,-2.7773,-2.829,-2.8861,0.0,0.0,-2.9897,-3.0487,-3.0034,-2.9577,0.0,0.0,0.0,0.0,0.0,0.0,0.0,0.0,0.0,0.0,0.0,0.0,0.0,0.0,0.0,0.0,0.0,0.0,0.0,0.0,0.0,0.0,0.0,0.0,0.0,0.0,0.0,0.0,0.0,0.0,0.0,0.0,0.0,0.0,0.0,0.0,0.0,0.0,0.0,0.0,0.0,0.0,0.0,0.0,0.0,0.0,0.0,0.0,0.0,0.0,0.0,0.0,0.0,0.0,0.0,-3.1734,-3.2044,-3.242,-3.2988,-3.3663,-3.4189,-3.4596,-3.4807,-3.4673,0.0,0.0,0.0,0.0,0.0,0.0,0.0,0.0,0.0,0.0,0.0,0.0,0.0,0.0,0.0,0.0,0.0,0.0,0.0,0.0,0.0,0.0,0.0,0.0,0.0,0.0,0.0,0.0,0.0,0.0,0.0,0.0,0.0,0.0,0.0,0.0,0.0,0.0,0.0,0.0,0.0,-2.7584,-2.8571,-2.8896,-2.9312,0.0,0.0,-3.0261,-3.0578,-3.0182,-2.9886,-2.9886,0.0,0.0,0.0,0.0,0.0,0.0,0.0,0.0,0.0,0.0,0.0,0.0,0.0,0.0,0.0,0.0,0.0,0.0,0.0,0.0,0.0,0.0,0.0,0.0,0.0,0.0,0.0,0.0,0.0,0.0,0.0,0.0,0.0,0.0,0.0,0.0,0.0,0.0,0.0,0.0,0.0,0.0,0.0,0.0,0.0,0.0,0.0,0.0,0.0,0.0,0.0,0.0,0.0,-2.8652,-3.0806,-3.1037,-3.1316,-3.1768,-3.2361,-3.2837,-3.3133,-3.3385,-3.3695,0.0,0.0,0.0,0.0,0.0,0.0,0.0,0.0,0.0,0.0,0.0,0.0,0.0,0.0,0.0,0.0,0.0,0.0,0.0,0.0,0.0,0.0,0.0,0.0,0.0,0.0,0.0,0.0,-2.0198,-2.0462,-2.083,0.0,0.0,0.0,0.0,0.0,0.0,0.0,0.0,0.0,0.0,-2.7998,-2.871,-2.9128,0.0,0.0,-3.0216,-3.0248,-3.0316,-3.008,-2.9742,-2.9387,-2.9017,0.0,0.0,0.0,0.0,0.0,0.0,0.0,0.0,0.0,0.0,0.0,0.0,0.0,0.0,0.0,0.0,0.0,0.0,0.0,0.0,0.0,0.0,0.0,0.0,0.0,0.0,0.0,0.0,0.0,0.0,0.0,0.0,0.0,0.0,0.0,0.0,0.0,0.0,0.0,0.0,0.0,0.0,0.0,0.0,0.0,0.0,0.0,0.0,0.0,0.0,0.0,0.0,-2.8287,-3.0026,-3.0117,-3.0417,-3.0874,-3.1373,-3.1803,-3.2169,-3.2444,-3.2958,0.0,0.0,0.0,0.0,0.0,0.0,0.0,0.0,0.0,0.0,0.0,0.0,0.0,0.0,0.0,0.0,0.0,0.0,0.0,0.0,0.0,0.0,0.0,0.0,0.0,0.0,0.0,0.0,-2.0583,-2.1009,-2.2023,0.0,0.0,0.0,0.0,0.0,0.0,0.0,0.0,0.0,0.0,-2.8128,-2.8803,-2.9266,-2.9624,-2.993,-2.9998,-2.9915,-2.9782,-2.959,-2.9375,-2.8973,0.0,0.0,0.0,0.0,0.0,0.0,0.0,0.0,0.0,0.0,0.0,0.0,0.0,0.0,0.0,0.0,0.0,0.0,0.0,0.0,0.0,0.0,0.0,0.0,0.0,0.0,0.0,0.0,0.0,0.0,-2.6884,0.0,0.0,0.0,0.0,0.0,0.0,0.0,0.0,0.0,0.0,0.0,0.0,0.0,0.0,0.0,0.0,0.0,0.0,0.0,0.0,0.0,0.0,-2.8179,-2.9569,-2.948,-2.9844,-3.066,-3.0911,-3.1397,-3.2132,-3.2205,-3.2673,-3.3666,0.0,0.0,0.0,0.0,0.0,0.0,0.0,0.0,0.0,0.0,0.0,0.0,0.0,0.0,0.0,0.0,0.0,0.0,0.0,0.0,0.0,0.0,0.0,0.0,0.0,0.0,-2.0465,-2.0997,-2.1855,0.0,0.0,0.0,0.0,0.0,0.0,0.0,0.0,0.0,0.0,-2.7289,-2.7951,-2.8932,-2.929,-2.9477,-2.9528,-2.9515,-2.9332,-2.8847,-2.8755,-2.87,0.0,0.0,0.0,0.0,0.0,0.0,0.0,0.0,0.0,0.0,0.0,0.0,0.0,0.0,0.0,0.0,0.0,0.0,0.0,0.0,0.0,0.0,0.0,0.0,0.0,0.0,0.0,-2.8372,-2.8448,0.0,0.0,0.0,0.0,0.0,0.0,0.0,0.0,0.0,0.0,0.0,-2.3678,-2.2928,0.0,0.0,0.0,0.0,0.0,0.0,0.0,0.0,0.0,0.0,0.0,0.0,-2.7375,-2.8635,-2.9019,-2.9482,-3.01,-3.0685,-3.1149,-3.141,-3.1669,-3.2196,-3.3074,0.0,0.0,0.0,0.0,0.0,0.0,0.0,0.0,0.0,0.0,0.0,0.0,0.0,0.0,0.0,0.0,0.0,0.0,0.0,0.0,0.0,0.0,0.0,0.0,0.0,-2.1002,0.0,0.0,0.0,0.0,0.0,0.0,0.0,0.0,0.0,0.0,0.0,-2.5499,-2.6264,-2.7061,-2.7808,-2.8285,-2.8732,-2.8959,0.0,0.0,0.0,0.0,0.0,0.0,0.0,0.0,0.0,0.0,0.0,0.0,0.0,0.0,-2.8757,-2.7767,-2.7591,-2.7536,-2.7437,0.0,0.0,0.0,0.0,0.0,0.0,0.0,0.0,0.0,0.0,0.0,0.0,0.0,0.0,-2.8674,0.0,-2.8315,0.0,0.0,0.0,0.0,0.0,0.0,0.0,0.0,-2.3461,-2.3426,-2.3748,-2.3071,-2.2819,0.0,-2.2787,-2.3288,0.0,0.0,0.0,0.0,0.0,0.0,0.0,0.0,-2.7128,-2.7955,-2.8578,-2.9131,-2.965,-3.0267,-3.0698,-3.0874,-3.1224,-3.1726,-3.2473,-3.2075,-3.1796,0.0,0.0,0.0,0.0,0.0,0.0,0.0,0.0,0.0,0.0,0.0,0.0,0.0,0.0,0.0,0.0,0.0,0.0,0.0,0.0,0.0,0.0,0.0,-2.0961,0.0,0.0,0.0,0.0,0.0,0.0,0.0,0.0,0.0,-2.3922,-2.4453,-2.5063,-2.5767,-2.6445,-2.7079,-2.7603,0.0,0.0,0.0,0.0,0.0,0.0,0.0,-2.7775,-2.7388,-2.7566,-2.7931,-2.8371,-2.9069,-2.9454,-2.9279,0.0,0.0,-2.8354,-2.8132,-2.8076,-2.8076,-2.8087,-2.8076,-2.8087,-2.8076,-2.8165,0.0,0.0,0.0,0.0,0.0,0.0,0.0,0.0,-2.8748,-2.8674,0.0,-2.8077,0.0,0.0,0.0,0.0,0.0,-2.3879,0.0,0.0,-2.3986,-2.3923,-2.3662,-2.3254,-2.3383,-2.3977,-2.3544,-2.3654,-2.4258,-2.311,0.0,0.0,0.0,0.0,0.0,0.0,-2.7326,-2.7493,-2.8139,-2.8776,-2.9341,-2.965,-3.0062,-3.0609,-3.0836,-3.1197,-3.1796,-3.1848,-3.163,-3.1201,-3.0902,0.0,0.0,0.0,0.0,0.0,0.0,0.0,0.0,0.0,0.0,0.0,0.0,0.0,0.0,0.0,0.0,0.0,0.0,0.0,0.0,-2.0962,0.0,0.0,0.0,0.0,0.0,0.0,0.0,0.0,0.0,0.0,-2.3848,-2.3943,-2.424,-2.5228,0.0,0.0,0.0,0.0,-2.7631,-2.7567,-2.7817,-2.7793,-2.727,-2.719,-2.7108,-2.6944,0.0,0.0,-2.785,-2.8421,-2.8858,-2.9305,-2.9143,-2.9059,-2.898,-2.9131,-2.9395,-2.9395,-2.9361,-2.9463,-2.9428,-2.9248,-2.9148,-3.0406,0.0,0.0,0.0,0.0,-2.9635,-2.9579,-2.9455,-2.9093,-2.8967,-2.9044,-2.8259,0.0,0.0,0.0,0.0,0.0,0.0,-2.3477,-2.3774,-2.303,-2.2872,-2.3273,-2.2811,-2.2732,-2.2872,-2.2767,-2.2767,-2.2942,-2.28,-2.327,-2.4305,0.0,0.0,0.0,0.0,-2.6488,-2.6787,-2.7429,-2.8087,-2.8724,-2.9091,-2.9521,-2.9947,-3.0024,-3.0177,-3.0342,-3.0737,-3.0756,-3.0294,-2.9759,0.0,0.0,0.0,0.0,0.0,0.0,0.0,0.0,0.0,0.0,0.0,0.0,0.0,0.0,0.0,0.0,0.0,0.0,0.0,-2.1175,-2.0854,-2.0765,0.0,0.0,0.0,0.0,0.0,0.0,0.0,0.0,0.0,-2.239,-2.2942,-2.3485,0.0,0.0,-2.5515,-2.6147,-2.6617,-2.6917,-2.6914,-2.6982,0.0,-2.6791,-2.6768,-2.6768,-2.6685,-2.6978,-2.7258,-2.7546,-2.7723,-2.7733,-2.7561,-2.7696,-2.781,-2.7877,-2.847,-2.8956,-2.8978,-2.8978,-2.8978,-2.8978,-2.8725,-2.8427,-2.9943,-2.9943,-3.0045,-2.9966,-2.9737,-2.9646,-2.9508,-2.9301,-2.9,-2.8757,-2.8606,-2.7806,-2.705,-2.6352,-2.5219,0.0,0.0,0.0,-2.2917,-2.3034,-2.241,-2.2272,-2.2522,-2.2253,-2.2176,-2.2274,-2.2264,-2.2309,-2.2397,-2.2495,-2.3009,-2.3987,0.0,0.0,-2.4923,-2.5306,-2.5759,-2.6249,-2.6816,-2.7429,-2.8087,-2.8618,-2.8973,-2.9223,-2.9223,-2.9211,-2.9211,-2.9544,-2.9708,-2.9569,-2.906,-2.8617,0.0,0.0,0.0,0.0,0.0,0.0,0.0,0.0,0.0,0.0,0.0,-2.4903,-2.4914,0.0,0.0,0.0,-2.2309,-2.1421,-2.0943,-2.069,0.0,0.0,0.0,0.0,0.0,0.0,0.0,-2.1439,-2.1285,-2.1247,-2.1427,-2.1813,-2.2372,-2.3176,-2.3923,-2.4559,-2.5138,0.0,-2.5989,-2.6137,-2.6271,-2.6313,-2.6313,-2.6313,-2.6271,-2.6177,-2.6325,-2.6571,-2.678,-2.679,-2.6767,-2.6615,-2.6759,-2.6883,-2.6792,-2.731,-2.7853,-2.8142,-2.808,-2.7982,-2.7971,-2.7688,-2.7495,-2.9485,-2.9428,-2.9703,-2.9634,-2.9439,-2.9174,-2.9035,-2.8943,-2.8488,-2.816,-2.7814,-2.6905,-2.6062,-2.5214,-2.37,0.0,-2.2344,-2.2353,-2.2274,-2.2106,-2.2061,-2.1919,-2.1687,-2.1687,-2.183,-2.2052,-2.2052,-2.2185,-2.2309,-2.2185,-2.2318,-2.2759,-2.3198,-2.3764,-2.4401,-2.47,-2.5168,-2.5812,-2.6196,-2.6734,-2.7429,-2.8047,-2.8391,-2.8379,-2.8379,-2.8391,-2.8391,-2.8391,-2.8526,-2.8775,-2.8604,-2.8075,-2.7247,0.0,0.0,0.0,0.0,0.0,0.0,0.0,0.0,0.0,0.0,0.0,0.0,0.0,0.0,0.0,-2.2275,0.0,-2.0699,-2.0428,0.0,0.0,0.0,-2.081,-2.0793,-2.1109,-2.1306,-2.128,0.0,0.0,-2.0878,-2.0789,-2.1139,-2.2363,-2.2821,-2.3266,-2.3983,-2.4529,-2.4946,-2.5327,-2.5633,-2.577,-2.5728,-2.5728,-2.5675,-2.5454,-2.5274,-2.5338,-2.5677,-2.5773,-2.5865,-2.597,-2.6083,-2.6069,-2.5889,-2.5875,-2.6104,-2.6809,-2.6857,-2.6668,-2.67,-2.6647,-2.6466,-2.9128,-2.8943,-2.8814,-2.8861,-2.8943,-2.8664,-2.8337,-2.7972,-2.7678,-2.7309,-2.6802,-2.5872,-2.48,-2.3616,-2.291,-2.2403,-2.2185,-2.2185,-2.2052,-2.1785,-2.1776,-2.1785,-2.1687,-2.1687,-2.1741,-2.1785,-2.1776,-2.183,-2.1874,-2.2008,-2.2141,-2.2274,-2.253,-2.3013,-2.3711,-2.4325,-2.4743,-2.5126,-2.5538,-2.6071,-2.6723,-2.7226,-2.7499,-2.751,-2.7522,-2.7522,-2.7522,-2.7522,-2.7447,-2.738,-2.7351,-2.7217,-2.7057,-2.6581,0.0,0.0,0.0,0.0,0.0,0.0,0.0,0.0,0.0,-2.5348,-2.4781,0.0,-2.3589,0.0,-2.1607,-2.0753,-2.0428,-2.0155,0.0,0.0,-2.0079,-2.0195,-1.9929,-2.039,-2.0593,-2.0268,-2.0343,-2.0437,-2.0429,-2.057,-2.0816,-2.1139,-2.184,-2.2574,-2.3266,-2.3744,-2.4176,-2.4456,-2.468,-2.4797,-2.4807,-2.485,-2.4807,-2.4754,-2.4669,-2.4636,-2.4598,-2.4619,-2.4574,-2.4425,-2.4587,-2.4645,-2.4631,-2.4486,-2.4371,-2.4671,-2.545,-2.6177,-2.6132,-2.585,-2.5503,-2.8384,-2.8243,-2.7867,-2.7773,-2.7762,-2.7867,-2.7594,-2.7119,-2.687,-2.6486,-2.5887,-2.4679,-2.3475,-2.2342,-2.1957,-2.1722,-2.1642,-2.1597,-2.1544,-2.141,-2.1365,-2.141,-2.1365,-2.1365,-2.1419,-2.1365,-2.1365,-2.1365,-2.141,-2.1544,-2.1687,-2.1919,-2.2043,-2.2397,-2.3013,-2.357,-2.41,-2.4583,-2.5031,-2.5443,-2.5904,-2.6279,-2.6528,-2.6723,-2.6663,-2.6663,-2.6764,-2.6652,-2.6539,-2.6479,-2.6343,-2.6256,-2.6182,-2.5947,-2.5381,0.0,0.0,0.0,0.0,0.0,0.0,0.0,0.0,0.0,0.0,0.0,-2.2866,-2.1687,-2.0961,-2.0382,-2.0036,-1.9853,-1.9716,-1.9633,-1.9752,-1.9794,-1.9604,-1.9891,-2.0017,-1.9779,-1.9891,-1.9982,-1.9982,-2.0119,-2.0255,-2.0337,-2.0789,-2.1454,-2.2334,-2.2862,-2.3266,-2.3527,-2.3734,-2.3907,-2.3897,-2.3854,-2.3854,-2.3864,-2.3854,-2.3831,-2.3711,-2.3721,-2.3634,-2.3426,-2.3482,-2.3506,-2.3338,-2.3159,-2.3016,-2.2999,-2.3502,-2.4197,-2.462,-2.4462,-2.428,-2.7441,-2.7394,-2.6955,-2.6582,-2.6304,-2.6774,-2.6736,-2.6352,-2.6052,-2.5557,-2.4869,-2.3427,-2.2262,-2.1311,-2.1096,-2.0952,-2.0916,-2.0907,-2.0907,-2.0907,-2.0907,-2.0907,-2.0907,-2.0907,-2.0907,-2.0907,-2.0907,-2.0907,-2.0907,-2.0952,-2.1186,-2.1553,-2.1607,-2.182,-2.2264,-2.2652,-2.3319,-2.4067,-2.4529,-2.4818,-2.5031,-2.5242,-2.5527,-2.5946,-2.579,-2.5801,-2.5988,-2.5801,-2.5717,-2.5728,-2.5454,-2.5232,-2.5031,-2.5206,-2.4856,0.0,-2.4051,0.0,0.0,0.0,0.0,0.0,0.0,0.0,0.0,-2.3217,-2.1935,-2.0637,-2.0337,-2.0027,-1.9579,-1.9533,-1.9496,-1.945,-1.945,-1.9404,-1.9396,-1.9442,-1.9442,-1.945,-1.9487,-1.9487,-1.9487,-1.9496,-1.9579,-1.97,-1.9791,-2.0184,-2.1123,-2.1802,-2.2299,-2.253,-2.2784,-2.2925,-2.2916,-2.2916,-2.2916,-2.2916,-2.2916,-2.2916,-2.2916,-2.2916,-2.2828,-2.2706,-2.2646,-2.247,-2.2052,-2.1982,-2.1839,-2.167,-2.1697,-2.1974,-2.2763,-2.2984,-2.3003,-2.6688,-2.664,-2.6139,-2.5654,-2.5226,-2.5314,-2.5421,-2.5528,-2.5235,-2.4359,-2.3096,-2.2238,-2.1495,-2.0852,-2.0789,-2.0645,-2.0473,-2.0428,-2.0428,-2.0428,-2.0419,-2.0419,-2.0428,-2.0419,-2.0428,-2.0428,-2.0419,-2.0428,-2.0419,-2.0654,-2.0789,-2.088,-2.1051,-2.1284,-2.1571,0.0,0.0,0.0,-2.3721,-2.3831,-2.4046,-2.4337,-2.4594,-2.484,-2.4797,0.0,-2.484,-2.4797,-2.4765,-2.4754,-2.4584,0.0,0.0,0.0,0.0,0.0,0.0,0.0,0.0,0.0,0.0,0.0,-2.2843,-2.2916,-2.3076,-2.1839,-2.0727,-2.011,-1.9845,-1.9617,-1.9279,-1.9058,-1.8881,-1.8713,-1.8512,-1.8365,-1.8365,-1.8589,-1.8681,-1.8727,-1.8827,-1.892,-1.8928,-1.8974,-1.8966,-1.8966,-1.9012,-1.9104,-1.9325,-2.0447,-2.1266,-2.1356,-2.1722,-2.1954,-2.1963,-2.1954,-2.1954,-2.1954,-2.1954,-2.1954,-2.1954,-2.1954,-2.1954,-2.1909,-2.1794,-2.166,-2.1526,-2.1203,-2.097,-2.088,-2.0744,-2.0826,-2.1776,-2.1954,-2.2052,-2.5713,0.0,-2.5118,-2.4667,0.0,-2.4183,-2.4134,-2.4134,-2.4282,-2.349,-2.2016,-2.1339,-2.0744,-2.0119,-2.0019,-1.9874,-1.9737,-1.96,-1.9563,-1.9554,-1.9563,-1.9563,-1.9563,-1.9563,-1.9608,-1.9745,-1.9737,-1.9837,-1.9936,-2.0073,-2.0201,-2.0292,-2.0428,-2.0609,-2.0843,-2.0843,-2.1419,-2.2574,-2.2618,-2.274,-2.295,-2.3169,-2.3464,-2.379,-2.381,0.0,0.0,0.0,0.0,0.0,0.0,0.0,0.0,0.0,0.0,-2.2141,-2.1998,-2.1856,-2.1713,-2.1704,-2.1704,-2.1695,-2.1373,-2.1329,-2.1678,-2.0817,-2.0011,-1.9425,-1.9296,-1.9066,-1.8689,-1.855,-1.8411,-1.8326,-1.8048,-1.7908,-1.79,-1.7893,-1.7885,-1.7932,-1.7986,-1.8079,-1.8079,-1.8079,-1.8079,-1.8079,-1.8025,-1.8032,-1.8218,-1.9355,-2.0365,-2.0645,-2.0826,-2.1015,-2.1015,-2.1015,-2.1015,-2.1015,-2.1015,-2.1015,-2.1015,-2.1015,-2.1015,-2.1015,-2.0934,-2.0843,-2.0663,-2.0482,-2.0246,-2.0019,-1.9837,-1.9828,-2.0283,-2.0736,-2.1284,-2.4627,-2.4578,-2.4035,-2.3687,-2.3379,-2.3129,-2.2828,-2.2568,0.0,0.0,0.0,-2.052,-1.9881,-1.9396,-1.915,-1.905,-1.8958,-1.8781,-1.8689,-1.8689,-1.8681,-1.8689,-1.8681,-1.8689,-1.8773,-1.9004,-1.8996,-1.9104,-1.935,-1.9396,-1.9479,-1.9654,-1.9691,-1.9791,-2.0019,-2.0019,-2.0428,-2.115,-2.1383,-2.1588,-2.1837,-2.198,-2.229,-2.2702,-2.2731,-2.2828,-2.3047,-2.2828,-2.2652,-2.2485,-2.2441,-2.2255,-2.1882,-2.1793,-2.1624,-2.1248,-2.0961,-2.0772,-2.0772,-2.0501,-2.0411,-2.0591,-1.9994,-1.9803,-2.0357,-1.9957,-1.9417,-1.8773,-1.8689,-1.8504,-1.8087,-1.7994,-1.7947,-1.79,-1.7675,-1.7481,-1.7434,-1.7239,-1.7091,-1.7044,-1.7044,-1.7044,-1.7138,-1.7044,-1.7044,-1.7091,-1.7091,-1.7052,-1.7279,-1.8388,-1.9455,-1.9828,-1.9965,-2.0019,-2.0019,-2.0019,-2.0065,-2.0019,-2.0011,-2.0011,-2.0019,-2.0065,-2.0065,-2.0011,-2.0019,-1.9928,-1.9745,-1.9654,-1.9509,-1.9096,-1.8958,-1.8866,-1.8727,-1.9417,-2.0275,-2.3529,-2.3479,-2.2929,-2.2577,-2.2274,-2.2021,-2.1623,-2.1167,-2.1155,-2.0872,-2.0401,-1.9458,-1.8921,-1.8635,-1.8589,-1.8496,-1.8265,-1.8218,-1.8226,-1.8179,-1.8172,-1.8226,-1.8218,-1.8226,-1.8226,-1.8226,-1.8265,-1.8272,-1.8319,-1.8542,-1.8681,-1.8727,-1.8866,-1.8966,-1.9012,-1.9004,-1.9104,-1.9234,-2.0056,-2.06,-2.0817,-2.0862,-2.0997,-2.1248,-2.1311,-2.1311,-2.1356,-2.1302,-2.1311,-2.1266,-2.1042,-2.0862,-2.0808,-2.0637,-2.0518,-2.0428,-2.0201,-1.9965,-1.9783,-1.9546,-1.9325,-1.9096,-1.8635,-1.8719,-1.9637,-1.9088,-1.8673,-1.8535,-1.8311,-1.8087,-1.7768,-1.752,-1.7333,-1.716,-1.6918,-1.6676,-1.648,-1.6386,-1.6244,-1.6055,-1.6015,-1.6109,-1.6292,-1.615,-1.6109,-1.6244,-1.615,-1.6062,-1.6433,-1.7466,-1.8303,-1.8619,-1.8858,-1.8966,-1.9012,-1.9004,-1.9012,-1.9012,-1.9004,-1.9004,-1.9012,-1.9012,-1.9012,-1.9012,-1.9004,-1.8958,-1.892,-1.8819,-1.8589,-1.8265,-1.8087,-1.7854,-1.7559,-1.8079,-1.8773,-2.2426,-2.2375,-2.1878,-2.1581,-2.142,-2.1003,-2.055,-1.9981,-1.9411,-1.9357,-1.9538,-1.8612,-1.8079,-1.7846,-1.7761,-1.7621,-1.7488,-1.734,-1.7286,-1.7293,-1.7293,-1.7286,-1.7286,-1.7286,-1.734,-1.7481,-1.7488,-1.7574,-1.766,-1.78,-1.7839,-1.7839,-1.7939,-1.7994,-1.7986,-1.7986,-1.7978,-1.8032,-1.8958,-1.9509,-1.9637,-1.9774,-1.9911,-2.0048,-2.013,-2.0167,-2.0167,-2.0167,-2.013,-2.0039,-1.9903,-1.9774,-1.9637,-1.9509,-1.9471,-1.9463,-1.9279,-1.905,-1.8812,-1.8396,-1.8118,-1.7978,-1.7567,-1.7466,-1.7932,-1.7878,-1.7792,-1.7714,-1.7581,-1.7387,-1.7113,-1.6857,-1.6669,-1.6581,-1.6204,-1.5913,-1.5764,-1.5534,-1.535,-1.5213,-1.507,-1.5105,-1.5343,-1.5159,-1.5112,-1.5296,-1.5153,-1.5057,-1.5153,-1.5771,-1.6615,-1.7458,-1.7746,-1.7885,-1.7978,-1.7978,-1.7986,-1.7986,-1.7978,-1.7978,-1.7986,-1.7986,-1.7978,-1.7978,-1.7978,-1.7986,-1.7986,-1.7839,-1.7606,-1.7333,-1.7099,-1.681,-1.6622,-1.6911,-1.7707,-2.1369,-2.1318,-2.0763,-2.0454,-2.03,-1.9872,-1.942,-1.8842,-1.8017,-1.7931,-1.8336,-1.7666,-1.7239,-1.6958,-1.6784,-1.6737,-1.669,-1.6494,-1.644,-1.6393,-1.644,-1.6393,-1.6393,-1.64,-1.6548,-1.6697,-1.6744,-1.6824,-1.6958,-1.6958,-1.6951,-1.6951,-1.6951,-1.6951,-1.6951,-1.6958,-1.6951,-1.7005,-1.7746,-1.8218,-1.8458,-1.8681,-1.8773,-1.8765,-1.8942,-1.898,-1.9034,-1.9026,-1.8942,-1.8765,-1.8773,-1.8681,-1.8496,-1.8458,-1.845,-1.845,-1.8311,-1.8079,-1.7753,-1.7326,-1.7044,-1.6951,-1.6534,-1.6244,-1.6298,-1.648,-1.6676,-1.6737,-1.6737,-1.6636,-1.6346,-1.6103,-1.5906,-1.5866,-1.5432,-1.5146,-1.5051,-1.4675,-1.44,-1.4352,-1.4154,-1.4106,-1.4298,-1.425,-1.4202,-1.4256,-1.4154,-1.401,-1.401,-1.4154,-1.4819,-1.571,-1.6325,-1.6615,-1.6857,-1.6864,-1.6904,-1.6951,-1.6958,-1.6958,-1.6951,-1.6951,-1.6951,-1.6951,-1.6897,-1.6857,-1.685,-1.6709,-1.648,-1.6204,-1.6008,-1.5818,-1.5635,-1.5967,-1.6723,-2.0233,-2.0181,-1.968,-1.9108,-1.8632,-1.8572,-1.8258,-1.7705,-1.7056,-1.6693,-1.6557,-1.6402,-1.6197,-1.5967,-1.592,-1.5927,-1.5927,-1.5879,-1.5872,-1.5879,-1.5872,-1.5879,-1.5879,-1.5872,-1.5872,-1.5879,-1.592,-1.5879,-1.5927,-1.5967,-1.592,-1.592,-1.592,-1.592,-1.592,-1.592,-1.5974,-1.5967,-1.6015,-1.6534,-1.738,-1.7473,-1.7458,-1.7466,-1.7512,-1.7505,-1.7559,-1.7512,-1.7512,-1.7466,-1.7466,-1.7473,-1.7419,-1.7419,-1.7419,-1.7419,-1.7419,-1.7185,-1.677,-1.648,-1.6197,-1.592,-1.5527,-1.5248,-1.5242,-1.4867,-1.4962,-1.5635,-1.5879,-1.5778,-1.5534,-1.5289,-1.5105,-1.4873,-1.4586,-1.4292,-1.41,-1.3806,-1.3516,-1.3238,-1.3244,-1.334,-1.357,-1.3576,-1.3485,-1.3292,-1.3244,-1.3147,-1.3001,-1.2953,-1.3093,-1.3655,-1.4424,-1.5242,-1.548,-1.5581,-1.5669,-1.5872,-1.592,-1.5866,-1.5866,-1.5866,-1.592,-1.5764,-1.5724,-1.5575,-1.5527,-1.5432,-1.5194,-1.4968,-1.4873,-1.4825,-1.4831,-1.501,-1.5717,-1.9094,-1.9049,-1.8534,-1.795,-1.7417,-1.7417,-1.7009,-1.6352,-1.5928,-1.5507,-1.5159,-1.4933,-1.5057,-1.5363,-1.5363,-1.5363,-1.5363,-1.541,-1.5315,-1.5166,-1.5159,-1.507,-1.4921,-1.4921,-1.4921,-1.4921,-1.4921,-1.4921,-1.4921,-1.4921,-1.4921,-1.4921,-1.4914,-1.4914,-1.4914,-1.4914,-1.4914,-1.4914,-1.4921,-1.5105,-1.5534,-1.6103,-1.6386,-1.6393,-1.6386,-1.6393,-1.6393,-1.6393,-1.6433,-1.6393,-1.644,-1.644,-1.6393,-1.6393,-1.6386,-1.6393,-1.6285,-1.6096,-1.5906,-1.5534,-1.5255,-1.5166,-1.4675,-1.4334,-1.4142,-1.3811,-1.3727,-1.401,-1.458,-1.4873,-1.4723,-1.443,-1.4094,-1.3956,-1.3673,-1.3389,-1.3286,-1.2996,-1.2802,-1.2662,-1.2565,-1.2565,-1.2802,-1.2856,-1.2759,-1.2467,-1.2316,-1.2175,-1.2078,-1.198,-1.1878,-1.2014,-1.2495,-1.3173,-1.3992,-1.428,-1.4328,-1.4382,-1.443,-1.443,-1.4478,-1.4424,-1.443,-1.4478,-1.4382,-1.428,-1.428,-1.4088,-1.3848,-1.3715,-1.3624,-1.3624,-1.3709,-1.3848,-1.437,-1.7891,-1.7733,-1.7318,-1.6789,-1.6252,-1.6258,-1.5787,-1.5065,-1.4761,-1.4447,-1.408,-1.3734,-1.3913,-1.4406,-1.4598,-1.4646,-1.4646,-1.4652,-1.455,-1.4304,-1.4256,-1.4106,-1.3913,-1.3913,-1.3913,-1.3871,-1.3913,-1.3913,-1.3865,-1.3865,-1.3913,-1.3913,-1.3913,-1.3865,-1.3871,-1.3913,-1.3865,-1.3913,-1.3913,-1.3871,-1.401,-1.458,-1.5112,-1.535,-1.5397,-1.5397,-1.5397,-1.5397,-1.5397,-1.5391,-1.5397,-1.5397,-1.5397,-1.5397,-1.5397,-1.5397,-1.5201,-1.5057,-1.5003,-1.4675,-1.4394,-1.425,-1.3859,-1.3468,-1.3227,-1.2948,-1.271,-1.2565,-1.3141,-1.357,-1.3811,-1.3426,-1.313,-1.3076,-1.2657,-1.237,-1.2327,-1.2122,-1.1927,-1.1932,-1.1785,-1.1785,-1.2029,-1.2029,-1.198,-1.1688,-1.1438,-1.1194,-1.1145,-1.0949,-1.0752,-1.0757,-1.0801,-1.138,-1.264,-1.2985,-1.298,-1.3082,-1.313,-1.313,-1.3087,-1.3082,-1.3082,-1.3232,-1.3082,-1.2985,-1.2937,-1.2791,-1.2592,-1.2543,-1.2457,-1.2414,-1.2549,-1.2646,-1.2883,-1.6617,-1.6352,-1.6099,-1.5624,-1.5095,-1.5089,-1.468,-1.3944,-1.3681,-1.3436,-1.3181,-1.2959,-1.2861,-1.2958,-1.334,-1.3588,-1.3588,-1.3636,-1.3491,-1.3244,-1.3195,-1.3098,-1.2861,-1.2861,-1.2861,-1.2851,-1.2856,-1.2856,-1.2856,-1.2861,-1.2861,-1.2861,-1.2856,-1.2856,-1.2856,-1.2856,-1.2856,-1.2861,-1.2861,-1.2856,-1.2861,-1.291,-1.3431,-1.4154,-1.4346,-1.4346,-1.4346,-1.4346,-1.4394,-1.4346,-1.4346,-1.4346,-1.4346,-1.4394,-1.4346,-1.4346,-1.4346,-1.4244,-1.4004,-1.3902,-1.3715,-1.3244,-1.3001,-1.271,-1.2462,-1.2175,-1.1927,-1.1683,-1.1731,-1.2073,-1.2559,-1.2316,-1.2073,-1.2024,-1.1585,-1.1296,-1.1247,-1.1047,-1.0904,-1.09,-1.085,-1.0953,-1.1194,-1.1243,-1.1096,-1.09,-1.0605,-1.0359,-1.0117,-0.9871,-0.9723,-0.9673,-0.9772,-1.0167,-1.1336,-1.1678,-1.178,-1.1873,-1.1873,-1.197,-1.2029,-1.2078,-1.2029,-1.1975,-1.178,-1.1678,-1.1634,-1.1536,-1.1385,-1.1287,-1.1336,-1.1336,-1.1385,-1.1536,-1.178,-1.5345,-1.497,-1.4863,-1.4546,-1.418,-1.4018,-1.3481,-1.2878,-1.2533,-1.2233,-1.1924,-1.1815,-1.1785,-1.1785,-1.1927,-1.2419,-1.3007,-1.3055,-1.2905,-1.2662,-1.2467,-1.2273,-1.2024,-1.1883,-1.178,-1.1785,-1.1785,-1.178,-1.178,-1.178,-1.178,-1.178,-1.178,-1.1785,-1.178,-1.1785,-1.1785,-1.178,-1.178,-1.1785,-1.1785,-1.178,-1.1975,-1.2311,-1.2996,-1.3335,-1.3335,-1.3335,-1.3335,-1.3335,-1.334,-1.334,-1.3335,-1.334,-1.334,-1.334,-1.334,-1.3292,-1.319,-1.3039,-1.2851,-1.2662,-1.2273,-1.1927,-1.1639,-1.1394,-1.1047,-1.0703,-1.056,-1.0708,-1.0708,-1.085,-1.0998,-1.09,-1.0507,-1.0167,-1.0167,-1.0068,-1.0023,-1.0019,-1.0019,-1.0068,-1.0117,-1.0167,-1.0117,-1.0019,-0.9821,-0.9525,-0.927,-0.8977,-0.8783,-0.8634,-0.8584,-0.8733,-0.9122,-0.9961,-1.0359,-1.0408,-1.0458,-1.0458,-1.0462,-1.0511,-1.0507,-1.0507,-1.0408,-1.0359,-1.0359,-1.031,-1.0162,-1.0167,-1.0167,-1.0162,-1.0167,-1.0359,-1.0605,-1.3954,-1.363,-1.3624,-1.3413,-1.3137,-1.2857,-1.2462,-1.1878,-1.1592,-1.1217,-1.0847,-1.0801,-1.0757,-1.0703,-1.0703,-1.1047,-1.1785,-1.2078,-1.2127,-1.1883,-1.1688,-1.1438,-1.1096,-1.0904,-1.0752,-1.0708,-1.0708,-1.0708,-1.0654,-1.0708,-1.0757,-1.0801,-1.0752,-1.0752,-1.0806,-1.0708,-1.0654,-1.0708,-1.0703,-1.0659,-1.0708,-1.0654,-1.0708,-1.0801,-1.1394,-1.1927,-1.2219,-1.2273,-1.2273,-1.2273,-1.2273,-1.2273,-1.2273,-1.2273,-1.2273,-1.2273,-1.2273,-1.2273,-1.2273,-1.2127,-1.198,-1.1878,-1.1487,-1.1096,-1.0855,-1.056,-1.0216,-0.9871,-0.962,-0.9521,-0.9327,-0.9369,-0.9616,-0.9764,-0.9472,-0.9183,-0.908,-0.9084,-0.908,-0.9084,-0.908,-0.908,-0.908,-0.9084,-0.9084,-0.9084,-0.8882,-0.8634,-0.8425,-0.818,-0.7935,-0.769,-0.764,-0.7587,-0.7733,-0.8177,-0.8874,-0.9023,-0.9175,-0.913,-0.908,-0.908,-0.908,-0.908,-0.908,-0.908,-0.908,-0.908,-0.908,-0.9084,-0.908,-0.9076,-0.913,-0.9179,-0.9472,-1.2441,-1.2441,-1.2382,-1.2273,-1.2032,-1.1751,-1.1432,-1.1031,-1.0753,-1.0414,-1.0031,-1.0019,-0.9871,-0.9677,-0.9624,-0.9673,-0.9871,-1.0654,-1.0949,-1.0806,-1.0752,-1.0511,-1.0068,-1.0019,-0.9871,-0.9673,-0.9624,-0.9628,-0.9673,-0.9673,-0.9776,-0.992,-0.9772,-0.9817,-0.9969,-0.9772,-0.9628,-0.9677,-0.9673,-0.9624,-0.9628,-0.9677,-0.9673,-0.9677,-0.9723,-1.0162,-1.1096,-1.1145,-1.1194,-1.1194,-1.1194,-1.1194,-1.1194,-1.1194,-1.1194,-1.1198,-1.1194,-1.1198,-1.1194,-1.1194,-1.1047,-1.085,-1.056,-1.0261,-1.0019,-0.9772,-0.9476,-0.913,-0.8878,-0.8676,-0.8382,-0.8031,-0.8081,-0.8623,-0.8577,-0.8333,-0.8137,-0.8041,-0.7988,-0.7988,-0.7988,-0.7988,-0.7988,-0.7988,-0.7988,-0.7939,-0.7786,-0.763,-0.7531,-0.7335,-0.7092,-0.6892,-0.6789,-0.6736,-0.6587,-0.6487,-0.7135,-0.7637,-0.7885,-0.7988,-0.7985,-0.7985,-0.7985,-0.7985,-0.7985,-0.7985,-0.7982,-0.7985,-0.7985,-0.7985,-0.7988,-0.8038,-0.8137,-0.8233,-0.8482,-1.1509,-1.1455,-1.1291,-1.1181,-1.1046,-1.0704,-1.0371,-1.0148,-0.9768,-0.9439,-0.9195,-0.9175,-0.9027,-0.8829,-0.8779,-0.8684,-0.8535,-0.8878,-0.9324,-0.9821,-0.9772,-0.9628,-0.9426,-0.9274,-0.9122,-0.9072,-0.9076,-0.9076,-0.9027,-0.9023,-0.9126,-0.9122,-0.9072,-0.9072,-0.9171,-0.9072,-0.9072,-0.9076,-0.9027,-0.9027,-0.9027,-0.9023,-0.9072,-0.9023,-0.8878,-0.8977,-0.927,-0.9817,-1.0064,-1.0117,-1.0117,-1.0117,-1.0117,-1.0117,-1.0117,-1.0117,-1.0117,-1.0068,-1.0117,-1.0122,-1.0068,-0.992,-0.9723,-0.9476,-0.9175,-0.8928,-0.8581,-0.818,-0.8028,-0.7879,-0.7584,-0.7288,-0.7338,-0.7882,-0.7733,-0.7537,-0.7441,-0.7288,-0.7092,-0.6939,-0.6886,-0.6936,-0.6886,-0.6886,-0.6889,-0.6886,-0.6786,-0.6734,-0.6537,-0.6437,-0.6289,-0.6039,-0.5987,-0.5937,-0.5787,-0.5687,-0.5987,-0.6487,-0.6786,-0.7039,-0.7039,-0.6986,-0.6989,-0.6989,-0.6989,-0.6989,-0.6936,-0.6986,-0.6989,-0.7039,-0.7089,-0.7138,-0.7188,-0.7388,-0.7633,-1.0523,-1.0472,-1.0312,-1.0104,-0.9926,-0.9594,-0.938,-0.922,-0.8856,-0.8571,-0.8386,-0.8375,-0.823,-0.7982,-0.7932,-0.7786,-0.7593,-0.7543,-0.7839,-0.8432,-0.8737,-0.8687,-0.8584,-0.8333,-0.823,-0.823,-0.8226,-0.823,-0.818,-0.823,-0.8226,-0.8326,-0.828,-0.828,-0.8326,-0.8276,-0.823,-0.818,-0.823,-0.8226,-0.818,-0.823,-0.818,-0.818,-0.8031,-0.7982,-0.7982,-0.8435,-0.8783,-0.8981,-0.8981,-0.9031,-0.9034,-0.9034,-0.9034,-0.8985,-0.8981,-0.8981,-0.8981,-0.9031,-0.9031,-0.8981,-0.8783,-0.8531,-0.8329,-0.8031,-0.7637,-0.7385,-0.7086,-0.6936,-0.6739,-0.6489,-0.6537,-0.6783,-0.6786,-0.6689,-0.6639,-0.6489,-0.6239,-0.6039,-0.5989,-0.5887,-0.5837,-0.5834,-0.5837,-0.5787,-0.5787,-0.5787,-0.5589,-0.5536,-0.5386,-0.5238,-0.5138,-0.5087,-0.5035,-0.4985,-0.4985,-0.5336,-0.5737,-0.6037,-0.6237,-0.6234,-0.6237,-0.6234,-0.6234,-0.6237,-0.6237,-0.6187,-0.6237,-0.6237,-0.6237,-0.6287,-0.6387,-0.6589,-0.6839,-0.9599,-0.9379,-0.9313,-0.9057,-0.8652,-0.849,-0.829,-0.8204,-0.7959,-0.7746,-0.758,-0.7531,-0.7381,-0.7188,-0.7138,-0.6989,-0.6742,-0.6692,-0.6592,-0.6736,-0.7235,-0.7587,-0.7534,-0.7335,-0.7235,-0.7235,-0.7235,-0.7185,-0.7235,-0.7235,-0.7282,-0.7484,-0.7335,-0.7285,-0.7481,-0.7285,-0.7235,-0.7238,-0.7238,-0.7235,-0.7238,-0.7188,-0.7188,-0.7188,-0.7188,-0.7138,-0.7135,-0.7188,-0.7437,-0.7889,-0.7988,-0.7988,-0.7942,-0.7939,-0.7935,-0.7939,-0.7939,-0.7935,-0.7935,-0.7935,-0.7939,-0.7889,-0.7733,-0.7531,-0.7431,-0.7109,-0.6829,-0.6723,-0.6332,-0.603,-0.5982,-0.5715,-0.5605,-0.5539,-0.5839,-0.5839,-0.5586,-0.5536,-0.5388,-0.514,-0.509,-0.5037,-0.4784,-0.4734,-0.4734,-0.4734,-0.4734,-0.4684,-0.4684,-0.4636,-0.4535,-0.4437,-0.4336,-0.4286,-0.4234,-0.4234,-0.4234,-0.4334,-0.4686,-0.4985,-0.5336,-0.5384,-0.5384,-0.5384,-0.5434,-0.5486,-0.5436,-0.5386,-0.5336,-0.5384,-0.5384,-0.5484,-0.5636,-0.5789,-0.5989,-0.8816,-0.8699,-0.8214,-0.7934,-0.7759,-0.7389,-0.7167,-0.7118,-0.6891,-0.6786,-0.6684,-0.6686,-0.6537,-0.6339,-0.6292,-0.6189,-0.5939,-0.5739,-0.5591,-0.5541,-0.5536,-0.6137,-0.6584,-0.6637,-0.6587,-0.6587,-0.6587,-0.6637,-0.6587,-0.6587,-0.6634,-0.6736,-0.6637,-0.6634,-0.6686,-0.6637,-0.6637,-0.6587,-0.6587,-0.6587,-0.6587,-0.6587,-0.6587,-0.6587,-0.6389,-0.6339,-0.6289,-0.6137,-0.6484,-0.7291,-0.7241,-0.7095,-0.7092,-0.6939,-0.6886,-0.6886,-0.6836,-0.6839,-0.6836,-0.6842,-0.6842,-0.6839,-0.6756,-0.6637,-0.6442,-0.6374,-0.6261,-0.6077,-0.5766,-0.5602,-0.5541,-0.5128,-0.4765,-0.4545,-0.4903,-0.5151,-0.4841,-0.4688,-0.4535,-0.4131,-0.4029,-0.393,-0.3731,-0.363,-0.363,-0.363,-0.363,-0.363,-0.363,-0.363,-0.353,-0.3581,-0.3533,-0.3481,-0.343,-0.343,-0.343,-0.3482,-0.3682,-0.3882,-0.4183,-0.4433,-0.4383,-0.4383,-0.4533,-0.4585,-0.4485,-0.4384,-0.4433,-0.4533,-0.4585,-0.4686,-0.4786,-0.4937,-0.5188,-0.7875,-0.77,-0.7299,-0.6948,-0.6669,-0.6284,-0.6082,-0.5928,-0.5766,-0.5734,-0.5734,-0.5737,-0.5636,-0.5486,-0.5489,-0.5338,-0.5087,-0.4939,-0.4738,-0.4483,-0.4284,-0.4734,-0.5484,-0.5737,-0.5734,-0.5734,-0.5734,-0.5737,-0.5737,-0.5737,-0.5734,-0.5734,-0.5737,-0.5734,-0.5734,-0.5737,-0.5737,-0.5737,-0.5737,-0.5734,-0.5734,-0.5734,-0.5737,-0.5687,-0.5536,-0.5489,-0.5489,-0.5336,-0.5687,-0.6287,-0.6387,-0.6289,-0.6292,-0.6189,-0.6087,-0.6084,-0.6084,-0.6037,-0.5897,-0.5927,-0.5858,-0.5817,-0.5785,-0.5714,-0.563,-0.5572,-0.5446,-0.5296,-0.5079,-0.4941,-0.4725,-0.4322,-0.3917,-0.3678,-0.3871,-0.4101,-0.4046,-0.3935,-0.3732,-0.3379,-0.3177,-0.3025,-0.2725,-0.2623,-0.2522,-0.2522,-0.2521,-0.2522,-0.2522,-0.2522,-0.2522,-0.2523,-0.2522,-0.2472,-0.2472,-0.2472,-0.2472,-0.2473,-0.2523,-0.2774,-0.3179,-0.3479,-0.363,-0.363,-0.3632,-0.3632,-0.3581,-0.3581,-0.3732,-0.3783,-0.3835,-0.3885,-0.3934,-0.4081,-0.4334,-0.6816,-0.6521,-0.6463,-0.6032,-0.5558,-0.5307,-0.5012,-0.4748,-0.4636,-0.4636,-0.4634,-0.4634,-0.4634,-0.4634,-0.4583,-0.4485,-0.4288,-0.4187,-0.3882,-0.3528,-0.3328,-0.358,-0.428,-0.4583,-0.4634,-0.4634,-0.4636,-0.4634,-0.4634,-0.4634,-0.4636,-0.4634,-0.4634,-0.4636,-0.4634,-0.4634,-0.4634,-0.4634,-0.4634,-0.4634,-0.4634,-0.4634,-0.4632,-0.4734,-0.4786,-0.4734,-0.4684,-0.4684,-0.4883,-0.5334,-0.5384,-0.5486,-0.5486,-0.5436,-0.5386,-0.5395,-0.5352,-0.5315,-0.5172,-0.5146,-0.5091,-0.489,-0.4898,-0.4841,-0.4773,-0.4623,-0.4534,-0.4479,-0.4223,-0.3972,-0.3691,-0.3362,-0.3086,-0.2809,-0.2601,-0.2723,-0.3123,-0.3145,-0.2943,-0.2683,-0.2379,-0.2175,-0.1917,-0.1664,-0.1462,-0.1564,-0.1513,-0.1412,-0.1412,-0.1413,-0.1412,-0.1463,-0.1463,-0.1412,-0.1412,-0.1412,-0.1412,-0.1412,-0.1412,-0.1614,-0.217,-0.2522,-0.2826,-0.2977,-0.2825,-0.2825,-0.2875,-0.2925,-0.2977,-0.2977,-0.2976,-0.3027,-0.3078,-0.3327,-0.3527,-0.5718,-0.5584,-0.5223,-0.4974,-0.4731,-0.424,-0.3947,-0.383,-0.363,-0.3531,-0.3531,-0.3531,-0.3531,-0.3531,-0.3531,-0.3482,-0.3432,-0.3229,-0.2976,-0.2674,-0.237,-0.232,-0.2772,-0.3228,-0.3531,-0.353,-0.3531,-0.3531,-0.3531,-0.353,-0.3531,-0.3531,-0.353,-0.3531,-0.3531,-0.353,-0.3531,-0.3531,-0.3531,-0.3531,-0.3581,-0.3581,-0.3681,-0.383,-0.4033,-0.4033,-0.3879,-0.3879,-0.383,-0.3882,-0.4288,-0.4547,-0.4595,-0.4493,-0.4396,-0.4414,-0.4402,-0.4429,-0.4392,-0.4398,-0.4288,-0.4078,-0.3992,-0.3939,-0.3728,-0.3723,-0.3689,-0.3703,-0.3516,-0.3131,-0.2669,-0.25,-0.2218,-0.1932,-0.1657,-0.1544,-0.1688,-0.1841,-0.1828,-0.1658,-0.1496,-0.1335,-0.1064,-0.0811,-0.0659,-0.0606,-0.0506,-0.0354,-0.0354,-0.0406,-0.0457,-0.0509,-0.0507,-0.0507,-0.0555,-0.0555,-0.0555,-0.0555,-0.0504,-0.0504,-0.106,-0.1413,-0.1716,-0.1866,-0.1917,-0.1967,-0.1917,-0.1968,-0.1967,-0.2017,-0.2118,-0.222,-0.2321,-0.2521,-0.2723,-0.4457,-0.4463,-0.4194,-0.3971,-0.3825,-0.3406,-0.3075,-0.2874,-0.2724,-0.2573,-0.2472,-0.2472,-0.2472,-0.2472,-0.2422,-0.2472,-0.2371,-0.217,-0.1969,-0.1767,-0.1564,-0.1463,-0.1463,-0.1867,-0.217,-0.2371,-0.2422,-0.2472,-0.2472,-0.2472,-0.2422,-0.2472,-0.2472,-0.2471,-0.2472,-0.2472,-0.2422,-0.2472,-0.2472,-0.2472,-0.2623,-0.2675,-0.2775,-0.2975,-0.3176,-0.3176,-0.3025,-0.3074,-0.2888,-0.2804,-0.3066,-0.3474,-0.378,-0.3729,-0.369,-0.3677,-0.3701,-0.3622,-0.3584,-0.3573,-0.3503,-0.3236,-0.3148,-0.2998,-0.2785,-0.2753,-0.2708,-0.2659,-0.2561,-0.2288,-0.1828,-0.1438,-0.1265,-0.1041,-0.0709,-0.0491,-0.0544,-0.0808,-0.101,-0.0791,-0.0578,-0.0366,-0.0156,0.0,0.0155,0.026,0.026,0.0364,0.0365,0.0365,0.0362,0.0361,0.0359,0.0358,0.0354,0.0303,0.0303,0.0252,0.0252,0.0252,0.005,-0.0252,-0.0505,-0.0706,-0.0958,-0.0858,-0.0858,-0.0908,-0.106,-0.111,-0.1211,-0.1363,-0.1514,-0.1716,-0.1918,-0.326,-0.3245,-0.3148,-0.3001,-0.2784,-0.2591,-0.227,-0.1917,-0.1816,-0.1665,-0.1462,-0.1412,-0.1463,-0.1361,-0.1362,-0.1361,-0.1312,-0.1161,-0.101,-0.0959,-0.0707,-0.0656,-0.0656,-0.0707,-0.0808,-0.121,-0.1463,-0.1513,-0.1513,-0.1462,-0.1564,-0.1513,-0.1513,-0.1564,-0.1513,-0.1463,-0.1564,-0.1564,-0.1564,-0.1615,-0.1766,-0.1817,-0.1968,-0.217,-0.2333,-0.2286,-0.2239,-0.2193,-0.2104,-0.1872,-0.1823,-0.2242,-0.2714,-0.3021,-0.3033,-0.3028,-0.2982,-0.2886,-0.2789,-0.2768,-0.2688,-0.2418,-0.2222,-0.207,-0.1959,-0.1789,-0.1677,-0.1567,-0.1513,-0.1345,-0.1065,-0.0671,-0.0336,-0.0168,0.0224,0.0448,0.0391,0.0109,0.0054,-0.0161,0.0107,0.032,0.0584,0.0792,0.0956,0.1121,0.1121,0.1122,0.1122,0.1119,0.1212,0.1258,0.1357,0.1355,0.1344,0.1236,0.1233,0.1127,0.1073,0.1072,0.1122,0.102,0.0714,0.0202,0.0,0.005,0.0,-0.0101,-0.0202,-0.0252,-0.0404,-0.0555,-0.0707,-0.0859,-0.1162,-0.2067,-0.1986,-0.1974,-0.1902,-0.1826,-0.1567,-0.1414,-0.1313,-0.106,-0.0858,-0.0606,-0.0606,-0.0454,-0.0303,-0.0252,-0.0252,-0.0252,-0.0151,-0.0151,-0.0101,0.0101,0.0202,0.0252,0.0353,0.0404,0.0202,-0.0353,-0.0808,-0.0909,-0.0959,-0.0858,-0.0908,-0.0909,-0.0858,-0.0858,-0.0909,-0.0858,-0.0808,-0.0858,-0.0909,-0.0962,-0.1015,-0.1117,-0.1372,-0.1539,-0.1548,-0.1451,-0.1414,-0.1269,-0.1008,-0.1009,-0.1123,-0.1344,-0.1656,-0.1811,-0.1927,-0.1947,-0.1905,-0.1855,-0.1933,-0.1839,-0.162,-0.14,-0.1289,-0.1121,-0.0841,-0.0673,-0.0617,-0.0448,-0.0224,0.0056,0.0224,0.0392,0.0617,0.0785,0.0897,0.0952,0.1113,0.1102,0.0873,0.0925,0.0977,0.1244,0.1509,0.1619,0.1783,0.1891,0.1943,0.1942,0.2043,0.2188,0.2234,0.2335,0.2333,0.2382,0.2272,0.2161,0.2049,0.1993,0.1992,0.2039,0.2181,0.1962,0.1232,0.0864,0.0757,0.0707,0.0657,0.0556,0.0505,0.0353,0.0202,0.0,-0.0252,-0.0455,-0.0993,-0.0829,-0.0822,-0.0814,-0.0758,-0.0656,-0.0505,-0.0353,-0.0202,0.0,0.0202,0.0353,0.0505,0.0656,0.0808,0.0858,0.0808,0.0807,0.0807,0.0858,0.0959,0.1009,0.1009,0.1161,0.1211,0.1059,0.0656,0.0252,0.005,0.005,0.0,0.005,0.005,0.0,0.0,0.005,0.0,0.0,0.0,-0.0051,-0.0205,-0.0258,-0.0415,-0.052,-0.0627,-0.063,-0.0579,-0.0529,-0.0428,-0.0216,-0.0108,-0.0055,-0.011,-0.022,-0.0547,-0.0821,-0.0881,-0.0831,-0.0831,-0.0838,-0.0784,-0.0673,-0.0561,-0.0392,-0.0168,0.0056,0.028,0.0336,0.0336,0.0504,0.0617,0.0953,0.1177,0.1346,0.157,0.1739,0.1851,0.2075,0.1952,0.1772,0.1882,0.1988,0.2039,0.2198,0.2302,0.2464,0.257,0.2676,0.2671,0.2721,0.2767,0.2753,0.2748,0.2738,0.2739,0.274,0.2741,0.2738,0.2735,0.2735,0.2668,0.2646,0.2473,0.1989,0.1758,0.1578,0.1516,0.1467,0.1365,0.1214,0.0912,0.0659,0.0556,0.0404,0.0203,0.0,0.0258,0.0254,0.0252,0.0303,0.0303,0.0404,0.0606,0.0656,0.0808,0.106,0.1212,0.1363,0.1464,0.1615,0.1715,0.1765,0.1765,0.1714,0.1714,0.1714,0.1765,0.1765,0.1765,0.1765,0.1766,0.1676,0.1518,0.101,0.0909,0.0908,0.091,0.0961,0.0965,0.0966,0.0922,0.0969,0.0919,0.0868,0.0773,0.0522,0.037,0.0266,0.0267,0.0267,0.0268,0.0214,0.0216,0.0326,0.0438,0.055,0.0663,0.095,0.1009,0.0785,0.028,0.0224,0.0168,0.0168,0.0168,0.0112,0.0112,0.0392,0.0448,0.0561,0.0785,0.1121,0.1234,0.129,0.1346,0.1458,0.1683,0.1907,0.2075,0.2356,0.2637,0.2581,0.2637,0.2692,0.2686,0.2806,0.2798,0.2672,0.267,0.2715,0.2936,0.3045,0.305,0.3046,0.3054,0.3044,0.2967,0.295,0.2933,0.2985,0.2992,0.305,0.3055,0.3054,0.3052,0.298,0.2851,0.2678,0.2612,0.262,0.2427,0.2354,0.2195,0.2008,0.1755,0.1383,0.128,0.1392,0.1187,0.093,0.0811,0.1064,0.1062,0.1212,0.1362,0.1362,0.1412,0.1412,0.1463,0.1614,0.1816,0.1866,0.2017,0.222,0.227,0.2321,0.2321,0.2321,0.2321,0.2321,0.2321,0.2323,0.2324,0.2321,0.2332,0.2341,0.2365,0.2044,0.1731,0.1573,0.1518,0.1523,0.1594,0.1603,0.1605,0.1618,0.1534,0.1321,0.1268,0.1166,0.0958,0.0908,0.091,0.0859,0.0865,0.0926,0.0928,0.0935,0.0945,0.0947,0.0893,0.1007,0.1234,0.157,0.1795,0.1627,0.129,0.0785,0.0841,0.0897,0.0897,0.0897,0.0953,0.0841,0.1065,0.1402,0.1851,0.2468,0.2412,0.23,0.2244,0.2468,0.2581,0.258,0.2692,0.2806,0.2806,0.3029,0.3085,0.3139,0.3141,0.3139,0.3075,0.3078,0.3136,0.3361,0.3475,0.3419,0.3421,0.3307,0.3307,0.3223,0.3211,0.3195,0.3186,0.3248,0.325,0.3316,0.3316,0.3317,0.3247,0.3174,0.3274,0.3248,0.3197,0.3071,0.2804,0.2593,0.2488,0.2316,0.2038,0.2153,0.2384,0.2063,0.1629,0.1766,0.1867,0.1867,0.1968,0.2068,0.2068,0.2068,0.2068,0.2068,0.2118,0.2269,0.2422,0.2573,0.2775,0.2876,0.2876,0.2876,0.2879,0.2826,0.288,0.2882,0.2896,0.2919,0.2926,0.2932,0.2964,0.2987,0.2943,0.2604,0.2289,0.2185,0.2185,0.22,0.2212,0.2212,0.2228,0.2181,0.2081,0.2041,0.2,0.1899,0.1911,0.1921,0.1921,0.1879,0.1884,0.1833,0.1897,0.1907,0.1907,0.1907,0.1963,0.2075,0.2244,0.2356,0.2412,0.2132,0.1963,0.1907,0.1907,0.1851,0.1851,0.1907,0.1963,0.1963,0.2132,0.2356,0.2637,0.2693,0.2693,0.2748,0.2861,0.2915,0.2971,0.3139,0.3195,0.3197,0.3251,0.3419,0.3475,0.3531,0.3474,0.3474,0.3474,0.3418,0.3419,0.3531,0.3531,0.3531,0.3531,0.3531,0.3527,0.3522,0.3518,0.3511,0.3511,0.3449,0.3454,0.3454,0.3511,0.3517,0.3561,0.3544,0.3542,0.3464,0.3285,0.3118,0.2975,0.2835,0.2774,0.2716,0.2729,0.2739,0.2563,0.2124,0.2573,0.2623,0.2522,0.2522,0.2573,0.2623,0.2623,0.2573,0.2623,0.2623,0.2675,0.2826,0.3029,0.3282,0.3281,0.3281,0.3432,0.3448,0.3455,0.3458,0.3477,0.3513,0.354,0.3556,0.3575,0.3627,0.3637,0.3588,0.349,0.3279,0.3062,0.2828,0.2833,0.2841,0.2845,0.2861,0.2819,0.2659,0.2574,0.2531,0.2538,0.2616,0.2628,0.2633,0.2693,0.2693,0.2693,0.2637,0.2637,0.2581,0.2581,0.258,0.2692,0.2747,0.2803,0.2917,0.2859,0.2861,0.2748,0.2692,0.2693,0.2693,0.2693,0.2581,0.2748,0.2806,0.2862,0.2973,0.3086,0.3086,0.3085,0.3307,0.3474,0.3642,0.3698,0.3754,0.381,0.381,0.3866,0.3921,0.3977,0.3921,0.3921,0.3866,0.3755,0.3643,0.3587,0.3643,0.3643,0.3643,0.3643,0.3643,0.3587,0.3587,0.3587,0.3587,0.3587,0.3587,0.3587,0.3587,0.3585,0.3585,0.3574,0.358,0.3587,0.3519,0.3378,0.3223,0.3132,0.315,0.3108,0.2985,0.2926,0.2804,0.2589,0.313,0.313,0.2876,0.2927,0.313,0.313,0.313,0.3128,0.313,0.313,0.313,0.318,0.3332,0.354,0.3597,0.3696,0.3945,0.4058,0.403,0.406,0.4206,0.4125,0.4092,0.4096,0.4156,0.4183,0.4173,0.4201,0.4269,0.4134,0.3817,0.3433,0.3366,0.3432,0.3392,0.3305,0.3267,0.3105,0.2897,0.2792,0.2794,0.2802,0.2805,0.275,0.275,0.2693,0.2693,0.275,0.2806,0.2806,0.2805,0.2917,0.3139,0.3139,0.3251,0.3475,0.3531,0.3533,0.3475,0.3141,0.2806,0.2693,0.2806,0.2973,0.3251,0.3138,0.3251,0.3531,0.3645,0.3813,0.3924,0.4147,0.4145,0.4145,0.4145,0.4145,0.4201,0.4257,0.4313,0.4424,0.4369,0.4257,0.4201,0.4145,0.4089,0.3921,0.3867,0.3867,0.3811,0.3811,0.3699,0.3643,0.3643,0.3643,0.3587,0.3587,0.3587,0.3587,0.3587,0.3587,0.3587,0.3587,0.3589,0.3587,0.3587,0.3587,0.3586,0.3434,0.3419,0.3506,0.3511,0.3315,0.3198,0.3085,0.2929,0.3682,0.3682,0.358,0.3533,0.3484,0.3633,0.3681,0.3681,0.3682,0.3682,0.3685,0.3734,0.3808,0.3941,0.4007,0.403,0.4171,0.4198,0.4267,0.4274,0.4302,0.4341,0.4362,0.4447,0.4353,0.4441,0.4481,0.4439,0.4446,0.458,0.4399,0.409,0.3923,0.3714,0.3621,0.3627,0.3526,0.3475,0.3307,0.3253,0.3253,0.3253,0.3253,0.3253,0.3251,0.3253,0.3253,0.3253,0.3251,0.3251,0.3251,0.3419,0.3587,0.3643,0.3811,0.4035,0.4091,0.4147,0.4035,0.3643,0.3309,0.3478,0.3534,0.3589,0.3866,0.3921,0.3976,0.4145,0.4257,0.437,0.437,0.4426,0.4424,0.448,0.4536,0.4592,0.4648,0.4761,0.476,0.4871,0.4648,0.4424,0.4424,0.4424,0.4313,0.4255,0.4201,0.4148,0.4099,0.4052,0.4002,0.3956,0.3904,0.3839,0.3782,0.3715,0.3647,0.3653,0.3713,0.3722,0.3787,0.3645,0.3645,0.3589,0.3654,0.3663,0.3663,0.3649,0.3587,0.3587,0.3587,0.3579,0.347,0.3306,0.3195,0.3984,0.4033,0.4183,0.4034,0.3784,0.3934,0.3984,0.3984,0.3984,0.3999,0.4067,0.4119,0.4314,0.4475,0.4598,0.4723,0.488,0.4915,0.4878,0.4949,0.4976,0.4901,0.4937,0.5017,0.5145,0.5031,0.5039,0.5093,0.5144,0.4927,0.4862,0.4693,0.4426,0.4142,0.3918,0.3757,0.3757,0.3701,0.3643,0.3643,0.3699,0.3701,0.3811,0.381,0.3867,0.3866,0.3867,0.3866,0.3866,0.3867,0.3867,0.3979,0.4091,0.4203,0.4314,0.4424,0.4594,0.465,0.4484,0.4203,0.3979,0.4035,0.4091,0.4257,0.4536,0.4648,0.4592,0.4758,0.4815,0.4871,0.4871,0.5096,0.5208,0.532,0.532,0.5375,0.5322,0.5377,0.5264,0.5264,0.5154,0.5166,0.5277,0.534,0.4919,0.4734,0.4369,0.4331,0.4365,0.4373,0.4383,0.4341,0.4297,0.4172,0.4044,0.4116,0.4189,0.4193,0.4195,0.4124,0.4118,0.3918,0.392,0.4124,0.4068,0.3873,0.3812,0.3819,0.3678,0.3589,0.3589,0.3587,0.3587,0.3419,0.3362,0.4033,0.4083,0.4583,0.4483,0.4083,0.4033,0.4083,0.4185,0.4144,0.4233,0.4398,0.4556,0.4862,0.514,0.5369,0.555,0.5799,0.5917,0.5947,0.5961,0.6007,0.613,0.6139,0.6142,0.6079,0.6209,0.6105,0.5991,0.6107,0.5768,0.5541,0.5373,0.5096,0.4704,0.448,0.4148,0.3982,0.398,0.3755,0.3868,0.398,0.4036,0.4147,0.4369,0.4426,0.437,0.448,0.4479,0.4479,0.448,0.448,0.4536,0.4592,0.4592,0.4648,0.4704,0.4879,0.4994,0.4938,0.4655,0.4718,0.4651,0.4704,0.4761,0.4875,0.4985,0.515,0.5429,0.5599,0.571,0.588,0.5993,0.6105,0.6102,0.6102,0.6121,0.6067,0.6083,0.609,0.6071,0.6214,0.6263,0.636,0.6292,0.5733,0.5289,0.4723,0.4627,0.4802,0.494,0.5069,0.4906,0.4866,0.4693,0.4574,0.4669,0.4688,0.4753,0.468,0.4478,0.4477,0.4472,0.4541,0.4626,0.449,0.4224,0.4112,0.4004,0.3968,0.3987,0.3654,0.3587,0.3587,0.3531,0.3475,0.5083,0.5085,0.5233,0.5236,0.5085,0.5033,0.5085,0.5096,0.5154,0.5287,0.5363,0.5534,0.5587,0.5817,0.5959,0.6199,0.6431,0.6506,0.6546,0.6824,0.6866,0.6871,0.6879,0.6882,0.6882,0.6826,0.6715,0.6606,0.655,0.6325,0.6158,0.5935,0.5846,0.532,0.4704,0.437,0.437,0.4313,0.4257,0.4258,0.4316,0.4375,0.4547,0.4828,0.483,0.4944,0.511,0.5172,0.5226,0.5226,0.5228,0.5282,0.5336,0.5392,0.55,0.5624,0.587,0.6064,0.6331,0.635,0.6168,0.5766,0.539,0.5564,0.5775,0.5826,0.5991,0.6221,0.6408,0.6573,0.6712,0.6773,0.6829,0.6824,0.6834,0.6883,0.6909,0.6994,0.7023,0.7041,0.7169,0.7216,0.728,0.7346,0.6907,0.6594,0.6193,0.583,0.5942,0.5946,0.6013,0.5725,0.556,0.5336,0.5178,0.5274,0.5162,0.5154,0.4956,0.4693,0.4759,0.4968,0.4902,0.4906,0.4776,0.4588,0.4467,0.44,0.4441,0.4402,0.4056,0.3787,0.3671,0.366,0.3587,0.5887,0.5889,0.608,0.6143,0.6093,0.5944,0.5913,0.606,0.6135,0.6225,0.6364,0.644,0.6555,0.6632,0.6723,0.6848,0.7157,0.7157,0.721,0.7487,0.7487,0.7487,0.7487,0.7487,0.749,0.7435,0.7326,0.7157,0.7215,0.6884,0.6746,0.6725,0.6755,0.6391,0.5755,0.5457,0.509,0.5045,0.5004,0.503,0.514,0.5193,0.525,0.548,0.565,0.5816,0.5978,0.6084,0.6139,0.6136,0.6193,0.6254,0.6367,0.6485,0.6542,0.6687,0.6893,0.7148,0.7478,0.7666,0.7404,0.709,0.6657,0.6603,0.6832,0.6915,0.7077,0.7242,0.7328,0.7443,0.761,0.7657,0.7821,0.7823,0.79,0.8016,0.81,0.8136,0.816,0.8191,0.8227,0.8236,0.8219,0.8222,0.8132,0.7946,0.7697,0.7377,0.6995,0.6872,0.6884,0.6603,0.638,0.6167,0.5998,0.5893,0.5769,0.5564,0.5429,0.5356,0.5389,0.567,0.5399,0.5141,0.51,0.498,0.4824,0.4744,0.4732,0.4638,0.4406,0.4136,0.3879,0.3811,0.3746,0.6445,0.6514,0.6932,0.7135,0.7035,0.6689,0.6706,0.6959,0.6965,0.7032,0.7083,0.7416,0.7586,0.7683,0.787,0.798,0.8045,0.8045,0.81,0.8156,0.8208,0.8152,0.8156,0.8156,0.8285,0.8174,0.8075,0.8109,0.8069,0.79,0.7675,0.7624,0.77,0.7547,0.7245,0.6889,0.6329,0.6166,0.5961,0.6043,0.6158,0.6241,0.6346,0.6577,0.6754,0.693,0.7101,0.7277,0.7462,0.7528,0.7594,0.7602,0.7669,0.7677,0.768,0.7744,0.7979,0.8288,0.8562,0.8694,0.8854,0.8687,0.8218,0.8046,0.7945,0.8026,0.8184,0.8363,0.8468,0.8502,0.8579,0.8797,0.8961,0.9076,0.9191,0.9283,0.9361,0.9442,0.9453,0.9432,0.9449,0.9431,0.9413,0.943,0.9263,0.9216,0.8957,0.8582,0.8133,0.7581,0.7545,0.7362,0.7137,0.7045,0.6862,0.6761,0.6575,0.6364,0.6514,0.6451,0.6429,0.6244,0.6029,0.5778,0.5576,0.5386,0.5267,0.5114,0.4978,0.4876,0.4849,0.4564,0.4306,0.4132,0.4012,0.7539,0.7632,0.7985,0.8157,0.817,0.8269,0.8072,0.7675,0.7785,0.7963,0.809,0.8365,0.8494,0.8537,0.8592,0.8761,0.893,0.8989,0.9154,0.9158,0.9109,0.9213,0.9217,0.9179,0.9332,0.9339,0.9265,0.913,0.9222,0.906,0.8895,0.891,0.8858,0.8923,0.8829,0.8672,0.7988,0.738,0.7176,0.7186,0.7245,0.7306,0.7423,0.7602,0.7783,0.7958,0.8128,0.8239,0.8411,0.8577,0.8623,0.8674,0.8958,0.8965,0.8981,0.9045,0.9301,0.9627,0.9782,0.9986,1.0144,1.0186,0.9954,0.9537,0.928,0.9169,0.9234,0.9315,0.9439,0.9452,0.9573,0.9799,0.9975,1.0091,1.0215,1.0358,1.0442,1.048,1.0494,1.0543,1.0558,1.0573,1.0568,1.0346,1.0244,1.0283,1.0112,0.9721,0.9277,0.8708,0.8288,0.8166,0.8058,0.7936,0.7875,0.7715,0.7487,0.7253,0.7385,0.7266,0.6947,0.6698,0.6587,0.6283,0.5974,0.5786,0.5707,0.5492,0.5343,0.5428,0.5405,0.5038,0.4751,0.4572,0.4388,0.8508,0.865,0.8864,0.903,0.9101,0.9352,0.9066,0.8737,0.8845,0.8958,0.903,0.9144,0.9254,0.9254,0.9258,0.9368,0.9541,0.9485,0.9596,0.9662,0.9939,0.9857,0.9917,1.0029,1.0013,1.0072,1.0049,0.9849,1.008,1.0036,0.993,0.9875,0.997,1.0009,0.9992,0.9867,0.9625,0.9047,0.8669,0.8539,0.847,0.847,0.8601,0.8651,0.8772,0.9006,0.918,0.9235,0.9478,0.9662,0.9721,0.9783,1.0023,1.003,0.9982,1.0035,1.0165,1.0437,1.062,1.0823,1.1084,1.1273,1.1325,1.1164,1.0714,1.048,1.0299,1.0184,1.0225,1.0332,1.0561,1.0793,1.0914,1.1036,1.1177,1.1319,1.1367,1.1474,1.1531,1.1535,1.1551,1.1603,1.1507,1.1329,1.1148,1.1031,1.0849,1.0415,1.0101,0.9727,0.9357,0.9086,0.9031,0.8906,0.8845,0.8662,0.8482,0.8238,0.818,0.7997,0.751,0.7204,0.7079,0.6648,0.6219,0.6092,0.5906,0.5849,0.5776,0.5794,0.5732,0.5551,0.5201,0.49,0.4828,0.9519,0.9501,0.9686,0.988,0.9908,0.9966,0.997,0.9923,0.9962,0.9923,0.9871,0.9923,1.0033,1.0088,1.0084,1.0111,1.0248,1.0263,1.0298,1.0027,1.0459,1.0521,1.0568,1.044,1.0766,1.0582,1.0566,1.0829,1.0689,1.0781,1.0928,1.0762,1.092,1.1019,1.1071,1.109,1.0898,1.0759,1.0275,1.0042,0.9828,0.9798,0.9883,0.9919,1.0094,1.0336,1.04,1.0593,1.0849,1.0902,1.0895,1.0872,1.0985,1.0978,1.0997,1.1,1.111,1.1242,1.1382,1.1511,1.1756,1.1993,1.223,1.2144,1.179,1.1463,1.1212,1.1148,1.1252,1.1312,1.1487,1.1606,1.1725,1.1848,1.198,1.2052,1.2073,1.2106,1.2127,1.2178,1.2178,1.2174,1.2178,1.1933,1.1812,1.1756,1.1575,1.1212,1.1046,1.08,1.039,1.0021,0.9886,0.9761,0.9758,0.9576,0.9454,0.9275,0.9108,0.8729,0.8241,0.7872,0.7505,0.7016,0.6526,0.6283,0.6096,0.6041,0.5921,0.5857,0.5855,0.5857,0.5661,0.5343,0.5262,1.0279,1.0462,1.0933,1.1147,1.1185,1.1185,1.1131,1.1185,1.1185,1.0911,1.0637,1.0911,1.1076,1.1021,1.1042,1.1096,1.1257,1.1123,1.1487,1.1433,1.1538,1.1388,1.1625,1.1537,1.1732,1.1929,1.1984,1.1841,1.1862,1.2005,1.217,1.2106,1.2113,1.2053,1.2053,1.2053,1.2057,1.1937,1.1812,1.1209,1.0728,1.0607,1.055,1.0671,1.091,1.1091,1.1212,1.139,1.1635,1.1816,1.1872,1.1989,1.2234,1.2234,1.2234,1.2234,1.2113,1.2118,1.2238,1.2234,1.2419,1.2479,1.2599,1.2599,1.2535,1.2359,1.2238,1.2178,1.2174,1.2238,1.2298,1.2419,1.2535,1.2599,1.2719,1.2719,1.2775,1.2775,1.2775,1.2715,1.2715,1.2719,1.2719,1.2659,1.2539,1.2479,1.2419,1.2247,1.2224,1.1999,1.1423,1.105,1.069,1.0558,1.0626,1.0555,1.0407,1.0141,0.99,0.9503,0.905,0.8412,0.783,0.7283,0.6834,0.6626,0.6392,0.6048,0.5986,0.6013,0.5959,0.5978,0.5961,0.5698,0.5681,1.1033,1.1126,1.1459,1.1568,1.1568,1.1568,1.1568,1.1623,1.1728,1.1568,1.1295,1.1514,1.1627,1.1658,1.1716,1.1804,1.195,1.1959,1.196,1.2122,1.2365,1.2271,1.2356,1.2458,1.2406,1.2557,1.257,1.2563,1.2766,1.2651,1.2646,1.2779,1.2775,1.2779,1.2719,1.2719,1.2779,1.2655,1.2775,1.2294,1.1635,1.1635,1.1635,1.1756,1.1816,1.1937,1.1997,1.2118,1.2238,1.2359,1.2359,1.2419,1.2539,1.2595,1.2655,1.2655,1.2655,1.2779,1.29,1.296,1.302,1.3084,1.3144,1.3209,1.3204,1.3024,1.2784,1.2719,1.2475,1.2479,1.2719,1.284,1.302,1.3144,1.3204,1.3264,1.3264,1.3264,1.3264,1.3264,1.3264,1.3264,1.3204,1.3024,1.2931,1.3008,1.2981,1.2983,1.2991,1.3026,1.2494,1.2139,1.1804,1.1772,1.1853,1.1737,1.1437,1.1089,1.0725,1.0215,0.9745,0.886,0.8163,0.7767,0.7393,0.7113,0.6795,0.6445,0.6342,0.6389,0.6191,0.6053,0.6029,0.6012,0.5958,1.1728,1.1787,1.1841,1.1841,1.1841,1.1841,1.1841,1.1896,1.206,1.2242,1.2219,1.206,1.1877,1.1839,1.1977,1.2057,1.2164,1.2426,1.2422,1.253,1.2709,1.2931,1.3004,1.2971,1.3136,1.3159,1.3172,1.3112,1.3195,1.32,1.32,1.296,1.296,1.2964,1.2964,1.2964,1.3144,1.32,1.32,1.3084,1.29,1.2779,1.2599,1.2659,1.284,1.2844,1.2844,1.2964,1.2964,1.3024,1.3084,1.3144,1.3204,1.326,1.32,1.32,1.326,1.3324,1.3384,1.3504,1.3629,1.3748,1.3813,1.3813,1.3808,1.3629,1.3384,1.3264,1.302,1.296,1.314,1.3324,1.3444,1.3573,1.3633,1.3643,1.3643,1.3647,1.3652,1.3657,1.3685,1.3685,1.3658,1.3467,1.3425,1.3501,1.3468,1.3425,1.3461,1.3522,1.3314,1.3225,1.3105,1.307,1.3018,1.2689,1.2336,1.2057,1.1647,1.1099,1.0439,0.9614,0.8905,0.8375,0.8002,0.7671,0.7292,0.695,0.686,0.6752,0.6525,0.6305,0.6121,0.6112,0.6141,1.255,1.2989,1.2985,1.293,1.2935,1.2935,1.2985,1.2989,1.2994,1.3188,1.3277,1.3246,1.3085,1.2553,1.2805,1.2941,1.3005,1.3122,1.3266,1.3461,1.3561,1.3722,1.3811,1.3765,1.4162,1.4112,1.4047,1.4167,1.3863,1.3988,1.4172,1.4107,1.4107,1.4167,1.4167,1.4107,1.4047,1.3988,1.3988,1.3988,1.3748,1.3504,1.2964,1.3084,1.3384,1.3629,1.3868,1.4112,1.4232,1.4232,1.4112,1.4052,1.4047,1.3988,1.3988,1.3928,1.3923,1.3988,1.4107,1.4107,1.4227,1.4227,1.4291,1.4291,1.4286,1.4286,1.4107,1.4047,1.3868,1.3569,1.3629,1.3629,1.3753,1.3717,1.3726,1.3745,1.3759,1.3783,1.3807,1.3877,1.3953,1.4019,1.4057,1.3999,1.4014,1.3987,1.4006,1.4022,1.401,1.405,1.4094,1.4077,1.4119,1.3798,1.3474,1.3358,1.3095,1.2885,1.2518,1.1757,1.1055,1.0397,0.9697,0.9138,0.8604,0.8124,0.7809,0.7597,0.7188,0.7064,0.6772,0.656,0.6385,0.6277,0.6371]},{"header":{"parameterUnit":"m.s-1","parameterCategory":1,"la1":31.0,"la2":29.5877,"lo1":-88.7671,"lo2":-86.6584,"dy":0.0162,"dx":0.0185,"nx":115,"ny":88,"refTime":"2023-08-16T00:00:00:Z","depth":0,"parameterNumber":3,"parameterNumberName":"V-component_of_WINDS"},"data":[0.0,0.0,0.0,0.0,0.0,0.0,0.0,0.0,0.0,0.0,0.0,0.0,0.0,0.0,0.0,0.0,0.0,0.0,0.0,0.0,0.0,0.0,0.0,0.0,0.0,0.0,0.0,0.0,0.0,0.0,0.0,0.0,0.0,0.0,0.0,0.0,0.0,0.0,0.0,0.0,0.0,0.0,0.0,0.0,0.0,0.0,0.0,0.0,0.0,0.0,0.0,0.0,0.0,0.0,0.0,0.0,0.0,0.0,0.0,0.0,0.0,0.0,0.0,0.0,0.0,0.0,0.0,0.0,0.0,0.0,0.0,0.0,0.0,0.0,0.0,0.0,0.0,0.0,0.0,0.0,0.0,0.0,0.0,0.0,0.0,0.0,0.0,0.0,0.0,0.0,0.0,0.0,0.0,0.0,0.0,0.0,0.0,0.0,0.0,0.0,0.0,0.0,0.0,0.0,0.0,0.0,0.0,0.0,0.0,0.0,0.0,0.0,0.0,0.0,0.0,0.0,0.0,0.0,0.0,0.0,0.0,0.0,0.0,0.0,0.0,0.0,0.0,0.0,0.0,0.0,0.0,0.0,0.0,0.0,0.0,0.0,0.0,0.0,0.0,0.0,0.0,0.0,0.0,0.0,0.0,0.0,0.0,0.0,0.0,0.0,0.0,0.0,0.0,0.0,0.0,0.0,0.0,0.0,0.0,0.0,0.0,0.0,0.0,0.0,0.0,0.0,0.0,0.0,0.0,0.0,0.0,0.0,0.0,0.0,0.0,0.0,0.0,0.0,0.0,0.0,0.0,0.0,0.0,0.0,0.0,0.0,0.0,0.0,0.0,0.0,0.0,0.0,0.0,0.0,0.0,0.0,0.0,0.0,0.0,0.0,0.0,0.0,0.0,0.0,0.0,0.0,0.0,0.0,0.0,0.0,0.0,0.0,0.0,0.0,0.0,0.0,0.0,0.0,0.0,0.0,0.0,0.0,0.0,0.0,0.0,0.0,0.0,0.0,0.0,0.0,0.0,0.0,0.0,0.0,0.0,0.0,0.0,0.0,0.0,0.0,0.0,0.0,0.0,0.0,0.0,0.0,0.0,0.0,0.0,0.0,0.0,0.0,0.0,0.0,0.0,0.0,0.0,0.0,0.0,0.0,0.0,0.0,0.0,0.0,0.0,0.0,0.0,0.0,0.0,0.0,0.0,0.0,0.0,0.0,0.0,0.0,0.0,0.0,0.0,0.0,0.0,0.0,0.0,0.0,0.0,0.0,0.0,0.0,0.0,0.0,0.0,0.0,0.0,0.0,0.0,0.0,0.0,0.0,0.0,0.0,0.0,0.0,0.0,0.0,0.0,0.0,0.0,0.0,0.0,0.0,0.0,0.0,0.0,0.0,0.0,0.0,0.0,0.0,0.0,0.0,0.0,0.0,0.0,0.0,0.0,0.0,0.0,0.0,0.0,0.0,0.0,0.0,0.0,0.0,0.0,0.0,0.0,0.0,0.0,0.0,0.0,0.0,0.0,0.0,0.0,0.0,0.0,0.0,0.0,0.0,0.0,0.0,0.0,0.0,0.0,0.0,0.0,0.0,0.0,0.0,0.0,0.0,0.0,0.0,0.0,0.0,0.0,0.0,0.0,0.0,0.0,0.0,0.0,0.0,0.0,0.0,0.0,0.0,0.0,0.0,0.0,0.0,0.0,0.0,0.0,0.0,0.0,0.0,0.0,0.0,0.0,0.0,0.0,0.0,0.0,0.0,0.0,0.0,0.0,0.0,0.0,0.0,0.0,0.0,0.0,0.0,0.0,0.0,0.0,0.0,0.0,0.0,0.0,0.0,0.0,0.0,0.0,0.0,0.0,0.0,0.0,0.0,0.0,0.0,0.0,0.0,0.0,0.0,0.0,0.0,0.0,0.0,0.0,0.0,0.0,0.0,0.0,0.0,0.0,0.0,0.0,0.0,0.0,0.0,0.0,0.0,0.0,0.0,0.0,0.0,0.0,0.0,0.0,0.0,0.0,0.0,0.0,0.0,0.0,0.0,0.0,0.0,0.0,0.0,0.0,0.0,0.0,0.0,0.0,0.0,0.0,0.0,0.0,0.0,0.0,0.0,0.0,0.0,0.0,0.0,0.0,0.0,0.0,0.0,0.0,0.0,0.0,0.0,0.0,0.0,0.0,0.0,0.0,0.0,0.0,0.0,0.0,0.0,0.0,0.0,0.0,0.0,0.0,0.0,0.0,0.0,0.0,0.0,0.0,0.0,0.0,0.0,0.0,0.0,0.0,0.0,0.0,0.0,0.0,0.0,0.0,0.0,0.0,0.0,0.0,0.0,0.0,0.0,0.0,0.0,0.0,0.0,0.0,0.0,0.0,0.0,0.0,0.0,0.0,0.0,0.0,0.0,0.0,0.0,0.0,0.0,0.0,0.0,0.0,0.0,0.0,0.0,0.0,0.0,0.0,0.0,0.0,0.0,0.0,0.0,0.0,0.0,0.0,0.0,0.0,0.0,0.0,0.0,0.0,0.0,0.0,0.0,0.0,0.0,0.0,0.0,0.0,0.0,0.0,0.0,0.0,0.0,0.0,0.0,0.0,0.0,0.0,0.0,0.0,0.0,0.0,0.0,0.0,0.0,0.0,0.0,0.0,0.0,0.0,0.0,0.0,0.0,0.0,0.0,0.0,0.0,0.0,0.0,0.0,0.0,0.0,0.0,0.0,0.0,0.0,0.0,0.0,0.0,0.0,0.0,0.0,0.0,0.0,0.0,0.0,0.0,0.0,0.0,0.0,0.0,0.0,0.0,0.0,0.0,0.0,0.0,0.0,0.0,0.0,0.0,0.0,0.0,0.0,0.0,0.0,0.0,0.0,0.0,0.0,0.0,0.0,0.0,0.0,0.0,0.0,0.0,0.0,0.0,0.0,0.0,0.0,0.0,0.0,0.0,0.0,0.0,0.0,0.0,0.0,0.0,0.0,0.0,0.0,0.0,0.0,0.0,0.0,0.0,0.0,0.0,0.0,0.0,0.0,0.0,0.0,0.0,0.0,0.0,0.0,0.0,0.0,0.0,0.0,0.0,0.0,0.0,0.0,0.0,0.0,0.0,0.0,0.0,0.0,0.0,0.0,0.0,0.0,0.0,0.0,0.0,0.0,0.0,0.0,0.0,0.0,0.0,0.0,0.0,0.0,0.0,0.0,0.0,0.0,0.0,0.0,0.0,0.0,0.0,0.0,0.0,0.0,0.0,0.0,0.0,0.0,0.0,0.0,0.0,0.0,0.0,0.0,0.0,0.0,0.0,0.0,0.0,0.0,0.0,0.0,0.0,0.0,0.0,0.0,0.0,0.0,0.0,0.0,0.0,0.0,0.0,0.0,0.0,0.0,0.0,0.0,0.0,0.0,0.0,0.0,0.0,0.0,0.0,0.0,0.0,0.0,0.0,0.0,0.0,0.0,0.0,0.0,0.0,0.0,0.0,0.0,0.0,0.0,0.0,0.0,0.0,0.0,0.0,0.0,0.0,0.0,0.0,0.0,0.0,0.0,0.0,0.0,0.0,0.0,0.0,0.0,0.0,0.0,0.0,0.0,0.0,0.0,0.0,0.0,0.0,0.0,0.0,0.0,0.0,0.0,0.0,0.0,0.0,0.0,0.0,0.0,0.0,0.0,0.0,0.0,0.0,0.0,0.0,0.0,0.0,0.0,0.0,0.0,0.0,0.0,0.0,0.0,0.0,0.0,0.0,0.0,0.0,0.0,0.0,0.0,0.0,0.0,0.0,0.0,0.0,0.0,0.0,0.0,0.0,0.0,0.0,0.0,0.0,0.0,0.0,0.0,0.0,0.0,0.0,0.0,0.0,0.0,0.0,0.0,0.0,0.0,0.0,0.0,0.0,0.0,0.0,0.0,0.0,0.0,0.0,0.0,0.0,0.0,0.0,0.0,0.0,0.0,0.0,0.0,0.0,0.0,0.0,0.0,0.0,0.0,0.0,0.0,0.0,0.0,0.0,0.0,0.0,0.0,0.0,0.0,0.0,0.0,0.0,0.0,0.0,0.0,0.0,0.0,0.0,0.0,0.0,0.0,0.0,0.0,0.0,0.0,0.0,0.0,0.0,0.0,0.0,0.0,0.0,0.0,0.0,0.0,0.0,0.0,0.0,0.0,0.0,0.0,0.0,0.0,0.0,0.0,0.0,0.0,0.0,0.0,0.0,0.0,0.0,0.0,0.0,0.0,0.0,0.0,0.0,0.0,0.0,0.0,0.0,0.0,0.0,0.0,0.0,3.8691,0.0,0.0,0.0,0.0,0.0,0.0,0.0,0.0,0.0,0.0,0.0,0.0,0.0,0.0,0.0,0.0,0.0,0.0,0.0,0.0,0.0,0.0,0.0,0.0,0.0,0.0,0.0,0.0,0.0,0.0,0.0,0.0,0.0,0.0,0.0,0.0,0.0,0.0,0.0,0.0,0.0,0.0,0.0,0.0,0.0,0.0,0.0,0.0,0.0,0.0,0.0,0.0,0.0,0.0,0.0,0.0,0.0,0.0,0.0,0.0,0.0,0.0,0.0,0.0,0.0,0.0,0.0,0.0,0.0,0.0,0.0,0.0,0.0,0.0,0.0,0.0,0.0,0.0,0.0,0.0,0.0,0.0,0.0,0.0,0.0,0.0,0.0,0.0,0.0,0.0,0.0,0.0,0.0,0.0,0.0,0.0,0.0,0.0,0.0,0.0,0.0,0.0,0.0,0.0,0.0,0.0,0.0,0.0,0.0,0.0,3.8332,3.8368,3.8332,3.8332,3.8314,0.0,0.0,0.0,0.0,0.0,0.0,0.0,0.0,0.0,0.0,0.0,0.0,0.0,0.0,0.0,0.0,0.0,0.0,0.0,0.0,0.0,0.0,0.0,0.0,0.0,0.0,0.0,0.0,0.0,0.0,0.0,0.0,0.0,0.0,0.0,0.0,0.0,0.0,0.0,0.0,0.0,0.0,0.0,0.0,0.0,0.0,0.0,0.0,0.0,0.0,0.0,0.0,0.0,0.0,0.0,0.0,0.0,0.0,0.0,0.0,0.0,0.0,0.0,0.0,0.0,0.0,0.0,0.0,0.0,0.0,0.0,0.0,0.0,0.0,0.0,0.0,0.0,0.0,0.0,0.0,0.0,0.0,0.0,0.0,0.0,0.0,0.0,0.0,0.0,0.0,0.0,0.0,0.0,0.0,0.0,0.0,0.0,0.0,0.0,0.0,0.0,0.0,0.0,0.0,0.0,0.0,0.0,0.0,0.0,0.0,0.0,0.0,3.773,3.7837,3.8052,0.0,0.0,0.0,0.0,0.0,0.0,0.0,0.0,0.0,0.0,0.0,0.0,0.0,0.0,0.0,0.0,0.0,0.0,0.0,0.0,0.0,0.0,0.0,0.0,0.0,0.0,0.0,0.0,0.0,0.0,0.0,0.0,0.0,0.0,0.0,0.0,0.0,0.0,0.0,0.0,0.0,0.0,0.0,0.0,0.0,0.0,0.0,0.0,0.0,0.0,0.0,0.0,0.0,0.0,0.0,0.0,0.0,0.0,0.0,0.0,0.0,0.0,0.0,0.0,0.0,0.0,0.0,0.0,0.0,0.0,0.0,0.0,0.0,0.0,0.0,0.0,0.0,0.0,0.0,0.0,0.0,0.0,0.0,0.0,0.0,0.0,0.0,0.0,0.0,0.0,0.0,0.0,0.0,0.0,0.0,0.0,0.0,0.0,0.0,0.0,0.0,0.0,0.0,0.0,0.0,0.0,0.0,0.0,0.0,0.0,3.6559,3.6559,3.6559,0.0,3.7827,0.0,0.0,0.0,0.0,0.0,0.0,0.0,0.0,0.0,0.0,0.0,0.0,0.0,0.0,0.0,0.0,0.0,0.0,0.0,0.0,0.0,0.0,0.0,0.0,0.0,0.0,0.0,0.0,0.0,0.0,0.0,0.0,0.0,0.0,0.0,0.0,0.0,0.0,0.0,0.0,0.0,0.0,0.0,0.0,0.0,0.0,0.0,0.0,0.0,0.0,0.0,0.0,0.0,0.0,0.0,0.0,0.0,0.0,0.0,0.0,0.0,0.0,0.0,0.0,0.0,0.0,0.0,0.0,0.0,0.0,0.0,0.0,0.0,0.0,0.0,0.0,0.0,0.0,0.0,0.0,0.0,0.0,0.0,0.0,0.0,0.0,0.0,0.0,0.0,0.0,0.0,0.0,0.0,0.0,0.0,0.0,0.0,0.0,0.0,0.0,0.0,0.0,0.0,0.0,0.0,0.0,0.0,0.0,0.0,0.0,3.5313,3.5402,3.5881,3.638,0.0,0.0,0.0,0.0,0.0,0.0,0.0,0.0,0.0,0.0,0.0,0.0,0.0,0.0,0.0,0.0,0.0,0.0,0.0,0.0,0.0,0.0,0.0,0.0,0.0,0.0,0.0,0.0,0.0,0.0,0.0,0.0,0.0,0.0,0.0,0.0,0.0,0.0,0.0,0.0,0.0,0.0,0.0,0.0,0.0,0.0,0.0,0.0,0.0,0.0,0.0,0.0,0.0,0.0,0.0,0.0,0.0,0.0,0.0,0.0,0.0,0.0,0.0,0.0,0.0,0.0,0.0,0.0,0.0,0.0,0.0,0.0,0.0,0.0,0.0,0.0,0.0,0.0,0.0,0.0,0.0,0.0,0.0,0.0,0.0,0.0,0.0,0.0,0.0,0.0,0.0,0.0,0.0,0.0,0.0,0.0,0.0,0.0,0.0,0.0,0.0,0.0,0.0,0.0,0.0,0.0,0.0,0.0,0.0,0.0,3.4041,3.4098,3.4225,3.5037,3.5622,3.5927,0.0,0.0,0.0,0.0,0.0,0.0,0.0,0.0,0.0,0.0,0.0,0.0,0.0,0.0,0.0,0.0,0.0,0.0,0.0,0.0,0.0,0.0,0.0,0.0,0.0,0.0,0.0,0.0,0.0,0.0,0.0,0.0,0.0,0.0,0.0,0.0,0.0,0.0,0.0,0.0,0.0,0.0,0.0,0.0,0.0,0.0,0.0,0.0,0.0,0.0,0.0,0.0,0.0,0.0,0.0,0.0,0.0,0.0,0.0,0.0,0.0,0.0,0.0,0.0,0.0,0.0,0.0,0.0,0.0,0.0,0.0,0.0,0.0,0.0,0.0,0.0,0.0,0.0,0.0,0.0,0.0,0.0,0.0,0.0,0.0,0.0,0.0,0.0,0.0,0.0,0.0,0.0,0.0,0.0,0.0,0.0,0.0,0.0,0.0,0.0,0.0,0.0,0.0,0.0,0.0,0.0,0.0,0.0,3.2926,3.2969,3.2992,3.3061,3.3835,3.4679,0.0,0.0,0.0,0.0,0.0,0.0,0.0,0.0,0.0,0.0,0.0,0.0,0.0,0.0,0.0,0.0,0.0,0.0,0.0,0.0,0.0,0.0,0.0,0.0,0.0,0.0,0.0,0.0,0.0,0.0,0.0,0.0,0.0,0.0,0.0,0.0,0.0,0.0,0.0,0.0,0.0,0.0,0.0,0.0,0.0,0.0,0.0,0.0,0.0,0.0,0.0,0.0,0.0,0.0,0.0,0.0,0.0,0.0,0.0,0.0,0.0,0.0,0.0,0.0,0.0,0.0,0.0,0.0,0.0,0.0,0.0,0.0,0.0,0.0,0.0,0.0,0.0,0.0,0.0,0.0,0.0,0.0,0.0,0.0,0.0,0.0,0.0,0.0,0.0,0.0,0.0,0.0,0.0,0.0,0.0,0.0,0.0,0.0,0.0,0.0,0.0,0.0,0.0,0.0,0.0,0.0,0.0,0.0,0.0,3.3126,3.4024,3.4576,3.458,3.4582,3.4727,0.0,0.0,0.0,0.0,0.0,0.0,0.0,0.0,0.0,0.0,0.0,0.0,0.0,0.0,0.0,0.0,0.0,0.0,0.0,0.0,0.0,0.0,0.0,0.0,0.0,0.0,0.0,0.0,0.0,0.0,0.0,0.0,0.0,0.0,0.0,0.0,0.0,0.0,0.0,0.0,0.0,0.0,0.0,0.0,0.0,0.0,0.0,0.0,0.0,0.0,0.0,0.0,0.0,0.0,0.0,0.0,0.0,0.0,0.0,0.0,0.0,0.0,0.0,0.0,0.0,0.0,0.0,0.0,0.0,0.0,0.0,0.0,0.0,0.0,0.0,0.0,0.0,0.0,0.0,0.0,0.0,0.0,0.0,0.0,0.0,0.0,0.0,0.0,0.0,0.0,0.0,0.0,0.0,0.0,0.0,0.0,0.0,0.0,0.0,0.0,0.0,0.0,0.0,0.0,0.0,0.0,0.0,0.0,0.0,3.374,0.0,3.527,3.5253,3.5048,3.4825,0.0,0.0,0.0,0.0,0.0,0.0,0.0,0.0,0.0,0.0,0.0,0.0,0.0,0.0,0.0,0.0,0.0,0.0,0.0,0.0,0.0,0.0,0.0,0.0,0.0,0.0,0.0,0.0,0.0,0.0,0.0,0.0,0.0,0.0,0.0,0.0,0.0,0.0,0.0,0.0,0.0,0.0,0.0,0.0,0.0,0.0,0.0,0.0,0.0,0.0,0.0,0.0,0.0,0.0,0.0,0.0,0.0,0.0,0.0,0.0,0.0,0.0,0.0,0.0,0.0,0.0,0.0,0.0,0.0,0.0,0.0,0.0,0.0,0.0,0.0,0.0,0.0,0.0,0.0,0.0,0.0,0.0,0.0,0.0,0.0,0.0,0.0,0.0,0.0,0.0,0.0,0.0,0.0,0.0,0.0,0.0,0.0,0.0,0.0,0.0,0.0,0.0,0.0,0.0,0.0,0.0,0.0,0.0,3.3472,3.4761,3.4877,3.496,3.4844,3.5098,3.4871,0.0,0.0,0.0,0.0,0.0,0.0,0.0,0.0,0.0,0.0,0.0,0.0,0.0,0.0,0.0,0.0,0.0,0.0,0.0,0.0,0.0,0.0,0.0,0.0,0.0,0.0,0.0,0.0,0.0,0.0,0.0,0.0,0.0,0.0,0.0,0.0,0.0,0.0,0.0,0.0,0.0,0.0,0.0,0.0,0.0,0.0,0.0,0.0,0.0,0.0,0.0,0.0,0.0,0.0,0.0,0.0,0.0,0.0,0.0,0.0,0.0,0.0,0.0,0.0,0.0,0.0,0.0,0.0,0.0,0.0,0.0,0.0,0.0,0.0,0.0,0.0,0.0,0.0,0.0,0.0,0.0,0.0,0.0,0.0,0.0,0.0,0.0,0.0,0.0,0.0,0.0,0.0,0.0,0.0,0.0,0.0,0.0,0.0,0.0,0.0,0.0,0.0,0.0,0.0,0.0,0.0,0.0,0.0,0.0,3.6509,3.6509,3.6525,3.6509,3.5792,3.5539,0.0,0.0,0.0,0.0,0.0,0.0,0.0,0.0,0.0,0.0,0.0,0.0,0.0,0.0,0.0,0.0,0.0,0.0,0.0,0.0,0.0,0.0,0.0,0.0,0.0,0.0,0.0,0.0,0.0,0.0,0.0,0.0,0.0,0.0,0.0,0.0,0.0,0.0,0.0,0.0,0.0,0.0,0.0,0.0,0.0,0.0,0.0,0.0,0.0,0.0,0.0,0.0,0.0,0.0,0.0,0.0,0.0,0.0,0.0,0.0,0.0,0.0,0.0,0.0,0.0,0.0,0.0,0.0,0.0,0.0,0.0,0.0,0.0,0.0,0.0,0.0,0.0,0.0,0.0,0.0,0.0,0.0,0.0,0.0,0.0,0.0,0.0,0.0,0.0,0.0,0.0,0.0,0.0,0.0,0.0,0.0,0.0,0.0,0.0,0.0,0.0,0.0,0.0,0.0,0.0,0.0,0.0,0.0,0.0,3.6704,3.6858,3.6869,3.6651,3.6244,3.6003,3.5948,0.0,0.0,0.0,0.0,0.0,0.0,0.0,0.0,0.0,0.0,0.0,0.0,0.0,0.0,0.0,0.0,0.0,0.0,0.0,0.0,0.0,0.0,0.0,0.0,0.0,0.0,0.0,0.0,0.0,0.0,0.0,0.0,0.0,0.0,0.0,0.0,0.0,0.0,0.0,0.0,0.0,0.0,0.0,0.0,0.0,0.0,0.0,0.0,0.0,0.0,0.0,0.0,0.0,0.0,0.0,0.0,0.0,0.0,0.0,0.0,0.0,0.0,0.0,0.0,0.0,0.0,0.0,0.0,0.0,0.0,0.0,0.0,0.0,0.0,0.0,0.0,0.0,0.0,0.0,0.0,0.0,0.0,0.0,0.0,0.0,0.0,0.0,0.0,0.0,0.0,0.0,0.0,0.0,0.0,0.0,0.0,0.0,0.0,0.0,0.0,0.0,0.0,0.0,0.0,0.0,0.0,0.0,0.0,3.5627,3.6164,3.6181,3.5637,3.6394,3.6261,0.0,0.0,0.0,0.0,0.0,0.0,0.0,0.0,0.0,0.0,0.0,0.0,0.0,0.0,0.0,0.0,0.0,0.0,0.0,0.0,0.0,0.0,0.0,0.0,0.0,0.0,0.0,0.0,0.0,0.0,0.0,0.0,0.0,0.0,0.0,0.0,0.0,0.0,0.0,0.0,0.0,0.0,0.0,0.0,0.0,0.0,0.0,0.0,0.0,0.0,0.0,0.0,0.0,0.0,0.0,0.0,0.0,0.0,0.0,0.0,0.0,0.0,0.0,0.0,0.0,0.0,0.0,0.0,0.0,0.0,0.0,0.0,0.0,0.0,0.0,0.0,0.0,0.0,0.0,0.0,0.0,0.0,0.0,0.0,0.0,0.0,0.0,0.0,0.0,0.0,0.0,0.0,0.0,0.0,0.0,0.0,0.0,0.0,0.0,0.0,0.0,0.0,0.0,0.0,0.0,0.0,0.0,0.0,0.0,3.5872,3.6456,3.6399,3.5646,3.5976,3.6072,0.0,0.0,0.0,0.0,0.0,0.0,0.0,0.0,0.0,0.0,0.0,0.0,0.0,0.0,0.0,0.0,0.0,0.0,0.0,0.0,0.0,0.0,0.0,0.0,0.0,0.0,0.0,0.0,0.0,0.0,0.0,0.0,0.0,0.0,0.0,0.0,0.0,0.0,0.0,0.0,0.0,0.0,0.0,0.0,0.0,0.0,0.0,0.0,0.0,0.0,0.0,0.0,0.0,0.0,0.0,0.0,0.0,0.0,0.0,0.0,0.0,0.0,0.0,0.0,0.0,0.0,0.0,0.0,0.0,0.0,0.0,0.0,0.0,0.0,0.0,0.0,0.0,0.0,0.0,0.0,0.0,0.0,0.0,0.0,0.0,0.0,0.0,0.0,0.0,0.0,0.0,0.0,0.0,0.0,0.0,0.0,0.0,0.0,0.0,0.0,0.0,0.0,0.0,0.0,0.0,0.0,0.0,0.0,3.6148,3.663,3.6957,3.6857,3.6374,3.643,3.6414,0.0,0.0,0.0,0.0,0.0,0.0,0.0,0.0,0.0,0.0,0.0,0.0,0.0,0.0,0.0,0.0,0.0,0.0,0.0,0.0,0.0,0.0,0.0,0.0,0.0,0.0,0.0,0.0,0.0,0.0,0.0,0.0,0.0,0.0,0.0,0.0,0.0,0.0,0.0,0.0,0.0,0.0,0.0,0.0,0.0,0.0,0.0,0.0,0.0,0.0,0.0,0.0,0.0,0.0,0.0,0.0,0.0,0.0,0.0,0.0,0.0,0.0,0.0,0.0,0.0,0.0,0.0,0.0,0.0,0.0,0.0,0.0,0.0,0.0,0.0,0.0,0.0,0.0,0.0,0.0,0.0,0.0,0.0,0.0,0.0,0.0,0.0,0.0,0.0,0.0,0.0,0.0,0.0,0.0,0.0,0.0,0.0,0.0,0.0,0.0,0.0,0.0,0.0,0.0,0.0,0.0,0.0,0.0,3.6078,3.7805,3.7659,3.7555,3.7525,3.731,3.696,0.0,0.0,0.0,0.0,0.0,0.0,0.0,0.0,0.0,0.0,0.0,0.0,0.0,0.0,0.0,0.0,0.0,0.0,0.0,0.0,0.0,0.0,0.0,0.0,0.0,0.0,0.0,0.0,0.0,0.0,0.0,0.0,0.0,0.0,0.0,0.0,0.0,0.0,0.0,0.0,0.0,0.0,0.0,0.0,0.0,0.0,0.0,0.0,0.0,0.0,0.0,0.0,0.0,0.0,0.0,0.0,0.0,0.0,0.0,0.0,0.0,0.0,0.0,0.0,0.0,0.0,0.0,0.0,0.0,0.0,0.0,0.0,0.0,0.0,0.0,0.0,0.0,0.0,0.0,0.0,0.0,0.0,0.0,0.0,0.0,0.0,0.0,0.0,0.0,0.0,0.0,0.0,0.0,0.0,0.0,0.0,0.0,0.0,0.0,0.0,0.0,0.0,0.0,0.0,0.0,0.0,0.0,0.0,3.6495,3.8707,3.8602,3.8493,3.8493,3.758,3.6484,0.0,0.0,0.0,0.0,0.0,0.0,0.0,0.0,0.0,0.0,0.0,0.0,0.0,0.0,0.0,0.0,0.0,0.0,0.0,0.0,0.0,0.0,0.0,0.0,0.0,0.0,0.0,0.0,0.0,0.0,0.0,0.0,0.0,0.0,0.0,0.0,0.0,0.0,0.0,0.0,0.0,0.0,0.0,0.0,0.0,0.0,0.0,0.0,4.0603,0.0,0.0,0.0,0.0,0.0,0.0,0.0,0.0,0.0,0.0,0.0,0.0,0.0,0.0,0.0,0.0,0.0,0.0,0.0,0.0,0.0,0.0,0.0,0.0,0.0,0.0,0.0,0.0,0.0,0.0,0.0,0.0,0.0,0.0,0.0,0.0,0.0,0.0,0.0,0.0,0.0,0.0,0.0,0.0,0.0,0.0,0.0,0.0,0.0,0.0,0.0,0.0,0.0,0.0,0.0,0.0,0.0,0.0,0.0,3.7134,3.876,3.8612,3.8501,3.836,3.7696,3.6726,0.0,0.0,0.0,0.0,0.0,0.0,0.0,0.0,0.0,0.0,0.0,0.0,0.0,0.0,0.0,0.0,0.0,0.0,0.0,0.0,0.0,0.0,0.0,0.0,0.0,0.0,0.0,0.0,0.0,0.0,0.0,0.0,0.0,0.0,0.0,0.0,0.0,0.0,0.0,0.0,0.0,0.0,0.0,0.0,0.0,0.0,0.0,0.0,0.0,0.0,0.0,0.0,0.0,0.0,0.0,0.0,0.0,0.0,0.0,0.0,0.0,0.0,0.0,0.0,0.0,0.0,0.0,0.0,0.0,0.0,0.0,0.0,0.0,0.0,0.0,0.0,0.0,0.0,0.0,0.0,0.0,0.0,0.0,0.0,0.0,0.0,0.0,0.0,0.0,0.0,0.0,0.0,0.0,0.0,0.0,0.0,0.0,0.0,0.0,0.0,0.0,0.0,0.0,0.0,0.0,0.0,0.0,3.6943,3.7621,3.842,3.824,3.8,3.7825,3.7634,3.7002,3.5863,0.0,0.0,0.0,0.0,0.0,0.0,0.0,0.0,0.0,0.0,0.0,0.0,0.0,0.0,0.0,0.0,0.0,0.0,0.0,0.0,0.0,0.0,0.0,0.0,0.0,0.0,0.0,0.0,0.0,0.0,0.0,0.0,0.0,0.0,0.0,0.0,0.0,0.0,3.8754,3.9953,0.0,0.0,0.0,0.0,0.0,0.0,0.0,0.0,4.2629,0.0,0.0,0.0,0.0,0.0,0.0,0.0,0.0,0.0,0.0,0.0,0.0,0.0,0.0,0.0,0.0,0.0,0.0,0.0,0.0,0.0,0.0,0.0,0.0,0.0,0.0,0.0,0.0,0.0,0.0,0.0,0.0,0.0,0.0,0.0,0.0,0.0,0.0,0.0,0.0,0.0,0.0,0.0,0.0,0.0,0.0,0.0,0.0,0.0,0.0,0.0,0.0,0.0,0.0,0.0,0.0,3.5741,3.6178,3.6983,3.8211,3.7863,3.761,3.7404,3.738,3.6282,3.4176,0.0,0.0,0.0,0.0,0.0,0.0,0.0,0.0,0.0,0.0,0.0,0.0,0.0,0.0,0.0,0.0,0.0,0.0,0.0,0.0,0.0,0.0,0.0,0.0,0.0,0.0,0.0,0.0,0.0,0.0,0.0,0.0,0.0,0.0,0.0,0.0,0.0,0.0,0.0,4.0233,4.0388,0.0,0.0,0.0,0.0,0.0,0.0,0.0,0.0,4.1841,0.0,0.0,0.0,0.0,0.0,0.0,0.0,0.0,0.0,0.0,0.0,0.0,0.0,0.0,0.0,0.0,0.0,0.0,0.0,0.0,0.0,0.0,0.0,0.0,0.0,0.0,0.0,0.0,0.0,0.0,0.0,0.0,0.0,0.0,0.0,0.0,0.0,0.0,0.0,0.0,0.0,0.0,0.0,0.0,0.0,0.0,0.0,0.0,0.0,0.0,0.0,0.0,0.0,0.0,0.0,3.5549,3.6726,3.7556,3.7848,3.7495,3.7201,3.7007,3.6889,3.5637,0.0,0.0,0.0,0.0,0.0,0.0,0.0,0.0,0.0,0.0,0.0,0.0,0.0,0.0,0.0,0.0,0.0,0.0,0.0,0.0,0.0,0.0,0.0,0.0,0.0,0.0,0.0,0.0,0.0,0.0,0.0,0.0,0.0,0.0,0.0,0.0,0.0,0.0,0.0,0.0,4.1168,4.1555,4.2091,0.0,0.0,0.0,0.0,0.0,0.0,4.256,4.2613,0.0,0.0,0.0,0.0,0.0,0.0,0.0,0.0,0.0,0.0,0.0,0.0,0.0,0.0,0.0,0.0,0.0,0.0,0.0,0.0,0.0,0.0,0.0,0.0,0.0,0.0,0.0,0.0,0.0,0.0,0.0,0.0,0.0,0.0,0.0,0.0,0.0,0.0,0.0,0.0,0.0,0.0,0.0,0.0,0.0,0.0,0.0,0.0,0.0,0.0,0.0,0.0,0.0,0.0,0.0,3.5806,3.746,3.8142,3.761,3.7162,3.685,3.6628,3.6431,3.5168,0.0,0.0,0.0,0.0,0.0,0.0,0.0,0.0,0.0,0.0,0.0,0.0,0.0,0.0,0.0,0.0,0.0,0.0,0.0,0.0,0.0,0.0,0.0,0.0,0.0,0.0,0.0,0.0,0.0,0.0,0.0,0.0,0.0,0.0,0.0,0.0,0.0,0.0,0.0,0.0,0.0,4.28,4.2833,4.3553,0.0,0.0,0.0,0.0,4.2943,4.3235,0.0,0.0,0.0,0.0,0.0,0.0,0.0,0.0,0.0,0.0,0.0,0.0,0.0,0.0,0.0,0.0,0.0,0.0,0.0,0.0,0.0,0.0,0.0,0.0,0.0,0.0,0.0,0.0,0.0,0.0,0.0,0.0,0.0,0.0,0.0,0.0,0.0,0.0,0.0,0.0,0.0,0.0,0.0,0.0,0.0,0.0,0.0,0.0,0.0,0.0,0.0,0.0,0.0,0.0,0.0,0.0,3.7152,3.7697,3.7863,3.7586,3.7046,3.6628,3.6445,3.6232,3.4988,0.0,0.0,0.0,0.0,0.0,0.0,0.0,0.0,0.0,0.0,0.0,0.0,0.0,0.0,0.0,0.0,0.0,0.0,0.0,0.0,0.0,0.0,0.0,0.0,0.0,0.0,0.0,0.0,0.0,0.0,0.0,0.0,0.0,0.0,0.0,0.0,0.0,0.0,0.0,0.0,0.0,4.2757,4.3776,4.3689,4.3325,0.0,0.0,4.2585,4.227,4.2665,0.0,0.0,0.0,0.0,0.0,0.0,0.0,0.0,0.0,0.0,0.0,0.0,0.0,0.0,0.0,0.0,0.0,0.0,0.0,0.0,0.0,0.0,0.0,0.0,0.0,0.0,0.0,0.0,0.0,0.0,0.0,0.0,0.0,0.0,0.0,0.0,0.0,0.0,0.0,0.0,0.0,0.0,0.0,0.0,0.0,0.0,0.0,0.0,0.0,0.0,0.0,0.0,0.0,0.0,0.0,3.6522,3.6813,3.7517,3.7403,3.6553,3.5953,3.5548,3.5383,3.502,3.4197,0.0,0.0,0.0,0.0,0.0,0.0,0.0,0.0,0.0,0.0,0.0,0.0,0.0,0.0,0.0,0.0,0.0,0.0,0.0,0.0,0.0,0.0,0.0,0.0,0.0,0.0,0.0,0.0,0.0,0.0,0.0,0.0,0.0,0.0,0.0,0.0,0.0,0.0,0.0,0.0,0.0,0.0,4.3647,4.3372,0.0,0.0,0.0,4.2158,4.1704,0.0,0.0,0.0,0.0,0.0,0.0,0.0,0.0,0.0,0.0,0.0,0.0,0.0,0.0,0.0,0.0,0.0,0.0,0.0,0.0,0.0,0.0,0.0,0.0,0.0,0.0,0.0,0.0,0.0,0.0,0.0,0.0,0.0,0.0,0.0,0.0,0.0,0.0,0.0,0.0,0.0,0.0,0.0,0.0,0.0,0.0,0.0,0.0,0.0,0.0,0.0,0.0,0.0,0.0,0.0,0.0,0.0,3.6978,3.7336,3.6981,3.5812,3.5175,3.4807,3.4596,3.4189,0.0,0.0,0.0,0.0,0.0,0.0,0.0,0.0,0.0,0.0,0.0,0.0,0.0,0.0,0.0,0.0,0.0,0.0,0.0,0.0,0.0,0.0,0.0,0.0,0.0,0.0,0.0,3.9083,0.0,0.0,0.0,0.0,0.0,0.0,0.0,0.0,0.0,0.0,0.0,0.0,0.0,0.0,4.3776,4.3281,4.2945,4.2587,0.0,0.0,4.1818,4.139,4.172,4.2045,0.0,0.0,0.0,0.0,0.0,0.0,0.0,0.0,0.0,0.0,0.0,0.0,0.0,0.0,0.0,0.0,0.0,0.0,0.0,0.0,0.0,0.0,0.0,0.0,0.0,0.0,0.0,0.0,0.0,0.0,0.0,0.0,0.0,0.0,0.0,0.0,0.0,0.0,0.0,0.0,0.0,0.0,0.0,0.0,0.0,0.0,0.0,0.0,0.0,0.0,0.0,0.0,0.0,0.0,0.0,3.8411,3.7436,3.6564,3.6,3.5396,3.4943,3.4596,3.4355,3.3851,0.0,0.0,0.0,0.0,0.0,0.0,0.0,0.0,0.0,0.0,0.0,0.0,0.0,0.0,0.0,0.0,0.0,0.0,0.0,0.0,0.0,0.0,0.0,0.0,0.0,0.0,0.0,0.0,0.0,0.0,0.0,0.0,0.0,0.0,0.0,0.0,0.0,0.0,0.0,0.0,0.0,4.3402,4.2759,4.2539,4.2254,0.0,0.0,4.1555,4.1323,4.1637,4.1898,4.1898,0.0,0.0,0.0,0.0,0.0,0.0,0.0,0.0,0.0,0.0,0.0,0.0,0.0,0.0,0.0,0.0,0.0,0.0,0.0,0.0,0.0,0.0,0.0,0.0,0.0,0.0,0.0,0.0,0.0,0.0,0.0,0.0,0.0,0.0,0.0,0.0,0.0,0.0,0.0,0.0,0.0,0.0,0.0,0.0,0.0,0.0,0.0,0.0,0.0,0.0,0.0,0.0,0.0,3.6182,3.7454,3.6907,3.6104,3.505,3.4476,3.4078,3.379,3.3458,3.3257,0.0,0.0,0.0,0.0,0.0,0.0,0.0,0.0,0.0,0.0,0.0,0.0,0.0,0.0,0.0,0.0,0.0,0.0,0.0,0.0,0.0,0.0,0.0,0.0,0.0,0.0,0.0,0.0,4.0845,4.1608,4.1665,0.0,0.0,0.0,0.0,0.0,0.0,0.0,0.0,0.0,0.0,4.3113,4.2665,4.2381,0.0,0.0,4.1588,4.1347,4.069,4.0744,4.0749,4.0356,4.0214,0.0,0.0,0.0,0.0,0.0,0.0,0.0,0.0,0.0,0.0,0.0,0.0,0.0,0.0,0.0,0.0,0.0,0.0,0.0,0.0,0.0,0.0,0.0,0.0,0.0,0.0,0.0,0.0,0.0,0.0,0.0,0.0,0.0,0.0,0.0,0.0,0.0,0.0,0.0,0.0,0.0,0.0,0.0,0.0,0.0,0.0,0.0,0.0,0.0,0.0,0.0,0.0,3.6369,3.6831,3.6453,3.5692,3.4515,3.4088,3.366,3.3312,3.3016,3.303,0.0,0.0,0.0,0.0,0.0,0.0,0.0,0.0,0.0,0.0,0.0,0.0,0.0,0.0,0.0,0.0,0.0,0.0,0.0,0.0,0.0,0.0,0.0,0.0,0.0,0.0,0.0,0.0,4.1396,4.2601,4.3339,0.0,0.0,0.0,0.0,0.0,0.0,0.0,0.0,0.0,0.0,4.3005,4.2602,4.2286,4.1917,4.1385,4.1288,4.0986,4.0065,3.9989,3.988,3.9424,0.0,0.0,0.0,0.0,0.0,0.0,0.0,0.0,0.0,0.0,0.0,0.0,0.0,0.0,0.0,0.0,0.0,0.0,0.0,0.0,0.0,0.0,0.0,0.0,0.0,0.0,0.0,0.0,0.0,0.0,3.7778,0.0,0.0,0.0,0.0,0.0,0.0,0.0,0.0,0.0,0.0,0.0,0.0,0.0,0.0,0.0,0.0,0.0,0.0,0.0,0.0,0.0,0.0,3.7141,3.7174,3.6243,3.5409,3.4731,3.4481,3.404,3.3347,3.3276,3.3393,3.3592,0.0,0.0,0.0,0.0,0.0,0.0,0.0,0.0,0.0,0.0,0.0,0.0,0.0,0.0,0.0,0.0,0.0,0.0,0.0,0.0,0.0,0.0,0.0,0.0,0.0,0.0,4.0274,4.2345,4.4318,0.0,0.0,0.0,0.0,0.0,0.0,0.0,0.0,0.0,0.0,4.3565,4.3143,4.2492,4.2222,4.1709,4.0736,4.0625,4.0372,3.9613,3.9487,3.9503,0.0,0.0,0.0,0.0,0.0,0.0,0.0,0.0,0.0,0.0,0.0,0.0,0.0,0.0,0.0,0.0,0.0,0.0,0.0,0.0,0.0,0.0,0.0,0.0,0.0,0.0,0.0,3.8872,3.9155,0.0,0.0,0.0,0.0,0.0,0.0,0.0,0.0,0.0,0.0,0.0,4.0704,3.9513,0.0,0.0,0.0,0.0,0.0,0.0,0.0,0.0,0.0,0.0,0.0,0.0,3.6743,3.6816,3.6238,3.5686,3.5243,3.4683,3.4293,3.4054,3.3813,3.3853,3.4175,0.0,0.0,0.0,0.0,0.0,0.0,0.0,0.0,0.0,0.0,0.0,0.0,0.0,0.0,0.0,0.0,0.0,0.0,0.0,0.0,0.0,0.0,0.0,0.0,0.0,4.1666,0.0,0.0,0.0,0.0,0.0,0.0,0.0,0.0,0.0,0.0,0.0,4.4276,4.4145,4.373,4.3026,4.2033,4.161,4.1071,0.0,0.0,0.0,0.0,0.0,0.0,0.0,0.0,0.0,0.0,0.0,0.0,0.0,0.0,4.1165,4.0496,4.0333,4.0347,4.0391,0.0,0.0,0.0,0.0,0.0,0.0,0.0,0.0,0.0,0.0,0.0,0.0,0.0,0.0,3.9739,0.0,3.9972,0.0,0.0,0.0,0.0,0.0,0.0,0.0,0.0,4.1257,4.1299,4.1655,4.0468,4.0026,0.0,3.9369,3.9733,0.0,0.0,0.0,0.0,0.0,0.0,0.0,0.0,3.7168,3.6846,3.6414,3.5973,3.5572,3.5049,3.4698,3.4515,3.4225,3.4321,3.4747,3.4396,3.4548,0.0,0.0,0.0,0.0,0.0,0.0,0.0,0.0,0.0,0.0,0.0,0.0,0.0,0.0,0.0,0.0,0.0,0.0,0.0,0.0,0.0,0.0,0.0,4.1927,0.0,0.0,0.0,0.0,0.0,0.0,0.0,0.0,0.0,4.4638,4.4573,4.4412,4.3962,4.326,4.2404,4.1409,0.0,0.0,0.0,0.0,0.0,0.0,0.0,3.7881,3.7438,3.7768,3.8444,3.95,4.0753,4.1773,4.2206,0.0,0.0,4.1159,4.1028,4.1042,4.1042,4.1058,4.1042,4.1058,4.1042,4.1076,0.0,0.0,0.0,0.0,0.0,0.0,0.0,0.0,4.0118,4.0292,0.0,4.0567,0.0,0.0,0.0,0.0,0.0,4.1152,0.0,0.0,4.2396,4.2499,4.2578,4.1844,4.1861,4.2379,4.1614,4.1596,4.2016,3.9135,0.0,0.0,0.0,0.0,0.0,0.0,3.8398,3.724,3.6754,3.6258,3.5752,3.5572,3.5276,3.475,3.4549,3.4724,3.5236,3.5294,3.5516,3.5893,3.6022,0.0,0.0,0.0,0.0,0.0,0.0,0.0,0.0,0.0,0.0,0.0,0.0,0.0,0.0,0.0,0.0,0.0,0.0,0.0,0.0,4.07,0.0,0.0,0.0,0.0,0.0,0.0,0.0,0.0,0.0,0.0,4.5209,4.4561,4.3843,4.3259,0.0,0.0,0.0,0.0,3.9831,3.8826,3.8551,3.8254,3.7621,3.751,3.7569,3.7687,0.0,0.0,3.9774,4.059,4.1309,4.1949,4.2205,4.2381,4.2364,4.2189,4.2078,4.2078,4.2029,4.2077,4.2126,4.1965,4.1821,4.128,0.0,0.0,0.0,0.0,4.1165,4.1373,4.1677,4.1645,4.1756,4.1964,4.2192,0.0,0.0,0.0,0.0,0.0,0.0,4.1921,4.256,4.1655,4.1475,4.1878,4.1151,4.0905,4.105,4.0863,4.0863,4.0966,3.9992,3.9902,4.0651,0.0,0.0,0.0,0.0,3.8271,3.7727,3.7238,3.6769,3.6274,3.6005,3.5653,3.5219,3.5154,3.5177,3.537,3.5829,3.625,3.6586,3.6343,0.0,0.0,0.0,0.0,0.0,0.0,0.0,0.0,0.0,0.0,0.0,0.0,0.0,0.0,0.0,0.0,0.0,0.0,0.0,4.0678,4.115,4.1763,0.0,0.0,0.0,0.0,0.0,0.0,0.0,0.0,0.0,4.4182,4.3721,4.3254,0.0,0.0,4.1333,4.0263,3.9836,3.9256,3.8259,3.8091,0.0,3.782,3.7788,3.7788,3.7847,3.8262,3.9019,4.0174,4.0526,4.0827,4.1249,4.1745,4.2115,4.2118,4.2309,4.2428,4.246,4.246,4.246,4.246,4.2089,4.1654,4.1785,4.1785,4.1736,4.1817,4.198,4.2045,4.2141,4.2238,4.2492,4.2634,4.2711,4.2818,4.2769,4.2584,4.2494,0.0,0.0,0.0,4.145,4.1876,4.106,4.0913,4.1266,4.0878,4.0631,4.06,4.0583,4.0558,4.051,4.0478,4.0772,4.1338,0.0,0.0,3.9885,3.9062,3.846,3.8103,3.7682,3.7238,3.6769,3.6383,3.61,3.5847,3.5847,3.5832,3.5832,3.6241,3.6687,3.7174,3.7029,3.7126,0.0,0.0,0.0,0.0,0.0,0.0,0.0,0.0,0.0,0.0,0.0,3.8439,3.8641,0.0,0.0,0.0,4.0246,4.0394,4.1214,4.1386,0.0,0.0,0.0,0.0,0.0,0.0,0.0,4.3957,4.3641,4.3442,4.3331,4.281,4.241,4.2355,4.1645,4.0772,3.9842,0.0,3.8987,3.8298,3.8135,3.8107,3.8107,3.8107,3.8135,3.8177,3.8572,3.9208,4.0079,4.0284,4.044,4.0983,4.1402,4.1694,4.1753,4.1953,4.2181,4.2317,4.2124,4.1977,4.1961,4.1634,4.1246,4.2109,4.2126,4.2028,4.2029,4.2142,4.2349,4.2445,4.2508,4.2837,4.3054,4.3139,4.2745,4.2739,4.3019,4.1997,0.0,4.0517,4.0534,4.06,4.0714,4.0738,4.0793,4.0894,4.0894,4.084,4.0721,4.0721,4.0648,4.0558,4.0648,4.0576,4.033,4.0079,3.9746,3.9335,3.9148,3.8849,3.8448,3.8116,3.774,3.7238,3.68,3.6585,3.6569,3.6569,3.6585,3.6585,3.6585,3.6925,3.767,3.7873,3.7854,3.7589,0.0,0.0,0.0,0.0,0.0,0.0,0.0,0.0,0.0,0.0,0.0,0.0,0.0,0.0,0.0,4.1133,0.0,4.1403,4.1538,0.0,0.0,0.0,4.2786,4.275,4.34,4.3804,4.3752,0.0,0.0,4.2687,4.1925,4.1487,4.1729,4.0855,3.9995,3.9523,3.9255,3.8969,3.8722,3.8544,3.8476,3.8504,3.8504,3.8516,3.8639,3.8733,3.9111,3.9729,3.9877,4.0212,4.0864,4.1139,4.1217,4.1331,4.1409,4.1472,4.188,4.1455,4.1065,4.1114,4.1033,4.0754,4.2381,4.2508,4.2619,4.2587,4.2508,4.2696,4.2914,4.3176,4.3342,4.3598,4.3844,4.3378,4.274,4.1954,4.1119,4.073,4.0648,4.0648,4.0721,4.0864,4.0847,4.0864,4.0894,4.0894,4.0888,4.0864,4.0847,4.084,4.0817,4.0745,4.0673,4.06,4.0436,4.0163,3.9755,3.9405,3.9121,3.8876,3.8583,3.8201,3.7725,3.7387,3.7163,3.7178,3.7194,3.7194,3.7194,3.7194,3.7347,3.7686,3.7731,3.8068,3.8731,3.8586,0.0,0.0,0.0,0.0,0.0,0.0,0.0,0.0,0.0,3.9407,3.9466,0.0,4.0755,0.0,4.1069,4.1398,4.1538,4.167,0.0,0.0,4.2573,4.282,4.2255,4.2749,4.2934,4.2375,4.2057,4.1903,4.1885,4.1598,4.141,4.1487,4.0968,4.0412,3.9995,3.9713,3.9451,3.9232,3.9115,3.9017,3.9034,3.9007,3.9034,3.9044,3.9098,3.9235,3.9557,3.9591,3.9711,4.0054,4.0618,4.1017,4.1094,4.1157,4.1271,4.1366,4.1328,4.1288,4.1316,4.0871,4.042,4.2883,4.2976,4.3221,4.3281,4.3265,4.3221,4.3419,4.3717,4.3848,4.408,4.439,4.362,4.2569,4.1363,4.0972,4.0853,4.0918,4.0942,4.0948,4.1018,4.1041,4.1018,4.1041,4.1041,4.1035,4.1041,4.1041,4.1041,4.1018,4.0948,4.0894,4.0793,4.0704,4.051,4.0163,3.9816,3.952,3.9245,3.8914,3.8623,3.8315,3.8059,3.7886,3.7725,3.7815,3.7815,3.7695,3.7799,3.7902,3.7992,3.8062,3.8382,3.8999,3.9109,3.9177,0.0,0.0,0.0,0.0,0.0,0.0,0.0,0.0,0.0,0.0,0.0,4.083,4.0894,4.1249,4.156,4.1771,4.1858,4.1923,4.1984,4.2359,4.2448,4.2041,4.2294,4.2321,4.1937,4.1819,4.1776,4.1776,4.171,4.1644,4.1582,4.1358,4.0995,4.05,4.0204,3.9995,3.9841,3.9696,3.9592,3.9575,3.9601,3.9601,3.9618,3.9601,3.9661,3.9755,3.9772,3.9824,3.9969,4.0366,4.0713,4.0832,4.0934,4.0992,4.1069,4.1121,4.1079,4.0873,4.0511,4.021,4.3492,4.3522,4.3772,4.4023,4.4212,4.3906,4.3952,4.4184,4.4338,4.449,4.4521,4.3486,4.2313,4.1157,4.118,4.1232,4.1272,4.1255,4.1255,4.1255,4.1255,4.1255,4.1255,4.1255,4.1255,4.1255,4.1255,4.1255,4.1255,4.1232,4.1134,4.0965,4.0959,4.0823,4.0583,4.0345,3.9986,3.9563,3.9255,3.905,3.8914,3.8777,3.8567,3.8286,3.8415,3.8432,3.8258,3.8432,3.8488,3.8504,3.8639,3.8761,3.8914,3.966,3.9972,0.0,4.0326,0.0,0.0,0.0,0.0,0.0,0.0,0.0,0.0,4.0519,4.0717,4.1391,4.1582,4.1754,4.1987,4.2009,4.2048,4.2069,4.2069,4.209,4.2072,4.2051,4.2051,4.2069,4.203,4.203,4.203,4.2048,4.1987,4.1888,4.1845,4.1613,4.1123,4.0789,4.0541,4.0436,4.0271,4.0213,4.0196,4.0196,4.0196,4.0196,4.0196,4.0196,4.0196,4.0196,4.0246,4.0337,4.0438,4.0536,4.0721,4.0803,4.0858,4.097,4.1022,4.0896,4.044,4.0315,4.0146,4.3981,4.401,4.4265,4.4547,4.4814,4.4742,4.4703,4.4665,4.4831,4.4401,4.3552,4.2833,4.2073,4.137,4.1358,4.1408,4.1515,4.1538,4.1538,4.1538,4.152,4.152,4.1538,4.152,4.1538,4.1538,4.152,4.1538,4.152,4.1426,4.1358,4.1312,4.1203,4.1105,4.1,0.0,0.0,0.0,3.9772,3.9661,3.953,3.9329,3.9169,3.899,3.9017,0.0,3.899,3.9017,3.9061,3.9044,3.9152,0.0,0.0,0.0,0.0,0.0,0.0,0.0,0.0,0.0,0.0,0.0,4.017,4.0196,4.0375,4.0858,4.1346,4.1692,4.1841,4.1948,4.2061,4.2184,4.2284,4.2402,4.2447,4.249,4.249,4.2371,4.2331,4.231,4.2287,4.2246,4.2264,4.2243,4.2225,4.2225,4.2205,4.2163,4.204,4.1463,4.1071,4.1024,4.0853,4.0752,4.0769,4.0752,4.0752,4.0752,4.0752,4.0752,4.0752,4.0752,4.0752,4.0776,4.0881,4.0953,4.1023,4.1169,4.1267,4.1312,4.138,4.1318,4.0847,4.0752,4.0721,4.4536,0.0,4.4852,4.5079,0.0,4.5363,4.5389,4.5389,4.531,4.4647,4.3561,4.2917,4.2296,4.171,4.1736,4.1784,4.1849,4.1913,4.1952,4.1934,4.1952,4.1952,4.1952,4.1952,4.1931,4.1866,4.1849,4.1823,4.1797,4.1732,4.1648,4.1604,4.1538,4.1448,4.1353,4.1353,4.1035,4.0412,4.0387,4.0296,4.0154,4.0028,3.9833,3.9594,3.9627,0.0,0.0,0.0,0.0,0.0,0.0,0.0,0.0,0.0,0.0,4.0673,4.0728,4.0782,4.0836,4.0819,4.0819,4.0802,4.0949,4.0972,4.0877,4.13,4.1719,4.2016,4.2097,4.2202,4.2348,4.2409,4.247,4.2528,4.2647,4.2706,4.2688,4.267,4.2652,4.2632,4.2631,4.2591,4.2591,4.2591,4.2591,4.2591,4.2593,4.2611,4.2532,4.1984,4.1525,4.1408,4.1318,4.1244,4.1244,4.1244,4.1244,4.1244,4.1244,4.1244,4.1244,4.1244,4.1244,4.1244,4.1307,4.1353,4.1443,4.1533,4.1626,4.1736,4.1823,4.1805,4.1587,4.1363,4.1105,4.5123,4.515,4.5441,4.5624,4.576,4.5887,4.6038,4.6144,0.0,0.0,0.0,4.3142,4.2515,4.2072,4.2142,4.2166,4.2207,4.2308,4.2348,4.2348,4.2331,4.2348,4.2331,4.2348,4.229,4.2187,4.2169,4.2163,4.2094,4.2072,4.2012,4.1909,4.187,4.1845,4.1736,4.1736,4.1538,4.1175,4.1076,4.0924,4.0748,4.0693,4.0524,4.0228,4.0279,4.0246,4.0121,4.0246,4.0345,4.0461,4.0485,4.0566,4.0724,4.0772,4.0884,4.1146,4.1249,4.1323,4.1323,4.1458,4.1503,4.1413,4.1683,4.1753,4.1507,4.1723,4.1998,4.229,4.2348,4.243,4.2609,4.2649,4.2668,4.2688,4.2803,4.2861,4.288,4.2938,4.2976,4.2995,4.2995,4.2995,4.2957,4.2995,4.2995,4.2976,4.2976,4.3013,4.2901,4.2416,4.1959,4.1805,4.174,4.1736,4.1736,4.1736,4.1714,4.1736,4.1719,4.1719,4.1736,4.1714,4.1714,4.1719,4.1736,4.178,4.1866,4.1909,4.1956,4.2145,4.2207,4.2249,4.231,4.1998,4.1569,4.5684,4.5709,4.5988,4.6161,4.6308,4.6429,4.6637,4.6717,4.511,4.438,4.4254,4.2946,4.2374,4.2351,4.2371,4.2412,4.2512,4.2532,4.255,4.257,4.2552,4.255,4.2532,4.255,4.255,4.255,4.2512,4.253,4.251,4.2391,4.2331,4.231,4.2249,4.2225,4.2205,4.2187,4.2163,4.2082,4.1697,4.1431,4.13,4.1277,4.1209,4.1036,4.1047,4.1047,4.1024,4.103,4.1047,4.1071,4.1186,4.1277,4.1283,4.1391,4.1493,4.1538,4.1648,4.174,4.1827,4.1917,4.204,4.2145,4.2351,4.2292,4.1874,4.2127,4.2313,4.2374,4.2492,4.2609,4.2764,4.2824,4.29,4.3012,4.3087,4.316,4.3214,4.325,4.3303,4.3374,4.341,4.3375,4.3286,4.3339,4.3375,4.3303,4.3339,4.3392,4.3232,4.2825,4.2474,4.2315,4.2231,4.2225,4.2205,4.2187,4.2205,4.2205,4.2187,4.2187,4.2205,4.2205,4.2205,4.2205,4.2187,4.2207,4.2246,4.2269,4.2371,4.2512,4.2609,4.2707,4.2787,4.2591,4.229,4.6235,4.6259,4.6518,4.6678,4.6731,4.6898,4.712,4.7216,4.559,4.4785,4.4535,4.3192,4.2591,4.2689,4.2746,4.2804,4.2879,4.2918,4.2919,4.2937,4.2937,4.2919,4.2919,4.2919,4.2918,4.2861,4.2879,4.2823,4.2767,4.2709,4.2671,4.2671,4.265,4.2649,4.2631,4.2631,4.2613,4.2611,4.2207,4.1956,4.1874,4.1809,4.1744,4.1679,4.1618,4.1578,4.1578,4.1578,4.1618,4.1661,4.1727,4.1809,4.1874,4.1956,4.1995,4.1977,4.2061,4.2166,4.2251,4.2434,4.2554,4.2613,4.2805,4.2825,4.2632,4.2634,4.2691,4.2765,4.2841,4.2899,4.303,4.3069,4.3142,4.3196,4.3339,4.3426,4.346,4.3563,4.3649,4.3718,4.3767,4.3714,4.3631,4.3716,4.3732,4.3647,4.3697,4.373,4.3697,4.3478,4.3142,4.2807,4.271,4.2652,4.2613,4.2613,4.2631,4.2631,4.2613,4.2613,4.2631,4.2631,4.2613,4.2613,4.2613,4.2631,4.2631,4.2671,4.2768,4.29,4.2994,4.3087,4.316,4.3068,4.2747,4.6754,4.6778,4.7048,4.7183,4.7249,4.7389,4.7618,4.7681,4.618,4.5375,4.4959,4.3587,4.2938,4.305,4.316,4.3178,4.3196,4.3251,4.325,4.3268,4.325,4.3268,4.3268,4.3286,4.3251,4.3215,4.3196,4.3123,4.305,4.305,4.3032,4.3032,4.3032,4.3032,4.3032,4.305,4.3032,4.3031,4.271,4.2532,4.245,4.2331,4.229,4.2272,4.2172,4.2133,4.213,4.2113,4.2172,4.2272,4.229,4.2331,4.2412,4.245,4.2432,4.2432,4.2492,4.2591,4.2728,4.2882,4.2995,4.3032,4.3214,4.3303,4.3304,4.3214,4.316,4.3178,4.3178,4.3196,4.3286,4.3356,4.3408,4.3443,4.3579,4.3679,4.3712,4.386,4.3992,4.4008,4.4051,4.4067,4.4005,4.402,4.4036,4.4039,4.4051,4.4097,4.4097,4.4051,4.3812,4.3458,4.3231,4.3142,4.3069,4.3087,4.305,4.3032,4.305,4.305,4.3032,4.3032,4.3032,4.3032,4.3032,4.3069,4.305,4.3105,4.3214,4.3339,4.3391,4.3461,4.3548,4.3427,4.3142,4.7236,4.7258,4.7511,4.7744,4.7911,4.7913,4.8034,4.7991,4.6544,4.5865,4.5644,4.4016,4.3321,4.3427,4.3444,4.3463,4.3463,4.348,4.3462,4.348,4.3462,4.348,4.348,4.3462,4.3462,4.348,4.3444,4.348,4.3463,4.3427,4.3444,4.3444,4.3444,4.3444,4.3444,4.3444,4.3445,4.3427,4.341,4.3214,4.2881,4.2843,4.2807,4.2825,4.2806,4.2788,4.2787,4.2806,4.2806,4.2825,4.2825,4.2843,4.2844,4.2844,4.2844,4.2844,4.2844,4.2939,4.3123,4.3214,4.3321,4.3444,4.3545,4.3664,4.3646,4.3795,4.3763,4.3548,4.348,4.3496,4.3563,4.3629,4.3714,4.3814,4.391,4.3986,4.4048,4.4121,4.421,4.4335,4.4354,4.4325,4.4214,4.4233,4.4281,4.434,4.4354,4.4383,4.4426,4.444,4.4378,4.4147,4.3902,4.3646,4.3562,4.3546,4.3494,4.3462,4.3444,4.3443,4.3443,4.3443,4.3444,4.346,4.3495,4.3528,4.3545,4.3579,4.3662,4.3781,4.3814,4.383,4.3849,4.3747,4.3477,4.7708,4.7747,4.797,4.817,4.8345,4.8345,4.82,4.7829,4.6756,4.6012,4.5469,4.4309,4.373,4.3686,4.3686,4.3686,4.3686,4.3669,4.3703,4.3734,4.3716,4.3767,4.3798,4.3798,4.3798,4.3798,4.3798,4.3798,4.3798,4.3798,4.3798,4.3798,4.3779,4.3779,4.3779,4.3779,4.3779,4.3779,4.3798,4.3714,4.3563,4.3356,4.325,4.3268,4.325,4.3268,4.3268,4.3268,4.3232,4.3268,4.325,4.325,4.3268,4.3268,4.325,4.3268,4.3267,4.3338,4.3408,4.3563,4.3682,4.3734,4.386,4.3952,4.4014,4.414,4.4207,4.4097,4.3892,4.3814,4.3844,4.3921,4.403,4.4094,4.4203,4.431,4.4321,4.4407,4.4463,4.4524,4.4551,4.4551,4.4463,4.4468,4.4496,4.4578,4.46,4.4659,4.4685,4.4712,4.4719,4.4642,4.449,4.4294,4.4042,4.3949,4.3934,4.3936,4.3921,4.3921,4.3905,4.3902,4.3921,4.3905,4.3936,4.3949,4.3949,4.4011,4.4087,4.417,4.4218,4.4218,4.4151,4.4087,4.3899,4.8172,4.823,4.8401,4.8587,4.8749,4.8767,4.8409,4.7779,4.6994,4.6171,4.5345,4.4573,4.4128,4.4011,4.3947,4.3931,4.3931,4.395,4.3963,4.4023,4.4039,4.4067,4.4128,4.4128,4.4128,4.4162,4.4128,4.4128,4.4143,4.4143,4.4128,4.4128,4.4128,4.4143,4.4162,4.4128,4.4143,4.4128,4.4128,4.4162,4.4097,4.3892,4.3732,4.3649,4.3632,4.3632,4.3632,4.3632,4.3632,4.3614,4.3632,4.3632,4.3632,4.3632,4.3632,4.3632,4.3681,4.373,4.3728,4.386,4.3974,4.402,4.4124,4.4225,4.4298,4.4421,4.451,4.4551,4.4364,4.4214,4.414,4.4258,4.4327,4.4322,4.4505,4.4605,4.4638,4.4653,4.4706,4.4725,4.4764,4.4764,4.4699,4.4699,4.4712,4.4789,4.4833,4.4895,4.4907,4.4955,4.5003,4.5022,4.4991,4.4808,4.4448,4.4369,4.4351,4.4341,4.4327,4.4327,4.436,4.4341,4.4341,4.4317,4.4341,4.4369,4.4383,4.4426,4.4462,4.4476,4.4541,4.4573,4.4495,4.4467,4.4379,4.8605,4.8695,4.882,4.8995,4.9181,4.9162,4.8776,4.8036,4.732,4.6475,4.5594,4.4824,4.4487,4.4458,4.4325,4.427,4.427,4.4255,4.43,4.4354,4.4368,4.4397,4.4487,4.4487,4.4487,4.4449,4.4468,4.4468,4.4468,4.4487,4.4487,4.4487,4.4468,4.4468,4.4468,4.4468,4.4468,4.4487,4.4487,4.4468,4.4487,4.4473,4.4277,4.4051,4.3989,4.3989,4.3989,4.3989,4.3974,4.3989,4.3989,4.3989,4.3989,4.3974,4.3989,4.3989,4.3989,4.4002,4.4079,4.4091,4.417,4.4354,4.4426,4.451,4.456,4.4659,4.4706,4.477,4.4757,4.4667,4.4532,4.46,4.4667,4.468,4.4796,4.4889,4.4902,4.4931,4.4986,4.4967,4.4979,4.4974,4.4895,4.4883,4.4919,4.4967,4.5038,4.5095,4.517,4.5224,4.5256,4.5267,4.5246,4.5159,4.4839,4.4751,4.4745,4.47,4.47,4.4674,4.4699,4.4685,4.4699,4.4693,4.4745,4.4751,4.4783,4.4808,4.4827,4.4852,4.4839,4.4839,4.4827,4.4808,4.4745,4.9042,4.9158,4.919,4.9305,4.9452,4.9498,4.8817,4.7646,4.7394,4.6463,4.5292,4.4877,4.4764,4.4764,4.4706,4.4592,4.4444,4.443,4.4454,4.4524,4.4578,4.4632,4.468,4.4738,4.4745,4.4764,4.4764,4.4745,4.4745,4.4745,4.4745,4.4745,4.4745,4.4764,4.4745,4.4764,4.4764,4.4745,4.4745,4.4764,4.4764,4.4745,4.4693,4.4581,4.4407,4.4306,4.4306,4.4306,4.4306,4.4306,4.4325,4.4325,4.4306,4.4325,4.4325,4.4325,4.4325,4.434,4.435,4.4374,4.4449,4.4524,4.4632,4.4706,4.4802,4.4865,4.4931,4.5014,4.5068,4.5033,4.5033,4.4979,4.4943,4.4967,4.5061,4.5159,4.5159,4.5181,4.5211,4.5192,4.5192,4.5181,4.517,4.5159,4.517,4.5192,4.5235,4.5298,4.5311,4.539,4.5448,4.5477,4.5486,4.5458,4.5341,4.5164,4.5095,4.5084,4.5072,4.5072,4.5091,4.508,4.5061,4.5061,4.5084,4.5095,4.5095,4.5106,4.514,4.5159,4.5159,4.514,4.5159,4.5095,4.5038,4.9476,4.9566,4.9548,4.9625,4.9679,4.949,4.8624,4.7422,4.715,4.6277,4.5181,4.4991,4.5022,4.5014,4.5014,4.4931,4.4764,4.4685,4.4672,4.4738,4.4789,4.4833,4.4919,4.4986,4.5003,4.5033,4.5033,4.5033,4.5026,4.5033,4.5022,4.4991,4.5003,4.5003,4.501,4.5033,4.5026,4.5033,4.5014,4.5045,4.5033,4.5026,4.5033,4.4991,4.4865,4.4706,4.4627,4.4632,4.4632,4.4632,4.4632,4.4632,4.4632,4.4632,4.4632,4.4632,4.4632,4.4632,4.4632,4.4672,4.4712,4.4719,4.4821,4.4919,4.4998,4.5068,4.5148,4.5224,4.5258,4.5279,4.5339,4.5291,4.5239,4.5208,4.529,4.5389,4.539,4.5409,4.539,4.5409,4.539,4.539,4.539,4.5409,4.5409,4.5409,4.5429,4.5477,4.5456,4.5521,4.5584,4.5646,4.5654,4.5643,4.5599,4.5502,4.539,4.5361,4.5351,4.538,4.539,4.539,4.539,4.539,4.539,4.539,4.539,4.539,4.539,4.5409,4.539,4.537,4.538,4.537,4.529,4.9898,4.9898,4.9893,4.992,4.9878,4.9182,4.8314,4.7546,4.6808,4.6024,4.5249,4.5192,4.5224,4.5286,4.5277,4.5267,4.5224,4.5026,4.4955,4.501,4.5003,4.508,4.5181,4.5192,4.5224,4.5267,4.5277,4.5297,4.5267,4.5267,4.5265,4.5213,4.5246,4.5216,4.5203,4.5246,4.5297,4.5286,4.5267,4.5277,4.5297,4.5286,4.5267,4.5286,4.5256,4.514,4.4919,4.4907,4.4895,4.4895,4.4895,4.4895,4.4895,4.4895,4.4895,4.4914,4.4895,4.4914,4.4895,4.4895,4.4931,4.4979,4.5068,4.5117,4.5192,4.5246,4.5309,4.538,4.541,4.5429,4.5504,4.5547,4.5538,4.5419,4.5448,4.5513,4.5568,4.5605,4.5594,4.5594,4.5594,4.5594,4.5594,4.5594,4.5594,4.5603,4.561,4.5596,4.5613,4.5665,4.5743,4.5773,4.5769,4.5757,4.5778,4.5793,4.5696,4.5635,4.5593,4.5594,4.5575,4.5575,4.5575,4.5575,4.5575,4.5575,4.5556,4.5575,4.5575,4.5575,4.5594,4.5586,4.5568,4.5531,4.5485,5.0101,5.0114,5.0151,5.0175,5.0085,4.93,4.8533,4.7742,4.6963,4.6134,4.5446,4.5351,4.538,4.5419,4.5429,4.5467,4.5495,4.541,4.532,4.5235,4.5246,4.5297,4.5319,4.533,4.5341,4.5351,4.537,4.537,4.538,4.5361,4.5361,4.5341,4.5351,4.5351,4.5331,4.5351,4.5351,4.537,4.538,4.538,4.538,4.5361,4.5351,4.5361,4.541,4.539,4.5311,4.5216,4.5162,4.517,4.517,4.517,4.517,4.517,4.517,4.517,4.517,4.5181,4.517,4.5189,4.5181,4.5213,4.5256,4.5309,4.5351,4.54,4.5467,4.5521,4.5528,4.5554,4.5624,4.5692,4.5684,4.5573,4.5599,4.5651,4.5687,4.5692,4.5743,4.5746,4.5734,4.5727,4.5734,4.5734,4.5754,4.5734,4.5749,4.5737,4.5786,4.58,4.584,4.5874,4.5861,4.5867,4.5886,4.5899,4.5861,4.5793,4.5749,4.5731,4.5731,4.5719,4.5739,4.5739,4.5739,4.5739,4.5727,4.5719,4.5739,4.5731,4.5723,4.5715,4.5708,4.5676,4.5616,5.0317,5.0348,5.0401,5.0224,4.9901,4.9071,4.8257,4.7432,4.6647,4.5965,4.5523,4.5465,4.5512,4.5556,4.5565,4.561,4.5682,4.569,4.562,4.5495,4.5477,4.5486,4.5486,4.5513,4.5512,4.5512,4.5493,4.5512,4.5521,4.5512,4.5493,4.5475,4.5503,4.5503,4.5475,4.5484,4.5512,4.5521,4.5512,4.5493,4.5521,4.5512,4.5521,4.5521,4.5547,4.5556,4.5556,4.5514,4.5448,4.5409,4.5409,4.54,4.5419,4.5419,4.5419,4.5429,4.5409,4.5409,4.5409,4.54,4.54,4.5409,4.5448,4.5476,4.5494,4.5547,4.5635,4.5657,4.5704,4.5727,4.5776,4.5812,4.5786,4.573,4.5749,4.5783,4.5791,4.5812,4.5847,4.5874,4.588,4.5874,4.588,4.5861,4.588,4.5886,4.5886,4.5886,4.5931,4.5917,4.5935,4.5972,4.5983,4.5989,4.5975,4.598,4.598,4.5941,4.5893,4.5854,4.5827,4.5808,4.5827,4.5808,4.5808,4.5827,4.5827,4.5834,4.5827,4.5827,4.5827,4.5821,4.5807,4.5798,4.5761,5.0562,5.0603,5.0556,5.0086,4.9384,4.8461,4.7624,4.6826,4.6016,4.5676,4.5605,4.5613,4.5637,4.5708,4.5715,4.5739,4.5795,4.5803,4.5817,4.5757,4.568,4.5643,4.5632,4.5665,4.568,4.568,4.568,4.5688,4.568,4.568,4.5653,4.564,4.5665,4.5673,4.5621,4.5673,4.568,4.57,4.57,4.568,4.57,4.5708,4.5708,4.5708,4.5708,4.5715,4.5696,4.5708,4.5668,4.5612,4.5594,4.5594,4.5622,4.5603,4.5584,4.5603,4.5603,4.5584,4.5584,4.5584,4.5603,4.5612,4.5599,4.5613,4.5629,4.5858,4.6039,4.6015,4.615,4.619,4.6216,4.6132,4.6066,4.5937,4.5899,4.5899,4.5911,4.5917,4.5955,4.6003,4.6008,4.5994,4.6002,4.6007,4.6007,4.6007,4.6007,4.6012,4.6012,4.6037,4.6047,4.6076,4.6085,4.609,4.6075,4.6075,4.6075,4.6066,4.6032,4.598,4.5941,4.5916,4.5916,4.5916,4.591,4.5923,4.5929,4.5935,4.5941,4.5916,4.5916,4.5904,4.5905,4.5906,4.588,5.0645,5.0625,5.0093,4.9742,4.9335,4.8009,4.7252,4.6924,4.6109,4.5749,4.5745,4.5764,4.5786,4.5833,4.5859,4.5854,4.5887,4.5912,4.595,4.5956,4.5917,4.5841,4.5759,4.5771,4.5778,4.5778,4.5778,4.5771,4.5778,4.5778,4.5752,4.5757,4.5771,4.5752,4.5764,4.5771,4.5771,4.5778,4.5778,4.5778,4.5778,4.5778,4.5778,4.5778,4.5826,4.5833,4.584,4.5841,4.5773,4.5711,4.5719,4.5762,4.5743,4.5746,4.5734,4.5734,4.5742,4.5761,4.5742,4.5781,4.5781,4.5761,4.5892,4.5771,4.5838,4.6459,4.677,4.6952,4.7385,4.7778,4.7707,4.7301,4.6809,4.6144,4.6166,4.61,4.6055,4.6051,4.6047,4.6065,4.6054,4.6083,4.6119,4.6127,4.6127,4.6127,4.6127,4.6127,4.6127,4.6127,4.6135,4.615,4.6174,4.6158,4.6162,4.6162,4.6162,4.6177,4.6142,4.6106,4.608,4.6037,4.6042,4.6042,4.6027,4.6042,4.6052,4.6061,4.6037,4.6027,4.6042,4.6032,4.6021,4.6005,4.5978,5.0799,5.0767,4.9958,4.9436,4.9001,4.7733,4.6991,4.6597,4.6125,4.5873,4.5873,4.5893,4.5905,4.5923,4.5943,4.596,4.5989,4.6025,4.6046,4.6032,4.6071,4.6007,4.5904,4.5893,4.5873,4.5873,4.5873,4.5893,4.5893,4.5893,4.5873,4.5873,4.5893,4.5873,4.5873,4.5893,4.5893,4.5893,4.5893,4.5873,4.5873,4.5873,4.5893,4.5899,4.5917,4.5943,4.5943,4.5941,4.5899,4.5821,4.5807,4.584,4.5859,4.5854,4.5848,4.5828,4.5828,4.5854,4.5951,4.6184,4.6448,4.6532,4.6694,4.6958,4.7126,4.7526,4.7796,4.7872,4.8327,4.8538,4.852,4.8185,4.7769,4.7396,4.7205,4.6872,4.6249,4.6141,4.6138,4.6146,4.616,4.6151,4.6209,4.6195,4.6201,4.6201,4.6181,4.6201,4.6201,4.6201,4.6201,4.622,4.6201,4.6203,4.6203,4.6203,4.6203,4.6223,4.622,4.6186,4.618,4.6138,4.6127,4.6127,4.6146,4.6146,4.615,4.615,4.6138,4.6134,4.6149,4.6145,4.6122,4.6069,4.6066,5.0913,5.0814,4.9935,4.9123,4.8314,4.7497,4.6704,4.6143,4.6037,4.6037,4.6017,4.6017,4.6017,4.6017,4.6022,4.6052,4.611,4.6119,4.6106,4.6115,4.615,4.6131,4.6032,4.6022,4.6017,4.6017,4.6037,4.6017,4.6017,4.6017,4.6037,4.6017,4.6017,4.6037,4.6017,4.6017,4.6017,4.6017,4.6017,4.6017,4.6017,4.6017,4.5998,4.6007,4.6021,4.6007,4.6012,4.6012,4.5972,4.5922,4.5916,4.5923,4.5923,4.5929,4.5935,4.6013,4.6077,4.6199,4.6294,4.6985,4.7442,4.7522,4.8111,4.8607,4.8457,4.8569,4.8754,4.874,4.888,4.9097,4.8943,4.8849,4.8711,4.8532,4.8622,4.795,4.6869,4.6436,4.645,4.6348,4.6365,4.6336,4.623,4.62,4.6207,4.6243,4.6225,4.6228,4.6228,4.6248,4.6228,4.6227,4.6227,4.6209,4.6209,4.6228,4.6228,4.6228,4.6228,4.6222,4.6219,4.6201,4.6203,4.6193,4.6183,4.6183,4.618,4.6177,4.6193,4.6193,4.6174,4.619,4.6187,4.613,4.6096,5.0674,4.9982,4.9176,4.8338,4.7499,4.6702,4.6277,4.6091,4.6127,4.6154,4.6154,4.6154,4.6154,4.6154,4.6154,4.6177,4.6181,4.6176,4.6174,4.6192,4.6189,4.6192,4.6147,4.6157,4.6154,4.6135,4.6154,4.6154,4.6154,4.6135,4.6154,4.6154,4.6135,4.6154,4.6154,4.6135,4.6154,4.6154,4.6154,4.6154,4.615,4.615,4.6123,4.6091,4.6093,4.6093,4.6067,4.6067,4.6091,4.6106,4.611,4.6163,4.6139,4.6129,4.6178,4.6372,4.6785,4.7077,4.7238,4.7865,4.8404,4.8442,4.8684,4.8688,4.8725,4.9371,4.9648,4.9823,5.0287,5.0293,4.9889,4.9781,4.956,4.9181,4.8976,4.8784,4.833,4.8207,4.7856,4.7471,4.7281,4.7071,4.6453,4.6477,4.6441,4.6324,4.6345,4.6307,4.6405,4.6522,4.6521,4.6638,4.6521,4.6521,4.6247,4.6266,4.6266,4.6247,4.6247,4.6247,4.6257,4.6248,4.6238,4.6212,4.621,4.6208,4.623,4.6228,4.6208,4.6206,4.6201,4.6216,4.6211,4.6181,4.617,5.0311,4.9761,4.855,4.7784,4.7287,4.6516,4.6148,4.6161,4.6189,4.6198,4.6203,4.6203,4.6203,4.6203,4.6206,4.6203,4.6209,4.6238,4.6247,4.6255,4.6243,4.6246,4.6246,4.6232,4.6238,4.6209,4.6206,4.6203,4.6203,4.6203,4.6206,4.6203,4.6203,4.6184,4.6203,4.6203,4.6206,4.6203,4.6203,4.6203,4.6195,4.6212,4.6206,4.6154,4.6141,4.6141,4.6151,4.6128,4.6394,4.6674,4.6775,4.6746,4.6722,4.6726,4.6886,4.7377,4.7689,4.8028,4.8226,4.8795,4.9329,4.9367,4.9685,4.991,5.0001,5.0433,5.0611,5.0731,5.099,5.1121,5.0768,5.0702,5.0394,5.0204,4.9995,4.9997,4.9899,4.9368,4.8739,4.8314,4.818,4.7967,4.7636,4.7305,4.7441,4.7636,4.7694,4.7674,4.7752,4.7791,4.7381,4.7303,4.7069,4.6834,4.6424,4.6288,4.6288,4.6288,4.6288,4.6288,4.6269,4.6269,4.6267,4.6245,4.624,4.6261,4.6261,4.6261,4.6257,4.6256,4.6254,4.6249,4.6245,4.6238,4.6249,4.9737,4.9503,4.8022,4.7366,4.7203,4.6529,4.6214,4.621,4.6214,4.622,4.6207,4.6209,4.6227,4.621,4.623,4.621,4.6231,4.6255,4.6278,4.6279,4.6284,4.6284,4.6284,4.6284,4.6262,4.6215,4.6227,4.6225,4.6225,4.6207,4.6223,4.6225,4.6225,4.6223,4.6225,4.6227,4.6223,4.6223,4.6243,4.6241,4.6236,4.6234,4.6228,4.6219,4.6465,4.6526,4.6606,4.6726,4.7004,4.7639,4.7719,4.776,4.7794,4.7678,4.7873,4.8636,4.8756,4.8938,4.912,4.9708,5.0241,5.0332,5.0889,5.1267,5.1291,5.1219,5.1242,5.1285,5.1364,5.1369,5.1395,5.1285,5.1307,5.1269,5.1328,5.1385,5.1151,5.0097,4.9512,4.9101,4.9004,4.8827,4.8649,4.8392,4.8701,4.8913,4.8932,4.8952,4.8971,4.8835,4.8305,4.803,4.7832,4.7754,4.7383,4.721,4.7093,4.6959,4.6824,4.6804,4.6764,4.6727,4.6752,4.6347,4.6289,4.6289,4.6289,4.6289,4.6289,4.6288,4.6287,4.6266,4.6284,4.6301,4.6294,4.8569,4.7888,4.7596,4.709,4.6468,4.6321,4.6267,4.629,4.6277,4.6281,4.6285,4.6285,4.6267,4.6288,4.6288,4.6269,4.6269,4.6269,4.6289,4.6289,4.6289,4.6289,4.6288,4.6288,4.6287,4.6289,4.6268,4.6262,4.628,4.6279,4.6261,4.6261,4.628,4.6281,4.6281,4.63,4.6281,4.6262,4.6281,4.628,4.6416,4.6512,4.6529,4.6581,4.7025,4.7279,4.7497,4.7987,4.8479,4.8642,4.8661,4.901,4.9278,4.8956,4.8814,4.9044,4.9551,4.9866,5.0005,5.0608,5.1061,5.1205,5.1309,5.137,5.1394,5.1399,5.1402,5.1402,5.1385,5.1386,5.1387,5.1386,5.1385,5.1402,5.14,5.1398,5.1319,5.1003,5.0496,5.0012,4.9855,4.9736,4.9555,4.9391,4.9446,4.9519,4.9515,4.9454,4.9415,4.9254,4.8896,4.8718,4.8616,4.8577,4.8496,4.8404,4.8291,4.814,4.8045,4.8025,4.7906,4.7567,4.7303,4.7054,4.6574,4.6283,4.6284,4.6304,4.6305,4.6306,4.6288,4.6308,4.6289,4.6288,4.6306,4.7919,4.7512,4.7083,4.6653,4.6302,4.6265,4.6306,4.6288,4.6289,4.6289,4.6289,4.6288,4.6306,4.6284,4.6262,4.6242,4.6262,4.6243,4.6243,4.6242,4.6259,4.6258,4.6239,4.6255,4.6254,4.6238,4.6245,4.6288,4.6289,4.6289,4.6289,4.6289,4.6289,4.6289,4.6289,4.6289,4.6348,4.6348,4.6348,4.6562,4.6992,4.7304,4.7537,4.7692,4.7886,4.816,4.8278,4.8513,4.9041,4.9394,4.9511,5.0,5.0351,5.041,5.0114,5.0169,5.05,5.0755,5.0774,5.1204,5.1342,5.1382,5.1384,5.1385,5.1386,5.1387,5.1386,5.1386,5.1386,5.1384,5.1402,5.1397,5.1393,5.1389,5.1402,5.1396,5.1392,5.1384,5.1095,5.075,5.0707,5.0586,5.0486,5.0343,5.0221,5.0154,5.009,5.0026,4.9928,4.9848,4.9689,4.9435,4.9337,4.9162,4.9181,4.9201,4.922,4.9162,4.9103,4.9103,4.8872,4.8463,4.8198,4.7966,4.737,4.6633,4.6323,4.6344,4.6327,4.6371,4.6456,4.6499,4.6364,4.6287,4.6484,4.7344,4.7284,4.6581,4.6288,4.6288,4.6288,4.6268,4.6285,4.6265,4.6282,4.6277,4.6273,4.6269,4.6266,4.6241,4.6218,4.6197,4.6197,4.6199,4.6199,4.6199,4.6197,4.6197,4.6197,4.6216,4.6236,4.6532,4.6381,4.6278,4.628,4.6261,4.6358,4.6377,4.6552,4.6611,4.6944,4.6748,4.6807,4.6808,4.722,4.7868,4.8456,4.8827,4.8886,4.8984,4.9062,4.9081,4.9413,4.9804,5.0213,5.0427,5.066,5.1241,5.1396,5.1381,5.1386,5.1386,5.1386,5.1367,5.1347,5.1386,5.1386,5.1385,5.1385,5.1384,5.14,5.1394,5.1391,5.139,5.1389,5.1385,5.1398,5.139,5.1384,5.1391,5.1397,5.14,5.1397,5.1375,5.1258,5.1388,5.1252,5.0985,5.0946,5.0748,5.0735,5.069,5.0768,5.0709,5.0846,5.067,5.0303,5.003,4.9738,4.9695,4.9812,4.9868,4.9946,4.9926,4.9907,4.9617,4.9253,4.9048,4.8817,4.7995,4.7301,4.6874,4.6765,4.7164,4.7311,4.6952,4.6936,4.7245,4.729,4.7354,4.6438,4.6453,4.6355,4.6273,4.623,4.623,4.6228,4.6209,4.6227,4.6222,4.6214,4.6212,4.6206,4.6216,4.6214,4.6211,4.6211,4.6211,4.6211,4.6211,4.6211,4.625,4.627,4.6211,4.6445,4.6621,4.7089,4.6811,4.6647,4.6497,4.6362,4.6518,4.7121,4.7375,4.7434,4.7844,4.8491,4.8439,4.844,4.856,4.876,4.8937,4.9054,4.9192,4.9582,4.9952,5.003,5.0421,5.0948,5.1065,5.1183,5.1279,5.1391,5.1402,5.1394,5.14,5.139,5.14,5.1399,5.1398,5.1398,5.1398,5.1397,5.1399,5.1395,5.1387,5.1392,5.1386,5.1389,5.1394,5.1396,5.1386,5.14,5.138,5.1375,5.1388,5.1388,5.1356,5.1353,5.133,5.1349,5.133,5.1197,5.1236,5.1271,5.1277,5.1308,5.1312,5.1331,5.1319,5.1319,5.0874,5.068,5.0426,5.029,5.0403,5.0423,5.0594,5.0594,5.0614,5.0384,5.0095,4.9951,4.9562,4.8782,4.8477,4.8454,4.8466,4.8491,4.8226,4.7867,4.8116,4.8535,4.8452,4.8156,4.6236,4.6232,4.6232,4.6228,4.6204,4.6204,4.6204,4.6204,4.6204,4.6201,4.6194,4.6206,4.6198,4.6206,4.62,4.62,4.62,4.6238,4.6203,4.6258,4.6297,4.6511,4.6882,4.6999,4.7096,4.7603,4.7973,4.8113,4.7702,4.766,4.7665,4.7665,4.7996,4.825,4.825,4.8601,4.874,4.8881,4.9215,4.953,4.971,5.0022,5.0295,5.0295,5.0629,5.0766,5.0904,5.1117,5.139,5.139,5.139,5.1388,5.1384,5.1396,5.1391,5.1389,5.1401,5.1388,5.139,5.139,5.1392,5.1392,5.139,5.1388,5.1388,5.1401,5.1391,5.1397,5.1394,5.1394,5.1372,5.1366,5.1343,5.134,5.133,5.1326,5.1346,5.1323,5.1312,5.1308,5.1304,5.1289,5.1289,5.1289,5.1292,5.1312,5.1304,5.1304,5.1304,5.1304,5.1304,5.1246,5.1168,5.1109,5.1012,5.1012,5.0918,5.0996,5.0996,5.1012,5.109,5.093,5.0677,5.0657,5.033,5.0127,5.0079,4.952,4.898,4.8847,4.8772,4.9006,4.9181,4.8898,4.8645,4.6198,4.6195,4.6201,4.6201,4.6198,4.6195,4.6195,4.6198,4.6195,4.6195,4.6212,4.6203,4.6209,4.6212,4.6192,4.6192,4.6181,4.6395,4.6493,4.6532,4.6785,4.7272,4.7642,4.7856,4.8109,4.8811,4.8947,4.9009,4.9134,4.9207,4.9182,4.8863,4.8941,4.9078,4.9156,4.9429,4.9646,4.9694,5.0168,5.0405,5.0542,5.0987,5.1222,5.1319,5.1394,5.1394,5.1394,5.1397,5.1397,5.14,5.14,5.138,5.1375,5.1352,5.1349,5.1362,5.1346,5.1366,5.1372,5.1375,5.1394,5.1394,5.1394,5.14,5.1372,5.1388,5.1385,5.1359,5.1372,5.1372,5.1353,5.1319,5.1289,5.1277,5.1273,5.1269,5.1265,5.1265,5.1261,5.1256,5.1252,5.1256,5.1256,5.1261,5.1288,5.1296,5.13,5.1296,5.1296,5.1296,5.1296,5.1296,5.13,5.13,5.13,5.13,5.13,5.13,5.13,5.13,5.1261,5.1261,5.1106,5.1203,5.13,5.1129,5.0688,5.0013,4.9432,4.9724,4.9923,4.9695,4.9621,4.9373,4.9405,4.6203,4.6203,4.62,4.6196,4.6203,4.6203,4.6203,4.6183,4.6203,4.6203,4.6203,4.6199,4.6208,4.6271,4.6345,4.6317,4.6258,4.6973,4.725,4.7601,4.8078,4.8359,4.8597,4.8656,4.8729,4.9041,4.9571,4.9901,5.0053,5.0417,4.9893,4.9099,4.9691,4.9862,5.008,5.0419,5.0695,5.0764,5.1011,5.1135,5.1174,5.133,5.1369,5.1391,5.1391,5.1394,5.1394,5.1391,5.1388,5.1388,5.1369,5.1362,5.133,5.133,5.1323,5.1308,5.1304,5.1324,5.1308,5.1349,5.1388,5.1394,5.1388,5.1359,5.1323,5.131,5.1323,5.1304,5.1316,5.1304,5.1295,5.1258,5.1239,5.1239,5.1239,5.1239,5.1234,5.123,5.1225,5.1215,5.122,5.123,5.1234,5.1239,5.1243,5.1256,5.128,5.128,5.1284,5.1284,5.1292,5.1296,5.1296,5.1296,5.13,5.13,5.13,5.13,5.13,5.13,5.13,5.13,5.132,5.13,5.13,5.13,5.1281,5.0704,5.047,5.0934,5.1012,5.0575,5.0485,5.0433,5.0599,4.6142,4.6142,4.6131,4.6174,4.6197,4.6166,4.6123,4.6123,4.6142,4.6142,4.6181,4.6158,4.6446,4.6807,4.6978,4.725,4.7669,4.7981,4.8171,4.8248,4.856,4.9007,4.9241,4.9586,4.9751,5.0136,5.0583,5.0744,5.0821,5.1064,5.0923,5.0557,5.0551,5.0723,5.0985,5.1063,5.1226,5.1308,5.1319,5.1342,5.1342,5.1342,5.1342,5.1342,5.1323,5.1342,5.1342,5.1342,5.1323,5.1323,5.1323,5.1312,5.13,5.1296,5.1284,5.1267,5.1263,5.1258,5.1267,5.1296,5.1339,5.1347,5.1343,5.132,5.1261,5.1256,5.1233,5.1239,5.123,5.124,5.124,5.1235,5.1215,5.1211,5.1206,5.1201,5.1196,5.1205,5.1185,5.1175,5.1196,5.1215,5.1215,5.1215,5.1225,5.121,5.1234,5.1278,5.136,5.1481,5.1564,5.1704,5.1767,5.1654,5.1658,5.1507,5.1355,5.1433,5.1487,5.1604,5.1717,5.1316,5.1316,5.132,5.1452,5.1569,5.1569,5.1374,5.13,5.13,5.13,5.1183,5.123,5.13,5.1326,4.6117,4.6093,4.608,4.6113,4.6154,4.6122,4.6117,4.6117,4.6117,4.6292,4.6482,4.6497,4.6951,4.7563,4.7748,4.7951,4.8466,4.8816,4.8976,4.9146,4.9418,4.9759,5.0128,5.0376,5.0539,5.1081,5.1159,5.1134,5.1089,5.1169,5.1078,5.1074,5.1235,5.12,5.1217,5.1308,5.1308,5.1312,5.1296,5.1296,5.1292,5.1312,5.1284,5.1265,5.128,5.1261,5.128,5.1261,5.1261,5.128,5.128,5.1272,5.1263,5.1254,5.1244,5.1215,5.122,5.1215,5.1249,5.1254,5.1272,5.1267,5.1263,5.123,5.1206,5.1196,5.1201,5.1166,5.118,5.1175,5.1175,5.1173,5.1161,5.115,5.115,5.1144,5.1169,5.1163,5.1156,5.1156,5.1186,5.1303,5.1841,5.1894,5.168,5.1521,5.122,5.1439,5.1848,5.1945,5.2062,5.2242,5.2402,5.2275,5.2109,5.2299,5.2489,5.2548,5.2567,5.2396,5.2319,5.1962,5.1981,5.2396,5.242,5.2122,5.2068,5.2165,5.1784,5.132,5.132,5.13,5.13,5.1312,5.1296,4.6093,4.6089,4.6022,4.6032,4.6089,4.6093,4.6089,4.6099,4.6201,4.6625,4.7296,4.732,4.7761,4.84,4.8532,4.8708,4.8994,4.9531,4.9783,4.9899,5.0287,5.0843,5.092,5.094,5.0888,5.103,5.1101,5.1095,5.1121,5.1121,5.1107,5.1125,5.1173,5.119,5.1211,5.1278,5.131,5.1291,5.1288,5.13,5.1291,5.1287,5.1258,5.122,5.1235,5.124,5.1211,5.1191,5.1191,5.1211,5.1211,5.1206,5.1201,5.1201,5.1196,5.119,5.1253,5.1281,5.1286,5.1273,5.1346,5.1234,5.119,5.1205,5.1214,5.1184,5.1147,5.1119,5.112,5.1108,5.1108,5.1115,5.1101,5.1082,5.1082,5.1237,5.1263,5.1399,5.1457,5.1774,5.1541,5.1476,5.2271,5.2672,5.2343,5.1958,5.1404,5.159,5.226,5.2502,5.2647,5.2761,5.296,5.2976,5.2947,5.337,5.3584,5.3657,5.3487,5.3191,5.3171,5.3113,5.3244,5.355,5.3327,5.2937,5.2985,5.3091,5.2624,5.2113,5.1452,5.13,5.13,5.1304,5.1308,4.595,4.5969,4.5933,4.5953,4.5969,4.5956,4.5969,4.6067,4.6591,4.7323,4.8002,4.8101,4.8566,4.9149,4.9427,4.9594,5.0116,5.0264,5.0574,5.0557,5.0867,5.0905,5.0963,5.0983,5.0983,5.099,5.1005,5.1039,5.1046,5.1055,5.1075,5.1102,5.1309,5.115,5.119,5.124,5.124,5.1225,5.123,5.1249,5.1264,5.1298,5.1322,5.1316,5.1336,5.1344,5.1309,5.1361,5.1336,5.1336,5.1356,5.133,5.1305,5.1299,5.1249,5.1353,5.1522,5.2208,5.251,5.2665,5.2117,5.1612,5.128,5.132,5.1179,5.1134,5.1095,5.1127,5.1261,5.122,5.0986,5.1017,5.101,5.0971,5.1048,5.1416,5.161,5.1815,5.2028,5.2597,5.2678,5.2593,5.3057,5.3541,5.3363,5.3226,5.2822,5.2706,5.3185,5.3223,5.3295,5.3346,5.3462,5.3582,5.3775,5.4158,5.4227,5.415,5.3933,5.3643,5.3715,5.4069,5.3997,5.4035,5.391,5.3789,5.376,5.3667,5.3448,5.2981,5.2265,5.1717,5.1686,5.153,5.13,4.5874,4.5893,4.6183,4.6274,4.628,4.6319,4.6481,4.6816,4.7397,4.8095,4.8746,4.8914,4.9371,4.9952,5.0216,5.0317,5.0925,5.0925,5.0898,5.0858,5.0858,5.0858,5.0858,5.0858,5.0877,5.0885,5.0921,5.0925,5.0937,5.1002,5.1237,5.1516,5.1748,5.205,5.2026,5.1921,5.1683,5.1806,5.1967,5.2239,5.2189,5.2144,5.2139,5.2135,5.2116,5.2059,5.1962,5.189,5.1864,5.1845,5.1838,5.187,5.1857,5.1881,5.1874,5.2112,5.2361,5.2957,5.3207,5.3279,5.2685,5.2098,5.1879,5.1906,5.1896,5.2082,5.2001,5.1939,5.173,5.1733,5.1689,5.1623,5.1559,5.1578,5.1704,5.2082,5.2247,5.2478,5.2633,5.3221,5.3452,5.351,5.379,5.4204,5.4415,5.4383,5.434,5.4207,5.4041,5.4018,5.4115,5.4268,5.4412,5.4653,5.477,5.4919,5.4893,5.4659,5.4515,5.4385,5.4716,5.51,5.4813,5.4641,5.4841,5.4852,5.4455,5.4226,5.409,5.3687,5.302,5.2552,5.22,5.2048,5.1935,4.5858,4.5986,4.6735,4.704,4.7075,4.7224,4.7715,4.8369,4.8408,4.8872,4.9614,4.9625,5.0014,5.0651,5.0761,5.0743,5.0793,5.0793,5.0784,5.0775,5.0747,5.0756,5.0775,5.0775,5.0873,5.0891,5.0985,5.1198,5.0947,5.1329,5.1738,5.218,5.2702,5.2862,5.2806,5.2775,5.2491,5.2589,5.2829,5.3036,5.3022,5.3229,5.3118,5.309,5.3088,5.3085,5.3042,5.3038,5.3091,5.3141,5.3191,5.3249,5.3299,5.3357,5.3376,5.3406,5.3391,5.3463,5.3677,5.3754,5.3629,5.334,5.3395,5.344,5.3159,5.291,5.2787,5.2799,5.2723,5.2935,5.3041,5.2926,5.2839,5.282,5.28,5.2982,5.3087,5.3212,5.3269,5.3491,5.3587,5.3828,5.4426,5.4879,5.4987,5.5074,5.4998,5.4959,5.483,5.481,5.4992,5.5451,5.5618,5.5866,5.5889,5.5567,5.555,5.5319,5.5557,5.5544,5.5881,5.5883,5.5612,5.556,5.5992,5.5933,5.5336,5.4997,5.4833,5.4371,5.406,5.3517,5.3224,5.3238,5.3208,4.6937,4.7516,4.7715,4.7785,4.7862,4.844,4.8889,4.915,4.9153,4.9579,5.037,5.0325,5.0422,5.0673,5.0663,5.0654,5.0644,5.0654,5.0624,5.0643,5.0692,5.0633,5.0653,5.0759,5.0969,5.1325,5.1557,5.1779,5.2299,5.2386,5.2454,5.2887,5.3292,5.3321,5.3475,5.3619,5.3449,5.3359,5.3604,5.3681,5.3673,5.3685,5.3669,5.3663,5.3677,5.3651,5.3586,5.353,5.3483,5.3397,5.3311,5.3263,5.3176,5.3215,5.3311,5.4053,5.4128,5.425,5.4778,5.488,5.4732,5.4625,5.4707,5.4087,5.3656,5.3358,5.3387,5.3512,5.353,5.3606,5.3605,5.3524,5.3492,5.347,5.3486,5.3598,5.3721,5.3913,5.3989,5.4239,5.4315,5.4392,5.501,5.5151,5.527,5.5481,5.5572,5.5483,5.544,5.5374,5.5458,5.5891,5.6005,5.6023,5.6031,5.5777,5.5927,5.6036,5.6098,5.6133,5.6075,5.6066,5.6178,5.6232,5.6246,5.6226,5.6058,5.5765,5.5485,5.5732,5.5499,5.4827,5.4304,5.43,5.4237,4.7645,4.8135,4.8414,4.8721,4.9105,4.9555,4.9826,4.9865,4.9846,5.0163,5.0567,5.0567,5.0546,5.0546,5.0566,5.0545,5.0553,5.0563,5.0542,5.0589,5.0834,5.1009,5.1018,5.1294,5.1815,5.2121,5.2305,5.2502,5.3094,5.35,5.358,5.361,5.3791,5.4002,5.4243,5.4564,5.4587,5.4429,5.4352,5.4293,5.4245,5.4245,5.4303,5.4236,5.4236,5.4178,5.4129,5.41,5.4098,5.4105,5.4094,5.4103,5.4079,5.4117,5.4186,5.4811,5.4847,5.4975,5.5278,5.5358,5.5406,5.5408,5.5357,5.4872,5.4484,5.4231,5.4246,5.4287,5.418,5.41,5.4016,5.395,5.3946,5.3941,5.4032,5.4122,5.4351,5.4568,5.4836,5.5154,5.5231,5.518,5.532,5.5376,5.5413,5.5456,5.5492,5.5516,5.5514,5.5521,5.5545,5.5788,5.5837,5.5837,5.5847,5.5875,5.5923,5.5959,5.5987,5.6014,5.6101,5.6141,5.6137,5.617,5.6219,5.6194,5.6194,5.624,5.6129,5.6304,5.631,5.574,5.5283,5.5311,5.518,4.813,4.8313,4.8973,4.9671,5.0383,5.0391,5.041,5.0459,5.0372,5.0459,5.0489,5.0459,5.0438,5.0427,5.0407,5.0541,5.0653,5.073,5.0902,5.0698,5.1408,5.1714,5.1944,5.2487,5.2621,5.2897,5.3119,5.3226,5.3433,5.3893,5.4322,5.4415,5.4901,5.508,5.503,5.5126,5.5104,5.5032,5.5105,5.5187,5.5385,5.5568,5.5692,5.5547,5.5476,5.5431,5.5439,5.5462,5.5492,5.5442,5.5404,5.5289,5.5227,5.5188,5.5284,5.5303,5.5222,5.5255,5.5326,5.5339,5.5307,5.5236,5.5164,5.5063,5.488,5.481,5.4802,5.4795,5.4694,5.4682,5.4626,5.46,5.4575,5.4568,5.46,5.4644,5.4739,5.4892,5.4987,5.5216,5.5216,5.5197,5.5216,5.5249,5.5275,5.5307,5.5345,5.542,5.5533,5.5562,5.5719,5.5767,5.5712,5.5714,5.5695,5.5726,5.5747,5.5797,5.5923,5.5904,5.5979,5.6012,5.6062,5.6126,5.6185,5.6232,5.6233,5.6298,5.633,5.6317,5.6298,5.6317,5.6219,5.6133,5.5925,4.9151,4.9752,4.983,5.0023,5.0194,5.0194,5.0207,5.0194,5.0194,5.0255,5.0314,5.0255,5.0219,5.0231,5.0326,5.0574,5.1039,5.1228,5.1548,5.184,5.2317,5.245,5.2438,5.2857,5.3194,5.3531,5.3778,5.397,5.4345,5.4714,5.4897,5.4892,5.521,5.5223,5.5223,5.5223,5.5242,5.5268,5.5275,5.5401,5.5516,5.5539,5.557,5.5547,5.548,5.5444,5.542,5.5364,5.5333,5.5294,5.5262,5.5217,5.5183,5.5183,5.5183,5.5183,5.521,5.5229,5.5203,5.5183,5.5162,5.5149,5.5121,5.5121,5.5116,5.5176,5.5203,5.5216,5.5197,5.5203,5.5189,5.5162,5.5116,5.5121,5.5094,5.5094,5.5061,5.5061,5.5061,5.5075,5.5075,5.5094,5.5094,5.5107,5.5135,5.5149,5.5162,5.5241,5.5426,5.5555,5.5835,5.5871,5.5642,5.5608,5.5635,5.5927,5.6153,5.6082,5.6145,5.6036,5.5952,5.6289,5.6609,5.6269,5.6168,5.6507,5.6652,5.6356,5.6363,5.6615,5.6699,5.6874,5.6719,5.6589,5.6414,4.9768,5.0188,5.0133,5.0108,5.0108,5.0108,5.0108,5.0095,5.005,5.0108,5.017,5.012,5.0114,5.0247,5.0495,5.0875,5.1503,5.1801,5.2062,5.2505,5.3031,5.3153,5.3253,5.343,5.4003,5.439,5.4447,5.4689,5.5023,5.5069,5.505,5.508,5.5061,5.508,5.5094,5.5094,5.508,5.5088,5.5061,5.517,5.5333,5.5333,5.5333,5.5307,5.5294,5.5268,5.5255,5.5229,5.5203,5.5176,5.5176,5.5162,5.5135,5.5102,5.5088,5.5088,5.5088,5.508,5.5052,5.5038,5.5023,5.5028,5.5014,5.5019,5.5,5.5042,5.5099,5.5094,5.513,5.5149,5.5094,5.5066,5.5023,5.5014,5.5,5.4985,5.4985,5.4985,5.4985,5.4985,5.4985,5.4985,5.5,5.5042,5.5185,5.5789,5.5674,5.5955,5.5993,5.5865,5.6066,5.6204,5.6136,5.5983,5.6065,5.6429,5.6849,5.6719,5.6491,5.6843,5.7084,5.7149,5.7174,5.7071,5.7121,5.7412,5.7412,5.7118,5.7326,5.7753,5.7696,5.7593,5.736,5.7204,5.7289,5.005,5.0057,5.0044,5.0044,5.0044,5.0044,5.0044,5.0031,4.9992,5.0028,5.0174,5.0233,5.0196,5.0526,5.1115,5.1458,5.1914,5.2515,5.2756,5.3213,5.3712,5.386,5.4164,5.4553,5.4715,5.481,5.4867,5.4881,5.4962,5.4981,5.4981,5.5038,5.5038,5.5057,5.5057,5.5057,5.5014,5.4981,5.4981,5.5028,5.5052,5.508,5.5121,5.5107,5.5066,5.5085,5.5085,5.5057,5.5057,5.5042,5.5028,5.5014,5.5,5.4966,5.4981,5.4981,5.4966,5.4971,5.4956,5.4927,5.4916,5.4886,5.489,5.489,5.4871,5.4916,5.4956,5.4985,5.5023,5.5038,5.4995,5.4971,5.4941,5.495,5.4935,5.4973,5.4973,5.4992,5.5011,5.503,5.5144,5.5144,5.5291,5.5298,5.565,5.6234,5.6643,5.7015,5.7167,5.6871,5.682,5.7001,5.7049,5.6897,5.6668,5.6943,5.742,5.734,5.7245,5.7772,5.8093,5.7839,5.7854,5.8209,5.8321,5.8267,5.8335,5.818,5.8505,5.8695,5.8406,5.8155,5.8234,5.8156,5.8428,4.9871,4.9778,4.9759,4.9774,4.9792,4.9792,4.9759,4.9778,4.9797,5.009,5.0652,5.0761,5.0823,5.1058,5.184,5.239,5.2897,5.3371,5.3959,5.4495,5.4389,5.453,5.4629,5.4701,5.4761,5.4814,5.481,5.478,5.4837,5.4826,5.4799,5.4795,5.4795,5.478,5.478,5.4795,5.481,5.4826,5.4826,5.4826,5.4886,5.4927,5.5057,5.5028,5.4956,5.4916,5.4856,5.4814,5.4783,5.4783,5.4814,5.4829,5.481,5.4826,5.4826,5.4841,5.4822,5.4826,5.4795,5.4795,5.4764,5.4764,5.4767,5.4767,5.4749,5.4749,5.4795,5.481,5.4856,5.4931,5.4916,5.4916,5.4905,5.5015,5.5053,5.5129,5.5185,5.528,5.5375,5.5659,5.5962,5.6228,5.6641,5.6675,5.6732,5.7161,5.7237,5.7575,5.7799,5.7689,5.7597,5.7803,5.7973,5.7749,5.7505,5.7572,5.7873,5.782,5.796,5.8438,5.8575,5.8219,5.834,5.8944,5.8886,5.8738,5.882,5.9202,5.9076,5.913,5.8869,5.8717,5.8893,5.9101,5.9366]}]]